[[{"header":{"parameterUnit":"m.s-1","parameterCategory":1,"la1":30.6,"la2":29.2853,"lo1":-89.7004,"lo2":-87.6739,"dy":0.0162,"dx":0.0183,"nx":112,"ny":82,"refTime":"2023-08-02T18:00:00:Z","depth":0,"parameterNumber":2,"parameterNumberName":"U-component_of_WINDS"},"data":[0.0,0.0,0.0,0.0,0.0,0.0,0.0,0.0,0.0,0.0,0.0,0.0,0.0,0.0,0.0,0.0,0.0,0.0,0.0,0.0,0.0,0.0,0.0,0.0,0.0,0.0,0.0,0.0,0.0,0.0,0.0,0.0,0.0,0.0,0.0,0.0,0.0,0.0,0.0,0.0,0.0,0.0,0.0,0.0,0.0,0.0,0.0,0.0,0.0,0.0,0.0,0.0,0.0,0.0,0.0,0.0,0.0,0.0,0.0,0.0,0.0,0.0,0.0,0.0,0.0,0.0,0.0,0.0,0.0,0.0,0.0,0.0,0.0,0.0,0.0,0.0,0.0,0.0,0.0,0.0,0.0,0.0,0.0,0.0,0.0,0.0,0.0,0.0,0.0,0.0,-1.0067,-1.055,-1.0475,-1.0105,-0.9397,-1.0738,-1.131,-1.0532,0.0,0.0,0.0,0.0,0.0,0.0,0.0,0.0,0.0,0.0,0.0,0.0,0.0,0.0,0.0,0.0,0.0,0.0,0.0,0.0,0.0,0.0,0.0,0.0,0.0,0.0,0.0,0.0,0.0,0.0,0.0,0.0,0.0,0.0,0.0,0.0,0.0,0.0,0.0,0.0,0.0,0.0,0.0,0.0,0.0,0.0,0.0,0.0,0.0,0.0,0.0,0.0,0.0,0.0,0.0,0.0,0.0,0.0,0.0,0.0,0.0,0.0,0.0,0.0,0.0,0.0,0.0,0.0,0.0,0.0,0.0,0.0,0.0,0.0,0.0,0.0,0.0,0.0,0.0,0.0,0.0,0.0,0.0,0.0,0.0,0.0,0.0,0.0,0.0,0.0,0.0,0.0,0.0,0.0,0.0,0.0,0.0,0.0,0.0,0.0,0.0,0.0,0.0,0.0,-0.9884,-0.9809,-0.9771,-0.9695,-0.9582,-0.9809,-0.9981,-1.0018,0.0,0.0,0.0,0.0,0.0,0.0,0.0,0.0,0.0,0.0,0.0,0.0,0.0,0.0,0.0,0.0,0.0,0.0,0.0,0.0,0.0,0.0,0.0,0.0,0.0,0.0,0.0,0.0,0.0,0.0,0.0,0.0,0.0,0.0,0.0,0.0,0.0,0.0,0.0,0.0,0.0,0.0,0.0,0.0,0.0,0.0,0.0,0.0,0.0,0.0,0.0,0.0,0.0,0.0,0.0,0.0,0.0,0.0,0.0,0.0,0.0,0.0,0.0,0.0,0.0,0.0,0.0,0.0,0.0,0.0,0.0,0.0,0.0,0.0,0.0,0.0,0.0,0.0,0.0,0.0,0.0,0.0,0.0,0.0,0.0,0.0,0.0,0.0,0.0,0.0,0.0,0.0,0.0,0.0,0.0,0.0,0.0,0.0,0.0,0.0,0.0,0.0,0.0,-0.9922,-0.9549,-0.9435,-0.9322,-0.9322,-0.9435,-0.9435,-0.9511,-0.9733,-0.9867,0.0,0.0,0.0,0.0,0.0,0.0,0.0,0.0,0.0,0.0,0.0,0.0,0.0,0.0,0.0,0.0,0.0,0.0,0.0,0.0,0.0,0.0,0.0,0.0,0.0,0.0,0.0,0.0,0.0,0.0,0.0,0.0,0.0,0.0,0.0,0.0,0.0,0.0,0.0,0.0,0.0,0.0,0.0,0.0,0.0,0.0,0.0,0.0,0.0,0.0,0.0,0.0,0.0,0.0,0.0,0.0,0.0,0.0,0.0,0.0,0.0,0.0,0.0,0.0,0.0,0.0,0.0,0.0,0.0,0.0,0.0,0.0,0.0,0.0,0.0,0.0,0.0,0.0,0.0,0.0,0.0,0.0,0.0,0.0,0.0,0.0,0.0,0.0,0.0,0.0,0.0,0.0,0.0,0.0,0.0,0.0,0.0,0.0,0.0,0.0,0.0,0.0,-0.962,-0.9435,-0.9435,-0.9284,-0.9284,-0.9435,-0.9435,-0.9511,-0.9657,-0.9341,0.0,0.0,0.0,0.0,0.0,0.0,0.0,0.0,0.0,0.0,0.0,0.0,0.0,0.0,0.0,0.0,0.0,0.0,0.0,0.0,0.0,0.0,0.0,0.0,0.0,0.0,0.0,0.0,0.0,0.0,0.0,0.0,0.0,0.0,0.0,0.0,0.0,0.0,0.0,0.0,0.0,0.0,0.0,0.0,0.0,0.0,0.0,0.0,0.0,0.0,0.0,0.0,0.0,0.0,0.0,0.0,0.0,0.0,0.0,0.0,0.0,0.0,0.0,0.0,0.0,0.0,0.0,0.0,0.0,0.0,0.0,0.0,0.0,0.0,0.0,0.0,0.0,0.0,0.0,0.0,0.0,0.0,0.0,0.0,0.0,0.0,0.0,0.0,0.0,0.0,0.0,0.0,0.0,0.0,0.0,0.0,0.0,0.0,0.0,0.0,0.0,0.0,-0.9884,-0.9846,-0.9846,-0.9846,-0.9846,-0.9841,-0.9846,-0.9884,-0.9884,-0.9679,0.0,0.0,0.0,0.0,0.0,0.0,0.0,0.0,0.0,0.0,0.0,0.0,0.0,0.0,0.0,0.0,0.0,0.0,0.0,0.0,0.0,0.0,0.0,0.0,0.0,0.0,0.0,0.0,0.0,0.0,0.0,0.0,0.0,0.0,0.0,0.0,0.0,0.0,0.0,0.0,0.0,0.0,0.0,0.0,0.0,0.0,0.0,0.0,0.0,0.0,0.0,0.0,0.0,0.0,0.0,0.0,0.0,0.0,0.0,0.0,0.0,0.0,0.0,0.0,0.0,0.0,0.0,0.0,0.0,0.0,0.0,0.0,0.0,0.0,0.0,0.0,0.0,0.0,0.0,0.0,0.0,0.0,0.0,0.0,0.0,0.0,0.0,0.0,0.0,0.0,0.0,0.0,0.0,0.0,0.0,0.0,0.0,0.0,0.0,0.0,0.0,0.0,-0.9809,-0.9695,0.0,-0.9582,-0.9587,-0.9695,-0.9582,-0.9644,-0.9939,0.0,0.0,0.0,0.0,0.0,0.0,0.0,0.0,0.0,0.0,0.0,0.0,0.0,0.0,0.0,0.0,0.0,0.0,0.0,0.0,0.0,0.0,0.0,0.0,0.0,0.0,0.0,0.0,0.0,0.0,0.0,0.0,0.0,0.0,0.0,0.0,0.0,0.0,0.0,0.0,0.0,0.0,0.0,0.0,0.0,0.0,0.0,0.0,0.0,0.0,0.0,0.0,0.0,0.0,0.0,0.0,0.0,0.0,0.0,0.0,0.0,0.0,0.0,0.0,0.0,0.0,0.0,0.0,0.0,0.0,0.0,0.0,0.0,0.0,0.0,0.0,0.0,0.0,0.0,0.0,0.0,0.0,0.0,0.0,0.0,0.0,0.0,0.0,0.0,0.0,0.0,0.0,0.0,0.0,0.0,0.0,0.0,0.0,0.0,0.0,0.0,0.0,-0.9873,-0.9771,-0.9695,0.0,-0.9654,-0.9663,-0.9811,-0.9764,-0.9868,-1.0182,0.0,0.0,0.0,0.0,0.0,0.0,0.0,0.0,0.0,0.0,0.0,0.0,0.0,0.0,0.0,0.0,0.0,0.0,0.0,0.0,0.0,0.0,0.0,0.0,0.0,0.0,0.0,0.0,0.0,0.0,0.0,0.0,0.0,0.0,0.0,0.0,0.0,0.0,0.0,0.0,0.0,0.0,0.0,0.0,0.0,0.0,0.0,0.0,0.0,0.0,0.0,0.0,0.0,0.0,0.0,0.0,0.0,0.0,0.0,0.0,0.0,0.0,0.0,0.0,0.0,0.0,0.0,0.0,0.0,0.0,0.0,0.0,0.0,0.0,0.0,0.0,0.0,0.0,0.0,0.0,0.0,0.0,0.0,0.0,0.0,0.0,0.0,0.0,0.0,0.0,0.0,0.0,0.0,0.0,0.0,0.0,0.0,0.0,0.0,0.0,0.0,0.0,-0.9857,-0.9889,-0.9889,-0.9889,-1.0153,-1.0299,-1.0299,-1.0503,-1.0597,0.0,0.0,0.0,0.0,0.0,0.0,0.0,0.0,0.0,0.0,0.0,0.0,0.0,0.0,0.0,0.0,0.0,0.0,0.0,0.0,0.0,0.0,0.0,0.0,0.0,0.0,0.0,0.0,0.0,0.0,0.0,0.0,0.0,0.0,0.0,0.0,0.0,0.0,0.0,0.0,0.0,0.0,0.0,0.0,0.0,0.0,0.0,0.0,0.0,0.0,0.0,0.0,0.0,0.0,0.0,0.0,0.0,0.0,0.0,0.0,0.0,0.0,0.0,0.0,0.0,0.0,0.0,0.0,0.0,0.0,0.0,0.0,0.0,0.0,0.0,0.0,0.0,0.0,0.0,0.0,0.0,0.0,0.0,0.0,0.0,0.0,0.0,0.0,0.0,0.0,0.0,0.0,0.0,0.0,0.0,0.0,0.0,0.0,0.0,0.0,0.0,0.0,0.0,-1.0175,-1.0326,-1.0383,-1.0383,-1.0447,-1.0495,-1.0495,-1.0554,-1.0662,-1.0869,0.0,0.0,0.0,0.0,0.0,0.0,0.0,0.0,0.0,0.0,0.0,0.0,0.0,0.0,0.0,0.0,0.0,0.0,0.0,0.0,0.0,0.0,0.0,0.0,0.0,0.0,0.0,0.0,0.0,0.0,0.0,0.0,0.0,0.0,0.0,0.0,0.0,0.0,0.0,0.0,0.0,0.0,0.0,0.0,0.0,0.0,0.0,0.0,0.0,0.0,0.0,0.0,0.0,0.0,0.0,0.0,0.0,0.0,0.0,0.0,0.0,0.0,0.0,0.0,0.0,0.0,0.0,0.0,0.0,0.0,0.0,0.0,0.0,0.0,0.0,0.0,0.0,0.0,0.0,0.0,0.0,0.0,0.0,0.0,0.0,0.0,0.0,0.0,0.0,0.0,0.0,0.0,0.0,0.0,0.0,0.0,0.0,0.0,0.0,0.0,0.0,0.0,-1.0433,-1.0512,-1.0597,-1.0597,-1.0719,-1.0772,-1.0772,-1.0823,-1.1019,-1.1365,0.0,0.0,0.0,0.0,0.0,0.0,0.0,0.0,0.0,0.0,0.0,0.0,0.0,0.0,0.0,0.0,0.0,0.0,0.0,0.0,0.0,0.0,0.0,0.0,0.0,0.0,0.0,0.0,0.0,0.0,0.0,0.0,0.0,0.0,0.0,0.0,0.0,0.0,0.0,0.0,0.0,0.0,0.0,0.0,0.0,0.0,0.0,0.0,0.0,0.0,0.0,0.0,0.0,0.0,0.0,0.0,0.0,0.0,0.0,0.0,0.0,0.0,0.0,0.0,0.0,0.0,0.0,0.0,0.0,0.0,0.0,0.0,0.0,0.0,0.0,0.0,0.0,0.0,0.0,0.0,0.0,0.0,0.0,0.0,0.0,0.0,0.0,0.0,0.0,0.0,0.0,0.0,0.0,0.0,0.0,0.0,0.0,0.0,0.0,0.0,0.0,0.0,-1.063,-1.0646,-1.0662,-1.0662,-1.0891,-1.102,-1.102,-1.1262,-1.1559,-1.2015,0.0,0.0,0.0,0.0,0.0,0.0,0.0,0.0,0.0,0.0,0.0,0.0,0.0,0.0,0.0,0.0,0.0,0.0,0.0,0.0,0.0,0.0,0.0,0.0,0.0,0.0,0.0,0.0,0.0,0.0,0.0,0.0,0.0,0.0,0.0,0.0,0.0,0.0,0.0,0.0,0.0,0.0,0.0,0.0,0.0,0.0,0.0,0.0,0.0,0.0,0.0,0.0,0.0,0.0,0.0,0.0,0.0,0.0,0.0,0.0,-1.4848,0.0,0.0,0.0,0.0,0.0,0.0,0.0,0.0,0.0,0.0,0.0,0.0,0.0,0.0,0.0,0.0,0.0,0.0,0.0,0.0,0.0,0.0,0.0,0.0,0.0,0.0,0.0,0.0,0.0,0.0,0.0,0.0,0.0,0.0,0.0,0.0,0.0,0.0,0.0,0.0,0.0,-1.0907,-1.1037,-1.1155,-1.1155,-1.1198,-1.123,-1.123,-1.1826,-1.2198,-1.232,-1.2235,0.0,0.0,0.0,0.0,0.0,0.0,0.0,0.0,0.0,0.0,0.0,0.0,0.0,0.0,0.0,0.0,0.0,0.0,0.0,0.0,0.0,0.0,0.0,0.0,0.0,0.0,0.0,0.0,0.0,0.0,0.0,0.0,0.0,0.0,0.0,0.0,0.0,0.0,0.0,0.0,0.0,0.0,0.0,0.0,0.0,0.0,0.0,0.0,0.0,0.0,0.0,0.0,0.0,0.0,0.0,0.0,0.0,0.0,0.0,0.0,-1.5332,0.0,0.0,0.0,0.0,0.0,0.0,0.0,0.0,0.0,0.0,0.0,0.0,0.0,0.0,0.0,0.0,0.0,0.0,0.0,0.0,0.0,0.0,0.0,0.0,0.0,0.0,0.0,0.0,0.0,0.0,0.0,0.0,0.0,0.0,0.0,0.0,0.0,0.0,0.0,0.0,-1.116,-1.123,-1.1305,-1.1305,-1.1305,-1.1305,-1.1305,-1.1645,-1.1983,-1.2186,-1.232,0.0,0.0,0.0,0.0,0.0,0.0,0.0,0.0,0.0,0.0,0.0,0.0,0.0,0.0,0.0,0.0,0.0,0.0,0.0,0.0,0.0,0.0,0.0,0.0,0.0,0.0,0.0,0.0,0.0,0.0,0.0,0.0,0.0,0.0,0.0,0.0,0.0,0.0,0.0,0.0,0.0,0.0,0.0,0.0,0.0,0.0,0.0,0.0,0.0,0.0,0.0,0.0,0.0,-1.4643,-1.4784,-1.4965,-1.5044,-1.5425,-1.599,-1.5724,-1.585,-1.6158,-1.5594,0.0,0.0,0.0,0.0,0.0,0.0,0.0,0.0,0.0,0.0,0.0,0.0,0.0,0.0,0.0,0.0,0.0,0.0,0.0,0.0,0.0,0.0,0.0,0.0,-1.2152,-1.2076,0.0,0.0,0.0,0.0,0.0,0.0,0.0,0.0,0.0,0.0,0.0,0.0,-1.1311,-1.1435,-1.1478,-1.1305,-1.1392,-1.1435,-1.1435,-1.1521,-1.1811,-1.2272,-1.2491,-1.279,0.0,0.0,0.0,0.0,0.0,0.0,0.0,0.0,0.0,0.0,0.0,0.0,0.0,0.0,0.0,0.0,0.0,0.0,0.0,0.0,0.0,0.0,0.0,0.0,0.0,0.0,0.0,0.0,0.0,0.0,0.0,0.0,-1.5454,-1.5194,0.0,0.0,0.0,0.0,0.0,0.0,0.0,0.0,0.0,0.0,0.0,0.0,0.0,-1.4467,-1.4511,-1.4743,-1.4842,-1.4842,-1.5316,-1.5565,-1.5606,-1.6009,-1.6244,-1.6324,-1.6448,0.0,-1.6198,-1.6111,0.0,0.0,0.0,0.0,0.0,0.0,0.0,0.0,0.0,0.0,0.0,0.0,0.0,0.0,0.0,0.0,0.0,0.0,0.0,0.0,0.0,0.0,-1.3201,-1.338,-1.3315,-1.3117,0.0,-1.2129,-1.175,-1.2301,-1.2128,0.0,0.0,0.0,0.0,0.0,0.0,0.0,-1.1348,-1.2026,-1.2198,-1.1392,-1.1682,-1.1886,-1.1886,-1.2448,-1.296,-1.3434,-1.3519,-1.3646,-1.3928,-1.3555,0.0,0.0,0.0,0.0,0.0,0.0,0.0,0.0,0.0,0.0,0.0,0.0,0.0,0.0,0.0,0.0,0.0,0.0,0.0,0.0,0.0,0.0,0.0,0.0,0.0,0.0,0.0,0.0,0.0,-1.5271,-1.5282,-1.4987,-1.4735,-1.4492,0.0,0.0,0.0,0.0,0.0,0.0,0.0,0.0,0.0,-1.4984,-1.4808,-1.4823,-1.5006,-1.5104,-1.5252,-1.5368,-1.5584,-1.5858,-1.6064,-1.5809,-1.5726,-1.5809,-1.5387,-1.5099,-1.4996,-1.5348,-1.5389,-1.5174,0.0,0.0,0.0,0.0,-1.3086,-1.252,-1.2781,-1.2408,0.0,-1.1903,0.0,0.0,0.0,0.0,0.0,0.0,0.0,0.0,0.0,0.0,-1.3343,-1.3935,-1.373,-1.3476,-1.3724,-1.3206,-1.2656,0.0,-1.2246,-1.2037,-1.2619,0.0,0.0,0.0,0.0,-1.2235,-1.1768,-1.2277,-1.2534,-1.2112,-1.2277,-1.24,-1.24,-1.2662,-1.2918,-1.313,-1.3476,-1.373,-1.3851,-1.3935,-1.4019,0.0,0.0,0.0,0.0,0.0,0.0,0.0,0.0,0.0,0.0,0.0,0.0,0.0,0.0,0.0,0.0,0.0,0.0,0.0,0.0,0.0,0.0,0.0,0.0,0.0,0.0,0.0,0.0,-1.5219,-1.526,-1.4781,-1.4843,-1.4758,0.0,0.0,0.0,0.0,0.0,0.0,-1.5116,-1.4778,-1.4808,-1.5238,-1.5098,-1.5141,-1.5382,-1.5465,-1.5541,-1.5692,-1.5816,-1.6064,-1.6353,-1.556,-1.5269,-1.5352,-1.442,-1.3999,-1.4021,-1.4468,-1.4662,-1.4581,-1.3673,-1.3302,-1.3287,-1.3296,-1.2997,-1.2619,-1.2887,-1.2625,-1.224,-1.2283,0.0,-1.2406,-1.2448,0.0,0.0,0.0,0.0,-1.2577,-1.3003,-1.3258,-1.3639,-1.4398,-1.4146,-1.3857,-1.4356,-1.3942,-1.3392,0.0,-1.2625,-1.2418,-1.3088,0.0,0.0,0.0,0.0,-1.2705,-1.2229,-1.2705,-1.296,-1.2747,-1.279,-1.2875,-1.2875,-1.2875,-1.2918,-1.3052,-1.3525,-1.3822,-1.3899,-1.4153,-1.4363,-1.4398,0.0,0.0,0.0,0.0,0.0,0.0,0.0,0.0,0.0,0.0,0.0,0.0,0.0,0.0,0.0,0.0,0.0,0.0,0.0,0.0,0.0,0.0,0.0,0.0,0.0,0.0,0.0,0.0,0.0,-1.5165,-1.5513,0.0,0.0,0.0,0.0,-1.4708,-1.4574,-1.4707,-1.5155,-1.4984,-1.5031,-1.5394,-1.5367,-1.5374,-1.5389,-1.5575,-1.5692,-1.5692,-1.6147,-1.6394,-1.6394,-1.5684,-1.5394,-1.5352,-1.442,-1.3999,-1.3999,-1.4028,-1.4063,-1.3979,-1.3099,-1.2723,-1.2644,-1.1768,-1.1392,-1.1435,-1.1699,-1.1742,-1.1785,-1.1957,-1.2203,-1.2448,-1.2619,-1.2375,0.0,0.0,-1.2534,-1.279,-1.3264,-1.3977,-1.4699,-1.4999,-1.4824,-1.465,-1.4692,-1.4153,-1.3815,0.0,-1.3942,-1.361,-1.3652,0.0,-1.2966,-1.2705,-1.3052,-1.3179,-1.2747,-1.3483,-1.3701,-1.279,-1.3094,-1.3349,-1.3349,-1.3349,-1.3568,-1.4004,-1.4046,-1.4166,-1.4356,-1.4201,-1.4201,-1.4398,-1.4201,0.0,0.0,0.0,0.0,0.0,0.0,0.0,0.0,0.0,0.0,0.0,0.0,0.0,0.0,0.0,0.0,0.0,0.0,0.0,0.0,0.0,0.0,0.0,0.0,0.0,0.0,0.0,0.0,-1.5149,-1.5323,0.0,-1.494,-1.5027,-1.5155,-1.5281,-1.5277,-1.536,-1.5513,-1.533,-1.5265,-1.5382,-1.5389,-1.5465,-1.5575,-1.565,-1.556,-1.5311,-1.5477,-1.5304,-1.4838,-1.4048,-1.3669,-1.3639,-1.2836,-1.2522,-1.2534,-1.2697,-1.2919,-1.3082,-1.2155,-1.1903,-1.2037,-1.1693,-1.1736,-1.2026,-1.2118,-1.2246,-1.2369,-1.2412,-1.2534,-1.2662,-1.3045,-1.2839,-1.2497,-1.2705,-1.296,-1.3222,-1.3525,-1.4166,-1.4899,-1.5475,-1.5325,-1.5154,-1.5466,-1.5111,-1.4761,-1.4949,-1.4077,-1.354,-1.4335,-1.3968,-1.3592,-1.3724,-1.4108,-1.4247,-1.38,-1.4265,-1.4498,-1.4147,-1.4182,-1.4188,-1.4062,-1.4062,-1.4068,-1.4088,-1.4088,-1.4124,-1.4201,-1.4124,-1.4124,-1.4201,-1.413,-1.4088,0.0,0.0,0.0,0.0,0.0,0.0,0.0,0.0,0.0,0.0,0.0,0.0,0.0,0.0,0.0,0.0,0.0,0.0,0.0,0.0,0.0,0.0,0.0,0.0,0.0,0.0,-1.558,-1.504,-1.5317,-1.5453,-1.5106,-1.5298,-1.546,-1.5508,-1.558,-1.5616,-1.5616,-1.5465,-1.5433,-1.5549,-1.5549,-1.5551,-1.5546,-1.5638,-1.5418,-1.4857,-1.4949,-1.4735,-1.4256,-1.3355,-1.2921,-1.2889,-1.2143,-1.1817,-1.1828,-1.2029,-1.2265,-1.2452,-1.1888,-1.1762,-1.1943,-1.2025,-1.2283,-1.254,-1.2752,-1.2752,-1.2758,-1.3014,-1.302,-1.2976,-1.3424,-1.3287,-1.3063,-1.3231,-1.3541,-1.3851,-1.3981,-1.4546,-1.5175,-1.5669,-1.5599,-1.5473,-1.5798,-1.5575,-1.5308,-1.5277,-1.4511,-1.4089,-1.4818,-1.4537,-1.4287,-1.452,-1.4777,-1.4874,-1.4597,-1.4745,-1.4946,-1.4946,-1.4836,-1.4756,-1.462,-1.4489,-1.4392,-1.4235,-1.4142,-1.4088,-1.4088,-1.4088,-1.4088,-1.4088,-1.4166,-1.4243,-1.4292,0.0,0.0,0.0,0.0,0.0,0.0,0.0,0.0,0.0,0.0,0.0,0.0,0.0,0.0,0.0,0.0,0.0,0.0,0.0,0.0,0.0,0.0,0.0,-1.518,-1.5385,-1.5397,-1.4805,-1.5529,-1.5834,-1.5245,-1.5506,-1.5624,-1.5445,-1.5403,-1.5411,-1.546,-1.546,-1.5564,-1.5892,-1.5892,-1.5676,-1.5205,-1.5428,-1.516,-1.4392,-1.4623,-1.4764,-1.4668,-1.3755,-1.3341,-1.3296,-1.246,-1.2105,-1.2105,-1.2116,-1.2116,-1.2162,-1.2329,-1.2409,-1.2455,-1.2689,-1.278,-1.2871,-1.345,-1.3275,-1.2962,-1.3676,-1.3637,-1.3332,-1.3791,-1.3798,-1.3701,-1.3909,-1.427,-1.4636,-1.4636,-1.5129,-1.562,-1.5627,-1.5634,-1.5641,-1.5641,-1.5476,-1.5356,-1.5356,-1.5356,-1.5259,-1.5066,-1.5022,-1.5028,-1.5035,-1.5035,0.0,-1.5035,-1.5028,-1.5022,-1.5022,-1.5015,-1.5008,-1.5008,-1.4696,-1.4536,-1.4536,-1.4262,-1.4102,-1.4102,-1.4137,-1.413,-1.413,-1.4321,-1.4524,-1.4692,0.0,0.0,0.0,0.0,0.0,0.0,0.0,0.0,0.0,0.0,0.0,0.0,0.0,0.0,0.0,0.0,0.0,0.0,0.0,0.0,0.0,0.0,-1.4351,-1.5541,-1.5688,-1.561,-1.5438,-1.552,-1.5519,-1.5374,-1.5413,-1.556,-1.576,-1.5739,-1.597,-1.6372,-1.6249,-1.6082,-1.5989,-1.5599,-1.5218,-1.4917,-1.4805,-1.4385,-1.3658,-1.3755,-1.3444,-1.282,-1.2586,-1.2449,-1.246,-1.2376,-1.2312,-1.2328,-1.2543,-1.2708,-1.2819,-1.2501,-1.2506,-1.2689,-1.278,-1.278,-1.2865,-1.3773,-1.3863,-1.3722,-1.4443,-1.4623,-1.4578,-1.504,-1.4943,-1.4674,-1.4943,-1.5174,-1.5353,-1.5218,-1.5697,-1.6318,-1.65,-1.6581,-1.6622,-1.6622,-1.6583,-1.649,-1.629,-1.6244,-1.6035,-1.5402,-1.5277,-1.5351,-1.5558,-1.5591,0.0,-1.5591,-1.5549,-1.5513,-1.5513,-1.5438,-1.5397,-1.5232,-1.5113,-1.5021,-1.4888,-1.4744,-1.4674,-1.4674,-1.457,-1.4531,-1.4531,-1.4573,-1.465,0.0,0.0,0.0,0.0,0.0,0.0,0.0,0.0,0.0,0.0,0.0,0.0,0.0,0.0,0.0,0.0,0.0,0.0,0.0,0.0,0.0,0.0,-1.4317,-1.387,-1.5212,-1.5243,-1.5276,-1.5533,-1.5316,-1.5149,-1.5149,-1.5262,-1.5461,-1.5741,-1.6111,-1.6338,-1.6468,-1.6303,-1.6088,-1.5725,-1.5312,-1.4928,-1.4589,-1.4328,-1.3821,-1.3176,-1.3176,-1.2896,-1.2397,-1.2397,-1.2491,0.0,-1.2833,-1.2989,-1.3233,-1.3375,-1.3582,0.0,0.0,0.0,0.0,0.0,-1.3793,-1.4106,-1.4989,-1.4989,-1.4805,-1.5442,-1.554,-1.5402,-1.5769,-1.5716,-1.5579,-1.5814,-1.6004,-1.605,-1.5913,-1.6228,-1.66,-1.6739,-1.6782,-1.6831,-1.6831,-1.6831,-1.6784,-1.6636,-1.6588,0.0,-1.5978,-1.5904,-1.5966,-1.6129,-1.6021,-1.5981,-1.5981,-1.5826,-1.5718,-1.5718,-1.5695,-1.5638,-1.5508,-1.549,0.0,0.0,0.0,-1.5237,-1.5237,-1.5019,0.0,0.0,0.0,-1.4908,-1.4999,0.0,0.0,0.0,-1.4482,-1.4356,0.0,0.0,0.0,0.0,0.0,0.0,0.0,0.0,0.0,0.0,0.0,0.0,0.0,0.0,0.0,0.0,-1.3922,-1.3802,-1.4536,-1.4409,-1.4529,-1.5231,-1.497,-1.4717,-1.4717,-1.4953,-1.5181,-1.548,-1.6172,-1.6413,-1.6008,0.0,0.0,0.0,0.0,-1.4607,-1.4231,-1.3903,-1.3426,-1.2813,-1.2813,-1.2813,-1.2813,-1.2861,-1.3104,-1.3491,-1.3539,-1.3871,-1.4346,-1.4346,-1.4538,-1.4831,-1.4538,-1.4106,-1.3775,-1.4544,-1.5207,-1.5825,-1.64,0.0,0.0,-1.6487,-1.6346,-1.6015,-1.6237,-1.6332,-1.6379,-1.6629,-1.6683,-1.6683,-1.6683,-1.6683,-1.6676,-1.6636,-1.6636,-1.6636,-1.6636,-1.6636,-1.6629,-1.6676,-1.6683,-1.6683,-1.6683,-1.6629,-1.6588,-1.6588,-1.6407,-1.6272,-1.6272,-1.6021,-1.5879,-1.5879,0.0,0.0,-1.5879,-1.5885,-1.5874,-1.5874,-1.585,-1.5796,-1.5798,-1.5486,-1.5432,-1.5698,-1.5383,-1.5323,-1.5491,-1.5491,-1.5407,-1.5232,-1.4727,-1.444,0.0,0.0,0.0,0.0,0.0,0.0,0.0,0.0,0.0,0.0,0.0,0.0,0.0,0.0,0.0,-1.4569,-1.342,-1.289,-1.4269,-1.383,-1.3755,-1.4781,-1.4487,-1.4263,-1.4263,-1.4263,-1.4487,-1.5008,-1.5181,-1.5497,-1.6042,-1.5939,-1.5651,-1.5318,-1.471,-1.4193,-1.3654,-1.3221,-1.2953,-1.2813,0.0,0.0,-1.2813,-1.3201,-1.3394,-1.3539,-1.3968,-1.4352,-1.464,-1.464,-1.5112,-1.5859,-1.5391,-1.5105,-1.5057,-1.5445,-1.5445,-1.5391,-1.6298,-1.6393,-1.6244,-1.6951,-1.7091,-1.6998,-1.7091,-1.7091,0.0,-1.7138,-1.7145,-1.7145,-1.7145,-1.7145,-1.7099,-1.6972,-1.6932,-1.6932,-1.6932,-1.6932,-1.6972,-1.7145,-1.7145,-1.7145,-1.7145,-1.6864,-1.6588,-1.6588,-1.6541,-1.6541,-1.6541,-1.6494,-1.6447,-1.6447,-1.6447,-1.6447,-1.6447,-1.6438,-1.6458,-1.6458,-1.6402,-1.6337,-1.6249,-1.622,-1.6191,-1.6235,-1.617,-1.6184,-1.6191,-1.6191,-1.6184,-1.6133,-1.5319,-1.4741,0.0,0.0,0.0,0.0,0.0,0.0,0.0,0.0,0.0,0.0,0.0,-1.5263,0.0,0.0,-1.2945,-1.3493,-1.2768,-1.25,-1.3586,-1.3164,-1.3192,-1.43,-1.4024,-1.3734,-1.3734,-1.4017,-1.4338,-1.471,-1.5242,-1.555,-1.5706,-1.5583,-1.5305,-1.4788,-1.4269,-1.3929,-1.3647,-1.3297,-1.3209,-1.333,-1.333,-1.3415,-1.3582,-1.3775,-1.4064,-1.431,-1.4592,-1.4975,-1.5465,-1.5896,-1.6429,-1.7043,-1.6891,-1.6656,-1.6332,-1.6103,-1.6103,-1.6285,-1.677,-1.6857,-1.681,-1.7185,-1.7279,-1.7279,-1.7279,-1.7279,-1.7315,-1.7476,-1.7574,-1.7611,-1.7772,-1.7816,-1.7719,-1.7493,-1.7452,-1.7403,-1.73,-1.7244,-1.7292,-1.7382,-1.7375,-1.7375,-1.7375,-1.7158,-1.7001,-1.6979,-1.6871,-1.6784,-1.6784,-1.6683,-1.6588,-1.6588,-1.6588,-1.6588,-1.6588,-1.673,-1.6824,-1.6958,-1.6908,-1.6888,-1.6857,-1.6741,-1.6653,-1.6653,-1.6499,-1.6411,-1.6411,-1.6411,-1.6411,-1.6404,-1.5951,-1.5548,0.0,0.0,0.0,0.0,0.0,0.0,0.0,0.0,-1.8166,-1.7295,-1.597,-1.4994,-1.518,-1.3588,-1.23,-1.2589,-1.2411,-1.242,-1.2974,-1.2731,-1.2828,-1.3808,-1.356,-1.3284,-1.333,-1.38,-1.4176,-1.443,-1.5274,-1.5622,-1.5129,-1.5193,-1.493,-1.424,-1.3949,-1.3872,-1.3972,-1.3743,-1.3835,-1.4129,-1.4129,-1.4266,-1.4503,-1.4546,-1.4849,-1.529,-1.5483,-1.5916,-1.656,-1.7285,-1.7737,-1.8016,-1.8207,-1.7984,-1.7421,-1.6756,-1.694,-1.7468,-1.7374,-1.7421,-1.7468,-1.7428,-1.7468,-1.7468,-1.7468,-1.7468,-1.7574,-1.7838,-1.7911,-1.7969,-1.8233,-1.8299,-1.8256,-1.7967,-1.7867,-1.7761,-1.7555,-1.7456,-1.7456,-1.7505,-1.7505,-1.7505,-1.7505,-1.7506,-1.7471,-1.7337,-1.7149,-1.7066,-1.7066,-1.6871,-1.6723,-1.6723,-1.6723,-1.6723,-1.6723,-1.6918,-1.7113,-1.7286,-1.7279,-1.7279,-1.7279,-1.7084,-1.6991,-1.6991,-1.6689,-1.6557,-1.6557,-1.6557,-1.6557,-1.6557,-1.6557,-1.6358,-1.8247,-1.8067,-1.7961,-1.7967,-1.7841,-1.7448,0.0,0.0,-1.6624,-1.5598,-1.4861,-1.4351,-1.4136,-1.3363,-1.2887,-1.3301,-1.2995,-1.2732,-1.2828,-1.2802,-1.2856,-1.3165,-1.2995,-1.2948,-1.3106,-1.3171,-1.3433,-1.3863,-1.4486,-1.4721,-1.4352,-1.4787,-1.4798,-1.4191,-1.3949,-1.4077,-1.4601,-1.4356,-1.4468,-1.5046,-1.5046,-1.5079,-1.5099,-1.5507,-1.5764,-1.5864,-1.6806,-1.7407,-1.7718,-1.8043,-1.822,-1.8256,-1.8306,-1.8255,-1.8147,-1.781,-1.7901,-1.8147,-1.7647,-1.7795,-1.8147,-1.7908,-1.7999,-1.8196,-1.8196,-1.8196,-1.8203,-1.824,-1.8247,-1.8255,-1.8291,-1.8299,-1.8256,-1.7967,-1.7711,-1.7555,-1.7505,-1.7313,-1.7213,-1.7456,-1.7505,-1.7505,-1.7505,-1.7683,-1.776,-1.7437,-1.7334,-1.7286,-1.7286,-1.7239,-1.7232,-1.7232,-1.7232,-1.7232,-1.7232,-1.7239,-1.7286,-1.7279,-1.7279,-1.7279,-1.7279,-1.7296,-1.7274,-1.7274,-1.7238,-1.7223,-1.7223,-1.7223,-1.7223,-1.7223,-1.7223,-1.6786,-1.7359,-1.7212,-1.7247,-1.7003,-1.7009,-1.7011,-1.6759,-1.661,-1.6274,-1.5664,-1.4968,-1.4394,-1.4004,-1.3528,-1.3201,0.0,-1.291,-1.2813,-1.2813,-1.2813,-1.291,-1.3292,-1.3128,-1.3051,-1.3297,-1.3339,-1.3612,-1.4259,-1.4378,-1.4506,-1.4665,-1.4563,-1.4563,-1.4671,-1.4565,-1.4769,-1.5399,-1.5299,-1.5423,-1.5831,-1.5831,-1.5903,-1.6098,-1.6306,-1.6456,-1.6663,-1.7413,-1.7917,-1.8196,-1.8491,-1.8694,-1.8869,-1.8869,-1.8869,-1.8825,-1.8295,-1.8207,-1.8249,-1.8051,-1.8101,-1.8306,-1.8158,-1.8207,-1.8299,-1.8299,-1.8299,-1.8343,-1.8533,-1.8584,-1.8628,-1.8818,-1.8869,-1.8818,-1.857,-1.8256,-1.7986,-1.7839,-1.7582,-1.7427,-1.7524,-1.7575,-1.7575,-1.7575,-1.7796,-1.7887,-1.776,-1.7807,-1.783,-1.764,-1.7611,-1.7538,-1.7301,-1.7279,-1.7279,-1.7279,-1.7279,-1.7279,-1.7279,-1.7279,-1.7279,-1.7279,-1.7279,-1.7279,-1.7279,-1.7279,-1.7279,-1.7279,-1.7279,-1.7279,-1.7279,-1.7279,-1.7094,-1.6716,-1.648,-1.6454,-1.6455,-1.6414,-1.6454,-1.6776,-1.6508,-1.6102,-1.5967,-1.5302,-1.4682,-1.4286,-1.3817,-1.3394,-1.3055,-1.2861,-1.2813,-1.2813,-1.2861,-1.3029,-1.3436,-1.3353,-1.338,-1.3746,-1.3835,-1.4154,-1.4844,-1.4739,-1.4832,-1.5256,-1.4886,-1.4832,-1.525,-1.525,-1.5517,-1.6099,-1.6099,-1.6318,-1.6639,-1.6639,-1.6742,-1.6947,-1.6998,-1.7265,-1.7627,-1.8031,-1.8361,-1.8679,-1.8877,-1.906,-1.9279,-1.9279,-1.9279,-1.922,-1.8745,-1.8569,-1.8569,-1.8369,-1.8419,-1.8569,-1.8476,-1.8519,-1.8569,-1.8569,-1.8569,-1.8621,-1.8855,-1.8921,-1.8979,-1.9213,-1.9227,-1.9123,-1.8921,-1.86,-1.822,-1.8016,-1.7799,-1.7582,-1.7582,-1.7582,-1.7582,-1.7582,-1.7877,-1.8093,-1.8093,-1.8361,-1.8423,-1.7999,-1.7874,-1.7728,-1.7439,-1.7384,-1.7279,-1.7279,-1.7279,-1.7279,-1.7279,-1.7279,-1.7279,-1.7279,-1.7279,-1.7279,-1.7279,-1.7279,-1.7279,-1.7279,-1.7279,-1.7279,-1.7279,-1.7279,-1.7279,-1.6476,-1.5973,-1.5496,-1.6615,-1.6145,-1.5564,-1.6095,-1.6008,-1.5906,-1.6143,-1.5622,-1.5099,-1.5051,-1.4202,-1.3491,-1.3491,-1.3104,-1.2813,-1.2813,-1.2953,-1.3187,-1.3469,-1.3502,-1.3752,0.0,-1.4648,-1.485,-1.5331,-1.5688,-1.5838,-1.5891,-1.5838,-1.5838,-1.5891,-1.5891,-1.6152,-1.6677,-1.6677,-1.6995,-1.7569,-1.7569,-1.7562,-1.7555,-1.7832,-1.8258,-1.8848,-1.884,-1.9004,-1.9264,-1.9264,-1.9264,-1.9279,-1.9279,-1.9279,-1.9324,-1.9257,-1.925,-1.9198,-1.861,-1.8767,-1.925,-1.8945,-1.9042,-1.925,-1.925,-1.925,-1.925,-1.9257,-1.9257,-1.9264,-1.9324,-1.913,-1.8921,-1.8921,-1.8443,-1.8016,-1.8016,-1.7799,-1.7582,-1.7582,-1.7582,-1.7582,-1.7582,-1.8048,-1.8408,-1.8408,-1.8878,-1.9016,-1.8372,-1.8013,-1.7808,-1.7801,-1.7468,-1.7279,-1.7279,-1.7279,-1.7279,-1.7279,-1.7279,-1.7279,-1.7279,-1.7279,-1.7279,-1.7279,-1.7279,-1.7279,-1.7279,-1.7279,-1.7279,-1.7279,-1.7279,-1.7279,-1.5575,-1.554,-1.5525,-1.577,-1.573,-1.5759,-1.6103,-1.575,-1.5499,-1.6103,-1.5635,-1.5118,-1.5105,-1.4532,-1.401,-1.401,-1.334,-1.291,-1.3201,-1.3152,-1.318,-1.3459,-1.3808,0.0,0.0,0.0,0.0,-1.5383,-1.5688,-1.5891,-1.5891,-1.5891,-1.6045,-1.6418,-1.6418,-1.673,-1.7312,-1.7318,-1.7424,-1.7582,-1.7582,-1.7694,-1.7852,-1.8115,-1.8489,-1.8928,-1.9078,-1.9227,-1.9279,-1.9279,-1.9279,-1.9279,-1.9279,-1.9279,-1.9279,-1.9279,-1.9279,-1.9272,-1.9063,-1.9116,-1.9279,-1.9175,-1.9227,-1.9279,-1.9279,-1.9279,-1.9279,-1.9279,-1.9279,-1.9279,-1.9279,-1.9227,-1.9175,-1.9175,-1.8862,-1.8608,-1.8608,-1.8325,-1.8108,-1.8108,-1.8108,-1.8108,-1.8108,-1.8489,-1.8803,-1.8959,-1.8986,-1.8877,-1.8657,-1.8343,-1.8138,-1.8138,-1.7845,-1.7655,-1.7655,-1.741,-1.7279,-1.7279,-1.7279,-1.7279,-1.7279,-1.7279,-1.7279,-1.7279,-1.7279,-1.7279,-1.7279,-1.7279,-1.7279,-1.7279,-1.7279,-1.7279,-1.5257,-1.5333,-1.5429,-1.5421,-1.5547,-1.5752,-1.6001,-1.5553,-1.5315,-1.615,-1.5689,-1.5172,-1.5302,-1.4921,-1.4538,-1.4346,-1.3673,-1.3292,-1.3582,-1.3491,-1.3428,-1.3513,-1.4065,-1.4695,0.0,0.0,0.0,-1.6006,-1.6104,-1.6258,-1.6524,-1.6311,-1.6418,-1.6995,-1.6995,-1.7213,-1.7582,-1.7582,-1.7582,-1.7582,-1.7582,-1.7793,-1.8174,-1.8318,-1.8646,-1.9078,-1.9227,-1.9279,-1.9279,-1.9279,-1.9279,-1.9279,-1.9279,-1.9279,-1.9279,-1.9279,-1.9279,-1.9279,-1.9279,-1.9279,-1.9279,-1.9279,-1.9279,-1.9279,-1.9279,-1.9279,-1.9279,-1.9279,-1.9279,-1.9279,-1.9279,-1.9227,-1.9175,-1.9175,-1.8914,-1.8705,-1.8705,-1.8534,-1.8422,-1.8422,-1.8422,-1.8422,-1.8422,-1.8698,-1.8974,-1.9279,-1.9096,-1.8964,-1.8964,-1.8679,-1.8474,-1.8474,-1.8182,-1.7991,-1.7991,-1.7691,-1.7501,-1.7501,-1.7344,-1.7279,-1.7279,-1.7279,-1.7279,-1.7279,-1.7279,-1.7279,-1.7279,-1.7279,-1.7279,-1.7279,-1.7279,-1.7279,-1.5389,-1.5326,-1.5294,-1.5536,-1.5495,-1.5491,-1.5772,-1.5458,-1.541,-1.64,-1.5832,-1.5267,0.0,0.0,-1.4885,-1.4394,-1.4052,-1.3859,-1.3902,-1.3919,-1.3825,0.0,0.0,0.0,0.0,0.0,0.0,-1.7168,0.0,-1.6995,-1.7529,-1.7054,-1.6995,-1.7582,-1.7582,-1.7582,-1.7582,-1.7582,-1.7582,-1.7582,-1.7635,-1.7898,-1.8422,-1.8422,-1.8743,-1.9279,-1.9279,-1.9279,-1.9279,-1.9279,-1.9279,-1.9279,-1.9279,-1.9279,-1.9279,-1.9279,-1.9279,-1.9279,-1.9279,-1.9279,-1.9279,-1.9279,-1.9279,-1.9279,-1.9279,-1.9279,-1.9279,-1.9279,-1.9279,-1.9279,-1.9279,-1.9123,-1.8921,-1.8921,-1.8698,-1.8475,-1.8475,-1.8475,-1.8475,-1.8475,-1.8475,-1.8475,-1.8475,-1.8698,-1.9026,-1.9279,-1.9279,-1.9279,-1.9279,-1.9001,-1.8811,-1.8811,-1.8525,-1.8328,-1.8328,-1.8028,-1.7838,-1.7838,-1.7552,-1.733,-1.733,-1.7315,-1.7355,-1.7355,-1.7286,-1.7279,-1.7279,-1.7279,-1.7279,-1.7279,-1.7279,-1.7279,-1.5389,-1.5576,-1.5743,-1.5637,-1.5796,-1.5934,-1.5812,-1.5594,-1.5642,-1.644,-1.5967,-1.5499,0.0,0.0,0.0,-1.4346,-1.3919,0.0,-1.3854,-1.4058,0.0,-1.3576,0.0,-1.5132,-1.5462,-1.6169,0.0,0.0,-1.7437,-1.7265,-1.6942,-1.7213,-1.7424,-1.7582,-1.7582,-1.7582,-1.7582,-1.7582,-1.7582,-1.7582,-1.7799,-1.8062,-1.8422,-1.8646,-1.8966,-1.9279,-1.9279,-1.9279,-1.9279,-1.9279,-1.9279,-1.9279,-1.9279,-1.9279,-1.9279,-1.9279,-1.9279,-1.9279,-1.9279,-1.9279,-1.9279,-1.9279,-1.9279,-1.9279,-1.9279,-1.9279,-1.9279,-1.9279,-1.9279,-1.9279,-1.9279,-1.9227,-1.9175,-1.9175,-1.9116,-1.9063,-1.9063,-1.9063,-1.9063,-1.9063,-1.9063,-1.9063,-1.9063,-1.9116,-1.9227,-1.9279,-1.9279,-1.9279,-1.9279,-1.9258,-1.9147,-1.9147,-1.8855,-1.8664,-1.8664,-1.8364,-1.8174,-1.8174,-1.8101,-1.8057,-1.8057,-1.7823,-1.7691,-1.7691,-1.741,-1.7279,-1.7279,-1.7279,-1.7279,-1.7279,-1.7279,-1.7279,-1.5257,-1.5447,-1.5629,-1.5623,-1.5801,-1.5967,-1.5994,-1.5737,-1.5697,-1.6413,-1.5974,-1.5501,-1.5564,-1.5082,0.0,0.0,0.0,0.0,-1.4052,-1.4196,-1.4154,0.0,-1.4606,0.0,-1.5563,-1.6423,-1.7088,0.0,-1.7582,-1.7477,-1.71,-1.7424,-1.7582,-1.7582,-1.7582,-1.7582,-1.7582,-1.7582,-1.7582,-1.7582,-1.7852,-1.8115,-1.8422,-1.8757,-1.9026,-1.9279,0.0,-1.9279,-1.9279,-1.9279,-1.9279,-1.9279,-1.9279,-1.9279,-1.9279,-1.9279,-1.9367,-1.9544,-1.9544,-1.9579,-1.9652,-1.9367,-1.9279,-1.9279,-1.9279,-1.9279,-1.9279,-1.9279,-1.9279,-1.9279,-1.9279,-1.9279,-1.9279,-1.9279,-1.9279,-1.9279,-1.9279,-1.9279,-1.9279,-1.9279,-1.9279,-1.9279,-1.9279,-1.9279,-1.9279,-1.9279,-1.9279,-1.9279,-1.9279,-1.9279,-1.9279,-1.9279,-1.9111,-1.9001,-1.9001,-1.8701,-1.8518,-1.8518,-1.8379,-1.8299,-1.8299,-1.813,-1.8028,-1.8028,-1.7845,-1.7757,-1.7757,-1.7757,-1.7757,-1.7757,-1.7757,-1.7757,-1.4999,-1.5142,-1.5309,-1.5443,-1.5642,-1.5788,-1.6054,-1.5805,-1.5704,-1.6345,-1.5979,-1.5509,-1.5352,-1.5141,-1.4838,-1.4298,0.0,-1.425,-1.4202,-1.4298,-1.4256,-1.4027,-1.4887,-1.5555,-1.5676,-1.6617,-1.732,-1.7562,-1.7582,-1.7582,-1.7582,-1.7582,-1.7582,-1.7582,-1.7582,-1.7582,-1.7582,-1.7582,-1.7582,-1.7582,-1.7905,-1.8167,-1.8422,-1.8757,-1.9078,-1.9279,-1.9279,0.0,-1.9279,-1.9279,-1.9279,-1.9279,-1.9279,-1.9301,-1.9397,-1.9397,-1.955,-1.9828,-1.9828,-2.0011,-2.0135,-1.9535,-1.9397,-1.9382,-1.9286,-1.9279,-1.9279,-1.9279,-1.9279,-1.9279,-1.9279,-1.9279,-1.9279,-1.9279,-1.9279,-1.9279,-1.9279,-1.9279,-1.9279,-1.9279,-1.9279,-1.9279,-1.9279,-1.9279,-1.9279,-1.9279,-1.9279,-1.9279,-1.9279,-1.9279,-1.9279,-1.9279,-1.9279,-1.9279,-1.9279,-1.9016,-1.8855,-1.8855,-1.8584,-1.843,-1.843,-1.8394,-1.8364,-1.8364,-1.8321,-1.8299,-1.8299,-1.8299,-1.8299,-1.8299,-1.8299,-1.8299,-1.4741,-1.5142,-1.5447,-1.5113,-1.5535,-1.595,-1.5597,-1.5658,0.0,0.0,-1.5988,-1.5669,-1.5421,-1.4883,-1.4256,-1.3732,-1.3817,-1.3908,-1.3678,-1.4208,-1.4592,0.0,-1.513,-1.5654,-1.6142,-1.6777,0.0,0.0,0.0,-1.7582,-1.7582,-1.7582,-1.7582,-1.7582,-1.7582,-1.7582,-1.7582,-1.7582,-1.7582,-1.7635,-1.8108,-1.837,-1.8422,-1.8959,-1.9279,-1.9279,-1.9279,0.0,-1.9279,-1.9279,-1.9279,-1.9279,-1.9279,-1.9492,-1.9727,-1.9727,-1.9879,-2.015,-2.015,-2.0132,-2.0172,-1.9798,-1.9727,-1.9683,-1.936,-1.9279,-1.9279,-1.9279,-1.9279,-1.9279,-1.9279,-1.9279,-1.9279,-1.9279,-1.9279,-1.9279,-1.9279,-1.9279,-1.9279,-1.9279,-1.9279,-1.9279,-1.9279,-1.9279,-1.9279,-1.9279,-1.9279,-1.9279,-1.9279,-1.9279,-1.9279,-1.9279,-1.9279,-1.9279,-1.9279,-1.9272,-1.9191,-1.9191,-1.914,-1.9103,-1.9103,-1.8847,-1.8701,-1.8701,-1.8438,-1.8299,-1.8299,-1.8299,-1.8299,-1.8299,-1.8299,-1.8299,-1.465,-1.4888,-1.5134,-1.5088,-1.5346,-1.5596,-1.5395,0.0,0.0,0.0,-1.5852,-1.5684,-1.529,-1.4921,0.0,-1.3817,-1.3908,-1.401,-1.3732,-1.416,0.0,-1.449,-1.5102,-1.5657,0.0,-1.6761,0.0,0.0,0.0,-1.7582,-1.7582,-1.7582,-1.7582,-1.7582,-1.7582,-1.7582,-1.7582,-1.7582,-1.7687,-1.7799,-1.8213,-1.8482,-1.8646,-1.9123,-1.9279,-1.9279,-1.9279,0.0,-1.9279,-1.9279,-1.9279,-1.9279,-1.9279,-1.9477,-1.9815,-1.9815,-2.0069,-2.0431,-2.0431,-2.0548,-2.0691,-2.0369,-2.0033,-1.9786,-1.9632,-1.9463,-1.9279,-1.9279,-1.9279,-1.9279,-1.9279,-1.9279,-1.9279,-1.9279,-1.9279,-1.9279,-1.9279,-1.9279,-1.9279,-1.9279,-1.9279,-1.9279,-1.9279,-1.9279,-1.9279,-1.9279,-1.9279,-1.9279,-1.9279,-1.9279,-1.9279,-1.9279,-1.9279,-1.9279,-1.9279,-1.9279,-1.9279,-1.9279,-1.9279,-1.9279,-1.9279,-1.9125,-1.9038,-1.9038,-1.8891,-1.8811,-1.8811,-1.8811,-1.8811,-1.8811,-1.8811,-1.8811,-1.4566,-1.465,-1.4748,-1.5042,-1.5197,-1.5266,-1.5239,-1.5406,0.0,-1.5625,-1.5688,-1.5591,-1.5232,-1.5113,-1.4885,0.0,-1.4202,-1.4208,-1.3931,-1.4112,-1.4346,0.0,-1.5115,0.0,-1.6017,0.0,0.0,0.0,0.0,0.0,-1.7582,-1.7582,-1.7582,-1.7582,-1.7582,-1.7582,-1.7582,-1.7641,-1.7799,-1.8016,-1.8325,-1.8646,-1.8928,-1.9175,-1.9279,-1.9279,-1.9279,0.0,0.0,-1.9279,-1.9279,-1.9279,-1.9279,-1.952,-1.9864,-1.9864,-2.0274,-2.083,-2.083,-2.0998,-2.1167,-2.0911,-2.0391,-1.985,-1.9837,-1.9588,-1.9279,-1.9279,-1.9279,-1.9279,-1.9279,-1.9279,-1.9279,-1.9279,-1.9279,-1.9279,-1.9279,-1.9279,-1.9279,-1.9279,-1.9279,-1.9279,-1.9279,-1.9279,-1.9279,-1.9279,-1.9279,-1.9279,-1.9279,-1.9279,-1.9279,-1.9279,-1.9279,-1.9279,-1.9279,-1.9279,-1.9279,-1.9279,-1.9279,-1.9279,-1.9279,-1.9279,-1.9279,-1.9279,-1.9279,-1.9279,-1.9279,-1.9279,-1.9279,-1.9279,-1.9279,-1.9279,-1.4356,-1.4566,-1.4699,-1.4727,-1.512,-1.5389,-1.5042,0.0,-1.5341,-1.5402,-1.5444,-1.5504,-1.5698,-1.5391,-1.4987,0.0,0.0,-1.4208,-1.3931,-1.4112,-1.4394,-1.464,0.0,0.0,-1.6275,0.0,0.0,0.0,0.0,0.0,-1.7582,-1.7582,-1.7582,-1.7582,-1.7582,-1.7582,-1.7582,-1.7852,-1.7964,-1.8016,-1.86,-1.8869,-1.8928,-1.9175,-1.9279,-1.9279,-1.9279,0.0,0.0,-1.9279,-1.9279,-1.9279,-1.9279,-1.9652,-2.0139,-2.0139,-2.0603,-2.1167,-2.1167,-2.1181,-2.1203,-2.1174,-2.072,-2.0135,-1.985,-1.9588,-1.9279,-1.9279,-1.9279,-1.9279,-1.9279,-1.9279,-1.9279,-1.9279,-1.9279,-1.9279,-1.9279,-1.9279,-1.9279,-1.9279,-1.9279,-1.9279,-1.9279,-1.9279,-1.9279,-1.9279,-1.9279,-1.9279,-1.9279,-1.9279,-1.9279,-1.9279,-1.9279,-1.9279,-1.9279,-1.9279,-1.9279,-1.9279,-1.9279,-1.9279,-1.9279,-1.9279,-1.9279,-1.9279,-1.9279,-1.9279,-1.9279,-1.9279,-1.9279,-1.9279,-1.9279,-1.9279,-1.5026,-1.4859,-1.4524,-1.4524,-1.4698,-1.4753,-1.4475,0.0,-1.51,-1.5167,-1.5277,-1.5484,-1.5724,-1.5642,-1.541,0.0,0.0,0.0,-1.4208,-1.4352,-1.4538,-1.4496,-1.4888,0.0,0.0,0.0,0.0,0.0,0.0,0.0,-1.7582,-1.7582,-1.7582,-1.7582,-1.7582,-1.7582,-1.7582,-1.7852,-1.8069,-1.8272,-1.8705,-1.8974,-1.9123,-1.9279,-1.9279,-1.9279,-1.9279,0.0,0.0,-1.9279,-1.9279,-1.9279,-1.9279,-1.9667,-2.0183,-2.0183,-2.0591,-2.1211,-2.1211,-2.1211,-2.1181,-2.0984,-2.0555,-2.0161,-2.0084,-1.9681,-1.9279,-1.9279,-1.9279,-1.9279,-1.9279,-1.9279,-1.9279,-1.9279,-1.9279,-1.9279,-1.9279,-1.9279,-1.9279,-1.9279,-1.9279,-1.9279,-1.9279,-1.9279,-1.9279,-1.9279,-1.9279,-1.9279,-1.9279,-1.9279,-1.9279,-1.9279,-1.9279,-1.9279,-1.9279,-1.9279,-1.9279,-1.9279,-1.9279,-1.9279,-1.9279,-1.9279,-1.9279,-1.9279,-1.9279,-1.9279,-1.9279,-1.9279,-1.9279,-1.9279,-1.9279,-1.9279,-1.585,-1.5436,-1.481,-1.4894,-1.4685,-1.444,0.0,0.0,-1.4779,-1.4858,-1.5064,-1.5357,-1.5651,-1.5772,-1.5689,0.0,0.0,-1.5255,-1.464,-1.464,-1.464,0.0,0.0,0.0,0.0,0.0,0.0,0.0,0.0,0.0,-1.7582,-1.7582,-1.7582,-1.7582,-1.7582,-1.7635,-1.7747,-1.7957,-1.8272,-1.8534,-1.8862,-1.9123,-1.9279,-1.9279,-1.9279,-1.9279,-1.9279,0.0,0.0,-1.9279,-1.9279,-1.9279,-1.9279,-1.9667,-2.0183,-2.0183,-2.0863,-2.1695,-2.1207,-2.1284,-2.1451,-2.0795,-2.0362,-2.0098,-2.0098,-1.9711,-1.9279,-1.9279,-1.9279,-1.9279,-1.9279,-1.9279,-1.9279,-1.9279,-1.9279,-1.9279,-1.9279,-1.9279,-1.9279,-1.9279,-1.9279,-1.9279,-1.9279,-1.9279,-1.9279,-1.9279,-1.9279,-1.9279,-1.9279,-1.9279,-1.9279,-1.9279,-1.9279,-1.9279,-1.9279,-1.9279,-1.9279,-1.9279,-1.9279,-1.9279,-1.9279,-1.9279,-1.9279,-1.9279,-1.9279,-1.9279,-1.9279,-1.9279,-1.9279,-1.9279,-1.9279,-1.9279,-1.6706,-1.6345,-1.5733,-1.6015,-1.5394,-1.465,0.0,0.0,-1.4402,-1.4506,-1.4763,-1.5102,-1.5344,-1.5631,-1.573,-1.554,0.0,0.0,-1.5131,-1.4885,0.0,0.0,0.0,0.0,0.0,0.0,0.0,0.0,0.0,0.0,-1.7582,-1.7582,-1.7582,-1.7582,-1.7582,-1.7747,-1.7964,-1.8272,-1.8534,-1.8921,-1.9175,-1.9279,-1.9279,-1.9279,-1.9279,0.0,0.0,0.0,0.0,-1.9279,-1.9279,-1.9279,-1.9279,-1.9667,-2.0183,-2.0183,-2.1402,-2.2766,-2.1216,-2.1486,-2.2237,-2.0716,-2.0025,-1.9823,-1.9823,-1.9588,-1.9279,-1.9279,-1.9279,-1.9279,-1.9279,-1.9279,-1.9279,-1.9279,-1.9279,-1.9279,-1.9279,-1.9279,-1.9279,-1.9279,-1.9279,-1.9279,-1.9279,-1.9279,-1.9279,-1.9279,-1.9279,-1.9279,-1.9279,-1.9279,-1.9279,-1.9279,-1.9279,-1.9279,-1.9279,-1.9279,-1.9279,-1.9279,-1.9279,-1.9279,-1.9279,-1.9279,-1.9279,-1.9279,-1.9279,-1.9279,-1.9279,-1.9279,-1.9279,-1.9279,-1.9279,-1.9279,-1.7432,-1.7066,-1.6419,-1.6501,-1.6288,-1.5876,-1.5228,0.0,-1.4986,-1.4586,-1.4596,-1.4705,-1.4811,-1.5776,-1.643,-1.5961,-1.6972,0.0,0.0,0.0,0.0,0.0,0.0,0.0,0.0,0.0,0.0,0.0,0.0,0.0,-1.9849,-1.9849,-1.9183,-1.7635,-1.7799,-1.7911,-1.8016,-1.8496,-1.881,-1.8921,-1.9175,-1.9279,-1.9279,-1.9279,-1.968,0.0,0.0,0.0,0.0,-2.1489,-2.1489,-2.1489,-2.1489,-2.1724,-2.2172,-2.2409,-2.3017,-2.3686,-2.3187,-2.3255,-2.3428,-2.2441,-2.2066,-2.1928,-2.1734,-2.0568,-1.9279,-1.9279,-1.9279,-1.9279,-1.9279,-1.9279,-1.9279,-1.9279,-1.9279,-1.9279,-1.9279,-1.9279,-1.9279,-1.9279,-1.9279,-1.9279,-1.9279,-1.9279,-1.9279,-1.9279,-1.9279,-1.9279,-1.9279,-1.9279,-1.9279,-1.9279,-1.9279,-1.9279,-1.9279,-1.9279,-1.9279,-1.9279,-1.9279,-1.9279,-1.9279,-1.9279,-1.9279,-1.9279,-1.9279,-1.9279,-1.9279,-1.9279,-1.9279,-1.9279,-1.9279,-1.968,0.0,-1.7836,-1.718,-1.718,-1.6944,0.0,0.0,-1.5636,-1.5244,-1.4808,-1.4774,-1.4874,-1.4838,-1.6088,-1.7055,-1.6813,-1.7827,0.0,0.0,0.0,0.0,0.0,0.0,0.0,0.0,0.0,0.0,0.0,0.0,0.0,-2.0885,-2.0885,-2.0313,-1.9027,-1.8788,-1.8945,-1.9546,-1.9517,-1.9783,-2.0285,-2.0431,-2.0483,-2.0483,-2.0483,-2.0885,0.0,0.0,0.0,0.0,-2.2484,-2.2484,-2.2484,-2.2484,-2.2809,-2.3236,-2.352,-2.412,-2.4701,-2.4115,-2.4084,-2.4193,-2.3143,-2.2792,-2.2792,-2.2561,-2.1591,-2.0483,-2.0483,-2.0483,-2.0431,-2.0034,-1.9879,-1.9776,-1.9376,-1.9279,-1.9279,-1.9279,-1.9279,-1.9279,-1.9279,-1.9279,-1.9279,-1.9279,-1.9279,-1.9279,-1.9279,-1.9279,-1.9279,-1.9279,-1.9279,-1.9279,-1.9279,-1.9279,-1.9279,-1.9279,-1.9279,-1.9279,-1.9279,-1.9279,-1.9279,-1.9279,-1.9279,-1.9279,-1.9279,-1.9279,-1.9279,-1.9279,-1.9279,-1.9279,-1.9279,-1.9279,-1.9879,0.0,-1.8727,-1.8078,-1.8078,-1.7472,0.0,-1.6821,-1.6173,0.0,-1.5206,-1.5382,-1.5526,-1.5368,-1.6558,-1.7664,-1.795,0.0,0.0,0.0,0.0,0.0,0.0,0.0,0.0,0.0,0.0,0.0,0.0,0.0,0.0,-2.114,-2.114,-2.1242,-2.154,-2.0534,-2.0637,-2.2089,-2.1132,-2.1285,-2.2484,-2.2484,-2.2484,-2.2484,-2.2484,-2.2534,0.0,0.0,0.0,0.0,-2.2743,-2.2743,-2.2743,-2.2769,-2.3211,-2.3782,-2.3895,-2.4774,-2.5777,-2.4316,-2.4319,-2.4666,-2.3226,-2.2693,-2.2693,-2.2693,-2.2593,-2.2484,-2.2484,-2.2484,-2.2282,-2.1285,-2.103,-2.0731,-1.968,-1.9428,-1.9428,-1.9428,-1.9324,-1.9324,-1.9376,-1.9324,-1.9279,-1.9279,-1.9279,-1.9279,-1.9279,-1.9279,-1.9279,-1.9279,-1.9279,-1.9279,-1.9279,-1.9279,-1.9279,-1.9279,-1.9279,-1.9279,-1.9279,-1.9279,-1.9279,-1.9279,-1.9279,-1.9279,-1.9279,-1.9279,-1.9279,-1.9279,-1.9279,-1.9324,-1.9428,-1.9428,-2.0034,-1.9301,0.0,-1.8975,-1.8975,-1.8856,-1.8527,0.0,0.0,-1.718,-1.6445,-1.6242,-1.6263,-1.6549,-1.7674,-1.8627,-1.8794,0.0,0.0,0.0,0.0,0.0,0.0,0.0,0.0,0.0,0.0,0.0,0.0,0.0,-2.3429,-2.3429,-2.3429,-2.3628,-2.4026,-2.302,-2.2358,-2.2089,-2.2038,-2.219,-2.2484,-2.2484,-2.2484,-2.2484,-2.2484,-2.2944,0.0,0.0,0.0,-2.4971,-2.4971,-2.4971,-2.496,-2.5332,-2.5578,-2.5825,-2.6513,-2.6721,-2.6676,-2.6304,-2.6111,-2.59,-2.5163,-2.4824,-2.4627,-2.4627,-2.3651,-2.2484,-2.2484,-2.2484,-2.2433,-2.219,-2.2139,-2.1836,-2.0783,-2.0534,-2.0534,-2.0534,-1.9879,-1.9532,-2.038,-1.9879,-1.9279,-1.9279,-1.9279,-1.9279,-1.9279,-1.9279,-1.9279,-1.9279,-1.9279,-1.9279,-1.9279,-1.9279,-1.9279,-1.9279,-1.9279,-1.9279,-1.9279,-1.9279,-1.9279,-1.9279,-1.9279,-1.9279,-1.9279,-1.9279,-1.9279,-1.9279,-1.9279,-1.9732,-2.0534,-2.0534,-2.154,-1.9301,-1.9301,-1.9301,-1.9301,-1.9301,-1.9143,-1.8576,0.0,0.0,0.0,0.0,0.0,0.0,0.0,0.0,0.0,-2.0838,0.0,0.0,0.0,0.0,0.0,0.0,0.0,0.0,0.0,0.0,0.0,0.0,-2.4202,-2.4202,-2.4301,-2.4489,-2.4883,-2.448,-2.4075,-2.3759,-2.3393,-2.3493,-2.3958,-2.3958,-2.3958,-2.3958,-2.3958,-2.4254,0.0,0.0,0.0,-2.5693,-2.5693,-2.5693,-2.5732,-2.6221,-2.6504,-2.6758,-2.7474,-2.7393,-2.7012,-2.7012,-2.6611,-2.6055,-2.5762,-2.5586,-2.544,-2.5333,-2.4677,-2.3958,-2.3809,-2.3859,-2.385,-2.3343,-2.3235,-2.2935,-2.1887,-2.1633,-2.1633,-2.1633,-2.1183,-2.0936,-2.154,-2.0783,-2.0027,-2.0027,-1.9628,-1.9279,-1.9279,-1.9279,-1.9279,-1.9279,-1.9279,-1.9279,-1.9279,-1.9279,-1.9279,-1.9279,-1.9279,-1.9279,-1.9279,-1.9279,-1.9279,-1.9279,-1.9279,-1.9524,-2.0034,-2.0534,-2.0783,-2.0783,-2.0783,-2.1089,-2.1633,-2.1633,-2.2534,-1.9301,-1.9301,-1.9301,-1.9301,-1.9301,-1.9271,-1.9042,0.0,0.0,0.0,0.0,0.0,0.0,-1.8888,0.0,0.0,0.0,0.0,0.0,0.0,0.0,0.0,0.0,0.0,0.0,0.0,0.0,0.0,0.0,-2.4202,-2.4251,-2.439,-2.4637,-2.4932,-2.5186,-2.544,-2.5693,-2.4805,-2.4805,-2.5693,-2.5693,-2.5693,-2.5693,-2.5693,-2.5693,-2.5693,0.0,0.0,-2.5693,-2.5693,-2.5693,-2.5732,-2.6221,-2.665,-2.707,-2.751,-2.7432,-2.7109,-2.7041,-2.6504,-2.5791,-2.5791,-2.5742,-2.5586,-2.5391,-2.544,-2.5606,-2.5459,-2.5537,-2.5479,-2.4599,-2.4344,-2.4048,-2.2985,-2.2735,-2.2735,-2.2735,-2.2634,-2.2542,-2.2685,-2.1735,-2.0885,-2.0885,-2.0027,-1.9279,-1.9279,-1.9279,-1.9279,-1.9279,-1.9279,-1.9279,-1.9279,-1.9279,-1.9279,-1.9279,-1.9279,-1.9279,-1.9279,-1.9279,-1.9279,-1.9279,-1.9279,-1.9732,-2.0637,-2.1692,-2.224,-2.224,-2.2433,-2.2584,-2.2735,-2.2735,-2.3343,-1.9301,-1.9301,-1.9301,-1.9301,-1.9301,-1.9271,-1.9042,0.0,0.0,0.0,0.0,0.0,0.0,-1.9912,-2.0307,0.0,0.0,0.0,0.0,0.0,0.0,0.0,0.0,0.0,0.0,0.0,0.0,0.0,0.0,-2.4251,-2.444,-2.448,-2.4735,-2.5235,-2.5284,-2.544,-2.5693,-2.5538,-2.5538,-2.5693,-2.5693,-2.5693,-2.5693,-2.5693,-2.5693,-2.5693,0.0,-2.5693,-2.5693,-2.5693,-2.5693,-2.5732,-2.6221,-2.665,-2.707,-2.751,-2.7679,-2.7562,-2.7148,-2.6699,-2.6289,-2.6289,-2.5887,-2.5333,-2.5333,-2.5342,-2.5459,-2.5775,-2.5819,-2.5635,-2.5479,-2.543,-2.5177,-2.4097,-2.384,-2.384,-2.384,-2.3135,-2.2793,-2.3692,-2.2232,-2.0885,-2.0885,-2.0027,-1.9279,-1.9279,-1.9279,-1.9279,-1.9279,-1.9279,-1.9279,-1.9279,-1.9279,-1.9279,-1.9279,-1.9279,-1.9279,-1.9279,-1.9279,-1.9279,-1.9279,-1.9279,-1.9376,-1.9532,-2.0585,-2.114,-2.114,-2.2038,-2.2994,-2.384,-2.384,-2.4452,-1.8962,-1.8962,-1.9002,-1.9112,-1.9222,-1.9271,-1.9042,-1.9002,0.0,0.0,0.0,0.0,0.0,0.0,0.0,0.0,0.0,0.0,0.0,0.0,0.0,0.0,0.0,0.0,0.0,0.0,0.0,0.0,0.0,0.0,-2.448,-2.4784,-2.5039,-2.5284,-2.544,-2.5586,-2.5693,-2.5693,-2.5693,-2.5693,-2.5693,-2.5693,-2.5693,-2.5693,-2.5693,-2.5693,0.0,-2.5693,-2.5693,-2.5693,-2.5693,-2.5732,-2.6221,-2.6504,-2.6728,-2.7158,-2.7461,-2.765,-2.7168,-2.6894,-2.6728,-2.6728,-2.6491,-2.6166,-2.6066,-2.6116,-2.6214,-2.6307,-2.6216,-2.6143,-2.6367,-2.6376,-2.6208,-2.5509,-2.5353,-2.5296,-2.5019,-2.4569,-2.4362,-2.4864,-2.3701,-2.2643,-2.2643,-2.1234,-2.0181,-2.0181,-1.968,-1.9279,-1.9279,-1.9279,-1.9279,-1.9279,-1.9828,-2.0181,-2.0181,-2.068,-2.0534,-1.9376,-1.9279,-1.9279,-1.9279,-2.0431,-2.1038,-2.1038,-2.2652,-2.3511,-2.3511,-2.4016,-2.4412,-2.4766,-2.4766,-2.502,-1.87,-1.8772,-1.8851,-1.8962,0.0,-1.9183,-1.9042,-1.9002,0.0,0.0,0.0,0.0,0.0,0.0,0.0,0.0,0.0,0.0,0.0,0.0,0.0,0.0,0.0,0.0,0.0,0.0,0.0,0.0,0.0,0.0,-2.448,-2.4883,-2.5137,-2.5186,-2.5391,-2.5489,-2.5489,-2.5489,-2.5586,-2.5693,-2.5693,-2.5693,-2.5693,-2.5693,-2.5693,-2.5693,-2.5693,-2.5693,-2.5693,-2.5693,-2.5693,-2.5723,-2.6103,-2.6299,-2.6435,-2.6865,-2.7295,-2.7669,-2.7285,-2.7168,-2.7168,-2.7168,-2.71,-2.6961,-2.6756,-2.6858,-2.698,-2.6872,-2.6781,-2.6738,-2.6963,-2.7012,-2.6904,-2.6494,-2.6387,-2.6269,-2.5781,-2.5693,-2.5693,-2.5693,-2.4815,-2.4088,-2.4088,-2.2542,-2.1285,-2.1285,-2.0585,-2.0034,-2.0034,-1.9828,-1.9776,-2.0034,-2.0585,-2.0987,-2.1234,-2.2038,-2.1785,-2.013,-2.0034,-2.0034,-2.0034,-2.1641,-2.2484,-2.2391,-2.4264,-2.5186,-2.5137,-2.5382,-2.544,-2.5284,-2.5284,-2.5333,-1.874,-1.8962,-1.9231,-1.9033,-1.9002,0.0,-1.9002,-1.9002,0.0,-1.8732,0.0,0.0,0.0,0.0,0.0,0.0,0.0,0.0,0.0,0.0,0.0,0.0,0.0,0.0,0.0,0.0,0.0,0.0,0.0,0.0,-2.4489,-2.4529,-2.4677,-2.4932,-2.4941,-2.4981,-2.4981,-2.4981,-2.5186,-2.5693,-2.5693,-2.5693,-2.5693,-2.5693,-2.5693,-2.5693,-2.5693,-2.5693,-2.5693,-2.5693,-2.5693,-2.5693,-2.5723,-2.6035,-2.6435,-2.6865,-2.7295,-2.7718,-2.7679,-2.7669,-2.7669,-2.7669,-2.7344,-2.7012,-2.6961,-2.6961,-2.71,-2.75,-2.7598,-2.749,-2.7109,-2.7012,-2.6904,-2.6494,-2.6387,-2.6269,-2.5781,-2.5693,-2.5693,-2.5693,-2.4815,-2.4088,-2.4088,-2.3144,-2.2391,-2.2391,-2.2341,-2.2291,-2.2291,-2.1387,-2.1191,-2.2139,-2.1438,-2.1285,-2.2291,-2.2433,-2.2433,-2.2291,-2.2291,-2.2291,-2.2291,-2.2433,-2.2391,-2.2139,-2.327,-2.3728,-2.3479,-2.448,-2.5088,-2.5284,-2.5284,-2.543,-1.8571,-1.8732,-1.8922,-1.9002,-1.9002,0.0,0.0,-1.9073,-1.9074,-1.9367,-1.9772,0.0,0.0,0.0,0.0,0.0,0.0,0.0,0.0,0.0,0.0,0.0,0.0,0.0,0.0,0.0,0.0,0.0,0.0,0.0,-2.448,-2.4686,-2.4784,-2.4883,-2.4883,-2.4883,-2.4883,-2.4883,-2.4981,-2.5186,-2.5186,-2.5186,-2.5186,-2.5186,-2.5284,-2.543,-2.543,-2.5538,-2.5693,-2.5693,-2.5693,-2.5693,-2.5693,-2.6006,-2.6406,-2.6562,-2.6894,-2.7266,-2.7266,-2.7441,-2.7718,-2.7718,-2.7734,-2.7812,-2.7812,-2.7812,-2.7851,-2.8008,-2.8057,-2.8018,-2.7851,-2.7812,-2.7637,-2.6943,-2.6777,-2.6592,-2.584,-2.5693,-2.5693,-2.5693,-2.5372,-2.5069,-2.5069,-2.4196,-2.3484,-2.3484,-2.2944,-2.2484,-2.2484,-2.2139,-2.2038,-2.2433,-2.2601,-2.3061,-2.4165,-2.4066,-2.3967,-2.3967,-2.2894,-2.2232,-2.2232,-2.2752,-2.2961,-2.2861,-2.3877,-2.4381,-2.4282,-2.4686,-2.4932,-2.503,-2.503,-2.5186,-1.8442,-1.8643,-1.8882,0.0,0.0,0.0,-1.9262,-1.9183,-1.9194,-1.9637,-1.9956,0.0,-2.1328,0.0,0.0,0.0,0.0,0.0,0.0,0.0,0.0,0.0,0.0,0.0,0.0,0.0,0.0,0.0,0.0,0.0,0.0,-2.4587,-2.4695,-2.4695,-2.4695,-2.4695,-2.4695,-2.4695,-2.4695,-2.4695,-2.4695,-2.4735,-2.4883,-2.4883,-2.4981,-2.5186,-2.5235,-2.5391,-2.5586,-2.5693,-2.5693,-2.5693,-2.5693,-2.5918,-2.6182,-2.6182,-2.6455,-2.6816,-2.6816,-2.71,-2.748,-2.7669,-2.7914,-2.8125,-2.8252,-2.8291,-2.8291,-2.8291,-2.8291,-2.8291,-2.8291,-2.8291,-2.8076,-2.7217,-2.7012,-2.6777,-2.5879,-2.5693,-2.5693,-2.5693,-2.5693,-2.5693,-2.5693,-2.5069,-2.4609,-2.4609,-2.3899,-2.3402,-2.3402,-2.3103,-2.2902,-2.2902,-2.3619,-2.4381,-2.5137,-2.499,-2.4883,-2.4883,-2.361,-2.2902,-2.3003,-2.352,-2.3786,-2.3678,-2.4381,-2.4735,-2.4695,-2.4695,-2.4735,-2.4883,-2.4883,-2.5088,-1.8442,-1.8834,-1.9192,0.0,0.0,0.0,-1.9262,-1.9301,-1.9301,-1.9311,-1.9807,-2.054,-2.1496,0.0,0.0,0.0,0.0,0.0,0.0,0.0,0.0,0.0,0.0,0.0,0.0,0.0,0.0,0.0,0.0,0.0,0.0,-2.4202,-2.4202,-2.4202,-2.4202,-2.4202,-2.4202,-2.4202,-2.4202,-2.4202,-2.4202,-2.4449,-2.4883,-2.4883,-2.4883,-2.4932,-2.5186,-2.5284,-2.5333,-2.5586,-2.5693,-2.5693,-2.5693,-2.5693,-2.5693,-2.5693,-2.6006,-2.6387,-2.6387,-2.666,-2.708,-2.751,-2.7708,-2.7744,-2.8164,-2.8291,-2.8291,-2.8291,-2.8291,-2.8291,-2.8291,-2.8291,-2.8076,-2.7226,-2.7021,-2.6777,-2.5879,-2.5693,-2.5693,-2.5693,-2.5693,-2.5693,-2.5693,-2.5693,-2.5693,-2.5693,-2.5489,-2.5284,-2.5284,-2.4381,-2.3728,-2.3728,-2.443,-2.4883,-2.4883,-2.4883,-2.4883,-2.4883,-2.4686,-2.4637,-2.4883,-2.4883,-2.4784,-2.448,-2.448,-2.439,-2.4202,-2.4202,-2.4449,-2.4883,-2.4883,-2.5186,-1.8442,-1.8643,0.0,-1.8922,0.0,0.0,0.0,-1.8962,0.0,0.0,-2.0524,-2.1201,-2.1606,0.0,0.0,0.0,0.0,0.0,0.0,0.0,0.0,0.0,0.0,0.0,0.0,0.0,0.0,0.0,0.0,0.0,0.0,-2.4202,-2.4202,-2.4202,-2.4202,-2.4202,-2.4202,-2.4202,-2.4202,-2.4202,-2.4202,-2.4251,-2.4399,-2.4399,-2.4489,-2.4637,-2.4686,-2.4932,-2.5333,-2.5586,-2.5693,-2.5693,-2.5693,-2.5693,-2.5693,-2.5693,-2.5771,-2.5937,-2.5937,-2.6062,-2.633,-2.6466,-2.6911,-2.7414,-2.754,-2.795,-2.8291,-2.8291,-2.8291,-2.8291,-2.8291,-2.8291,-2.8154,-2.7607,-2.7236,-2.6865,-2.6318,-2.5908,-2.5693,-2.5693,-2.5693,-2.5693,-2.5693,-2.5693,-2.5693,-2.5693,-2.5635,-2.5489,-2.5333,-2.4883,-2.4529,-2.4529,-2.4587,-2.4637,-2.4637,-2.4784,-2.4883,-2.4883,-2.5167,-2.5118,-2.4637,-2.4489,-2.435,-2.4301,-2.4301,-2.4341,-2.439,-2.439,-2.4686,-2.5186,-2.5362,-2.5654,-1.8442,-1.8603,0.0,-1.8763,-1.8732,-1.87,-1.8763,0.0,0.0,0.0,0.0,-2.1149,-2.1624,-2.1526,0.0,0.0,0.0,0.0,0.0,0.0,0.0,0.0,0.0,0.0,0.0,0.0,0.0,0.0,0.0,0.0,0.0,-2.4202,-2.4301,-2.4489,-2.4498,-2.4587,-2.4775,-2.4784,-2.4784,-2.4775,-2.4587,-2.4587,-2.4775,-2.439,-2.4251,-2.439,-2.4587,-2.4981,-2.5489,-2.5635,-2.5693,-2.5693,-2.5693,-2.5693,-2.5693,-2.5693,-2.5693,-2.5693,-2.5693,-2.5761,-2.5905,-2.6079,-2.6526,-2.6972,-2.7137,-2.7474,-2.7783,-2.7783,-2.7783,-2.7783,-2.7783,-2.7783,-2.7764,-2.7685,-2.7334,-2.6904,-2.6484,-2.6045,-2.5693,-2.5693,-2.5693,-2.5693,-2.5693,-2.5693,-2.5693,-2.5693,-2.5538,-2.5333,-2.5137,-2.4843,-2.4637,-2.4735,-2.4538,-2.444,-2.4637,-2.4784,-2.4981,-2.5216,-2.5499,-2.5499,-2.502,-2.4873,-2.4686,-2.4498,-2.4686,-2.4873,-2.4971,-2.4971,-2.5216,-2.5616,-2.58,-2.5994,-1.8402,0.0,0.0,-1.8482,-1.8523,0.0,-1.8402,-1.8772,-1.9324,-2.0027,0.0,-2.0721,-2.1534,0.0,0.0,0.0,0.0,0.0,0.0,0.0,0.0,0.0,0.0,0.0,0.0,0.0,0.0,0.0,0.0,0.0,0.0,-2.419,-2.4377,-2.4818,-2.4905,-2.5158,-2.5635,-2.5674,-2.5693,-2.5693,-2.5216,-2.5216,-2.5645,-2.4686,-2.4301,-2.4399,-2.4833,-2.5284,-2.5732,-2.583,-2.583,-2.583,-2.583,-2.583,-2.583,-2.5732,-2.5693,-2.5693,-2.5693,-2.5684,-2.5752,-2.6152,-2.6357,-2.6405,-2.6785,-2.6931,-2.7012,-2.7012,-2.7012,-2.7012,-2.7012,-2.7012,-2.7119,-2.751,-2.7275,-2.6855,-2.6465,-2.6045,-2.5693,-2.5693,-2.5693,-2.5693,-2.5693,-2.5693,-2.5684,-2.5693,-2.5235,-2.4883,-2.4883,-2.4498,-2.4301,-2.4538,-2.439,-2.4449,-2.4932,-2.503,-2.5274,-2.5742,-2.5839,-2.5839,-2.579,-2.5742,-2.545,-2.4981,-2.546,-2.5693,-2.5742,-2.5742,-2.5887,-2.6149,-2.6149,-2.6294,-1.8121,-1.8161,0.0,0.0,-1.8442,-1.8402,-1.8161,-1.8404,-1.8941,-1.9798,-2.0438,-2.1034,0.0,0.0,0.0,0.0,0.0,0.0,0.0,0.0,0.0,0.0,0.0,0.0,0.0,0.0,0.0,0.0,0.0,0.0,-2.4247,-2.3928,-2.3928,-2.4397,-2.4773,-2.5043,-2.5138,-2.5527,-2.5693,0.0,-2.5596,-2.5596,-2.5693,-2.503,-2.5079,-2.5703,-2.581,-2.5907,-2.6052,-2.6648,-2.6877,-2.6877,-2.6877,-2.6877,-2.6781,-2.6014,-2.5693,-2.5693,-2.5693,-2.5538,-2.5401,-2.5497,-2.5807,-2.6097,-2.6184,-2.6596,-2.7012,-2.7012,-2.7012,-2.7012,-2.7012,-2.7012,-2.7041,-2.7139,-2.6826,-2.6494,-2.6406,-2.6045,-2.5693,-2.5693,-2.5693,-2.5693,-2.5693,-2.5693,-2.5635,-2.544,-2.5088,-2.4833,-2.4627,-2.4341,-2.435,-2.4784,-2.4784,-2.4981,-2.5499,-2.5897,-2.6207,-2.6294,-2.6726,-2.6774,-2.6352,-2.5945,-2.5645,-2.5557,-2.5645,-2.579,-2.5994,-2.5994,-2.6149,-2.64,-2.6651,-2.6747,-1.8665,0.0,0.0,-1.8201,0.0,-1.8152,-1.8031,-1.8323,-1.8816,-1.9544,-2.0184,0.0,0.0,0.0,0.0,0.0,0.0,0.0,0.0,0.0,0.0,0.0,0.0,0.0,0.0,0.0,0.0,0.0,0.0,-2.3859,-2.4293,-2.4071,-2.4164,-2.468,-2.4908,-2.5388,-2.6058,-2.6295,-2.663,-2.7024,-2.6794,-2.6816,-2.7045,-2.5827,-2.5654,-2.6294,-2.6294,-2.6438,-2.6658,-2.702,-2.7067,-2.6839,-2.6744,-2.6494,-2.6215,-2.5713,-2.5489,-2.5538,-2.5635,-2.5586,-2.5489,-2.5489,-2.5634,-2.5877,-2.5877,-2.6082,-2.6356,-2.6197,-2.6197,-2.6197,-2.6197,-2.6197,-2.6197,-2.6356,-2.6396,-2.6387,-2.6387,-2.6045,-2.5693,-2.5693,-2.5693,-2.5693,-2.5693,-2.5586,-2.544,-2.5333,-2.5186,-2.5039,-2.4883,-2.4883,-2.502,-2.5265,-2.5265,-2.5509,-2.6042,-2.6352,-2.6592,-2.688,-2.7167,-2.7167,-2.688,-2.662,-2.6332,-2.61,-2.6332,-2.6524,-2.6678,-2.6678,-2.6726,-2.688,-2.7034,-2.7081,-1.9143,0.0,-1.8282,-1.808,-1.8,0.0,-1.8193,-1.8475,-1.8887,-1.9439,0.0,0.0,0.0,0.0,0.0,0.0,0.0,0.0,0.0,0.0,0.0,0.0,0.0,0.0,0.0,0.0,0.0,0.0,0.0,-2.3898,-2.4297,-2.4271,-2.4453,-2.4972,-2.5098,-2.5751,-2.7063,-2.7151,-2.7656,-2.8502,-2.8047,-2.8086,-2.8511,-2.6915,-2.6448,-2.6965,-2.6918,-2.7003,-2.7241,-2.7278,-2.704,-2.6582,-2.638,-2.5945,-2.547,-2.5333,-2.5284,-2.5333,-2.5586,-2.5693,-2.5635,-2.5635,-2.5586,-2.5538,-2.5538,-2.5538,-2.5538,-2.5284,-2.5235,-2.5235,-2.5284,-2.5284,-2.5391,-2.5635,-2.6016,-2.6279,-2.6279,-2.5986,-2.5693,-2.5693,-2.5732,-2.5781,-2.583,-2.5635,-2.5479,-2.543,-2.543,-2.543,-2.5382,-2.5557,-2.5742,-2.5849,-2.5849,-2.6042,-2.6592,-2.664,-2.6832,-2.7262,-2.7309,-2.7309,-2.7309,-2.7309,-2.7071,-2.664,-2.7071,-2.7309,-2.7309,-2.7309,-2.7309,-2.7309,-2.7309,-2.7309,0.0,0.0,-1.804,0.0,-1.8,-1.8193,0.0,0.0,-1.9334,0.0,0.0,0.0,0.0,0.0,0.0,0.0,0.0,0.0,0.0,0.0,0.0,0.0,0.0,0.0,0.0,0.0,0.0,0.0,-2.4061,-2.3995,-2.4456,-2.4099,-2.4099,-2.4553,-2.4977,-2.5648,-2.6563,-2.6987,-2.7656,-2.8502,-2.8416,-2.845,-2.8519,-2.8227,-2.8343,-2.876,-2.8491,-2.7987,-2.7299,-2.7715,-2.76,-2.7105,-2.7057,-2.6723,-2.6196,-2.5518,-2.5284,-2.5333,-2.5586,-2.5538,-2.5333,-2.5333,-2.5186,-2.499,-2.499,-2.499,-2.4981,-2.4981,-2.4932,-2.499,-2.5235,-2.5284,-2.5391,-2.5635,-2.5732,-2.5771,-2.5771,-2.5732,-2.5693,-2.5693,-2.5868,-2.61,-2.6352,-2.6352,-2.6255,-2.6052,-2.6004,-2.5897,-2.5703,-2.5693,-2.5897,-2.6352,-2.64,-2.6592,-2.7167,-2.7214,-2.7214,-2.7309,-2.7309,-2.7309,-2.7309,-2.7309,-2.7262,-2.7214,-2.7262,-2.7309,-2.7309,-2.7309,-2.7309,-2.7309,-2.7309,-2.7309,-1.9461,-1.8986,-1.8895,0.0,-1.959,-1.9629,-2.0459,0.0,0.0,0.0,0.0,0.0,0.0,0.0,0.0,0.0,0.0,0.0,0.0,0.0,0.0,0.0,0.0,0.0,0.0,0.0,0.0,0.0,-2.4325,-2.4272,-2.4497,-2.4325,-2.4282,-2.4497,-2.4693,-2.5251,-2.6104,-2.6779,-2.7858,-2.9241,-2.9241,-2.9398,-2.9675,-2.9675,-2.9411,-2.899,-2.9184,-2.8765,-2.8077,-2.8626,-2.8023,-2.6802,-2.6648,-2.6061,-2.5294,-2.4971,-2.4833,-2.4883,-2.5137,-2.5186,-2.5088,-2.5088,-2.4981,-2.4883,-2.4883,-2.4883,-2.4883,-2.4735,-2.4686,-2.4686,-2.4833,-2.4833,-2.4981,-2.5382,-2.5489,-2.5538,-2.5693,-2.5693,-2.5732,-2.5868,-2.6159,-2.6352,-2.6496,-2.6496,-2.6448,-2.6352,-2.6428,-2.6524,-2.637,-2.6524,-2.6678,-2.6928,-2.6928,-2.7071,-2.7452,-2.7452,-2.7536,-2.7678,-2.7668,-2.7631,-2.7489,-2.7452,-2.7404,-2.7309,-2.7309,-2.7309,-2.7309,-2.7309,-2.7309,-2.7309,-2.7309,-2.7309,0.0,0.0,-2.0222,-2.0956,-2.0964,-2.0971,0.0,0.0,0.0,0.0,0.0,0.0,0.0,0.0,0.0,0.0,0.0,0.0,0.0,0.0,0.0,0.0,0.0,0.0,0.0,0.0,0.0,0.0,-2.4497,-2.4497,-2.4497,-2.4497,-2.4497,-2.4497,-2.4497,-2.502,-2.611,-2.7232,-2.8462,-2.9792,-2.9792,-3.0005,-3.0407,-3.0407,-2.9914,-2.9135,-2.9613,-2.9385,-2.878,-2.8991,-2.8197,-2.6812,-2.6235,-2.5411,-2.4578,-2.4538,-2.448,-2.4529,-2.4784,-2.4883,-2.4784,-2.4784,-2.4784,-2.4735,-2.4735,-2.4735,-2.4686,-2.4489,-2.444,-2.444,-2.4489,-2.448,-2.4637,-2.5186,-2.5284,-2.5382,-2.5732,-2.5781,-2.5917,-2.6255,-2.6544,-2.6688,-2.6688,-2.6774,-2.687,-2.6784,-2.7003,-2.7183,-2.7183,-2.7336,-2.7489,-2.7489,-2.7489,-2.7536,-2.7678,-2.7726,-2.7773,-2.7998,-2.7951,-2.7809,-2.7631,-2.7536,-2.7452,-2.7309,-2.7309,-2.7309,-2.7309,-2.7309,-2.7309,-2.7309,-2.7309,-2.7309,0.0,-2.244,0.0,-2.1422,0.0,0.0,0.0,0.0,0.0,0.0,0.0,0.0,0.0,0.0,0.0,0.0,0.0,0.0,0.0,0.0,0.0,0.0,0.0,0.0,0.0,0.0,0.0,0.0,-2.4497,-2.4497,-2.4497,-2.4497,-2.4497,-2.4497,-2.4497,-2.5316,-2.7028,-2.8803,-2.9714,-2.9792,-2.9792,-2.9804,-2.9829,-2.9829,-2.9816,-2.9774,-2.99,-2.971,-2.9212,-2.8331,-2.792,-2.7688,-2.6254,-2.5362,-2.4833,-2.4578,-2.448,-2.4529,-2.4784,-2.4735,-2.4529,-2.4529,-2.439,-2.4251,-2.4251,-2.4251,-2.4251,-2.4202,-2.4202,-2.4251,-2.443,-2.448,-2.4637,-2.5186,-2.5284,-2.543,-2.5955,-2.61,-2.6245,-2.6747,-2.7081,-2.7262,-2.7262,-2.762,-2.7857,-2.7584,-2.7762,-2.7951,-2.7951,-2.794,-2.7951,-2.7951,-2.7951,-2.7998,-2.7998,-2.7998,-2.7998,-2.7998,-2.7773,-2.7631,-2.7584,-2.7404,-2.7309,-2.7309,-2.7309,-2.7309,-2.7309,-2.7309,-2.7309,-2.7309,-2.7309,-2.7309,0.0,0.0,0.0,-2.3874,-2.3645,-2.3438,0.0,0.0,0.0,0.0,0.0,0.0,0.0,0.0,0.0,0.0,0.0,0.0,0.0,0.0,0.0,0.0,0.0,0.0,0.0,0.0,0.0,0.0,0.0,-2.4497,-2.4497,-2.4497,-2.4497,-2.4497,-2.5062,-2.6205,-2.7971,-2.8633,-2.9248,-2.9792,-2.9792,-2.9792,-2.9792,-2.9792,-2.9792,-2.9817,-2.9839,-2.9626,-2.9181,-2.9234,-2.8909,-2.8245,-2.707,-2.6506,-2.6244,-2.5167,-2.4784,-2.4735,-2.4538,-2.4399,-2.4301,-2.4301,-2.4251,-2.4202,-2.4202,-2.4202,-2.4202,-2.4202,-2.4202,-2.4202,-2.4301,-2.4301,-2.4538,-2.5362,-2.5713,-2.6052,-2.686,-2.6965,-2.6976,-2.7309,-2.7452,-2.7536,-2.7715,-2.8055,-2.8196,-2.8113,-2.8207,-2.8243,-2.8243,-2.8092,-2.7998,-2.7998,-2.7998,-2.8045,-2.8243,-2.8243,-2.8337,-2.8513,-2.8243,-2.8055,-2.7857,-2.7809,-2.7678,-2.7499,-2.7668,-2.7573,-2.7309,-2.7309,-2.7309,-2.7309,-2.7309,-2.7309,-2.6324,0.0,0.0,0.0,0.0,-2.4647,0.0,0.0,0.0,0.0,0.0,0.0,0.0,0.0,0.0,0.0,0.0,0.0,0.0,0.0,0.0,0.0,0.0,0.0,0.0,0.0,0.0,0.0,0.0,0.0,-2.4497,-2.4497,-2.4615,-2.4946,-2.5799,-2.6976,-2.8502,-2.8791,-2.9209,-2.9792,-2.9792,-2.9792,-2.9792,-2.9792,-2.9792,-2.9792,-2.9792,-2.9727,-2.9606,-2.967,-2.9428,-2.8929,-2.7612,-2.7146,-2.6972,-2.5441,-2.4883,-2.4833,-2.435,-2.4202,-2.4202,-2.4202,-2.4202,-2.4202,-2.4202,-2.4202,-2.4202,-2.4202,-2.4202,-2.4251,-2.4399,-2.4646,-2.503,-2.58,-2.6284,-2.6812,-2.7584,-2.7536,-2.7452,-2.7678,-2.782,-2.7867,-2.7857,-2.8149,-2.8348,-2.816,-2.8301,-2.8395,-2.8395,-2.8337,-2.8279,-2.8279,-2.8279,-2.8326,-2.8535,-2.8535,-2.8617,-2.8803,-2.8535,-2.8301,-2.8139,-2.7951,-2.7762,-2.7584,-2.7715,-2.7631,-2.7309,-2.7357,-2.7357,-2.7309,-2.7309,-2.7309,0.0,0.0,0.0,0.0,0.0,0.0,-2.4301,0.0,0.0,0.0,0.0,0.0,0.0,0.0,0.0,0.0,0.0,0.0,0.0,0.0,0.0,0.0,0.0,0.0,0.0,0.0,0.0,0.0,-2.4497,-2.4497,-2.4497,-2.4497,-2.4893,-2.583,-2.6659,-2.7557,-2.8542,-2.9378,-2.9792,-2.9792,-2.9792,-2.9792,-2.9792,-2.9792,-2.9792,-2.9792,-2.9792,-3.0093,-3.0503,-2.9505,-2.9491,-2.9821,-2.7898,-2.7154,-2.701,-2.5508,-2.4971,-2.4883,-2.439,-2.4202,-2.4202,-2.4202,-2.4202,-2.4202,-2.4202,-2.4202,-2.4202,-2.4202,-2.4251,-2.435,-2.4784,-2.5518,-2.6149,-2.6448,-2.7061,-2.7678,-2.7951,-2.7809,-2.7726,-2.7998,-2.8243,-2.8254,-2.7726,-2.8066,-2.8207,-2.7678,-2.8055,-2.8395,-2.8395,-2.8628,-2.8803,-2.8803,-2.8803,-2.8803,-2.8803,-2.8803,-2.8803,-2.8803,-2.8535,-2.8395,-2.8395,-2.7878,-2.7631,-2.7584,-2.7404,-2.7309,-2.7309,-2.7499,-2.7489,-2.7309,-2.7309,-2.7309,-2.8379,0.0,0.0,0.0,0.0,0.0,0.0,0.0,0.0,0.0,0.0,0.0,0.0,0.0,0.0,0.0,0.0,0.0,0.0,0.0,0.0,0.0,0.0,0.0,0.0,0.0,0.0,0.0,-2.4497,-2.4497,-2.4497,-2.4497,-2.5189,-2.6689,-2.6987,-2.7851,-2.9417,-2.9663,-2.9792,-2.9792,-2.9792,-2.9792,-2.9792,-2.9792,-2.9792,-2.9792,-2.9792,-2.988,-3.0018,-2.9719,-2.9923,-3.0309,-2.9052,-2.8605,-2.85,-2.7048,-2.6069,-2.5401,-2.4883,-2.4686,-2.4637,-2.4301,-2.4449,-2.4646,-2.4301,-2.4449,-2.4686,-2.4686,-2.4981,-2.5304,-2.546,-2.5645,-2.5994,-2.662,-2.7051,-2.7478,-2.8149,-2.8384,-2.8466,-2.856,-2.8477,-2.8348,-2.8207,-2.8301,-2.829,-2.7951,-2.7998,-2.8092,-2.8092,-2.8186,-2.8279,-2.8488,-2.8488,-2.8581,-2.8803,-2.8803,-2.8803,-2.8803,-2.8535,-2.829,-2.8139,-2.7951,-2.7809,-2.7584,-2.7715,-2.7715,-2.7499,-2.7452,-2.7347,-2.7309,-2.7309,-2.7309,-2.8471,-2.7702,-2.6898,0.0,0.0,0.0,-2.5312,-2.5382,0.0,0.0,0.0,0.0,0.0,0.0,0.0,0.0,0.0,0.0,0.0,0.0,0.0,0.0,0.0,0.0,0.0,-2.3826,-2.4053,-2.425,-2.426,-2.4301,-2.4487,-2.4497,-2.5147,-2.6524,-2.6894,-2.781,-2.9248,-2.9624,-2.9792,-2.9792,-2.9792,-2.9792,-2.9792,-2.9792,-2.9792,-2.9792,-2.9792,-2.9792,-2.9792,-2.9792,-2.998,-3.0175,-2.9403,-2.9136,-2.902,-2.7616,-2.6755,-2.6184,-2.5489,-2.5216,-2.5167,-2.4922,-2.502,-2.5167,-2.4932,-2.503,-2.5216,-2.5216,-2.5606,-2.6042,-2.6042,-2.6187,-2.6524,-2.7051,-2.7384,-2.7715,-2.8243,-2.8617,-2.8803,-2.8803,-2.8664,-2.8488,-2.829,-2.8243,-2.8102,-2.7773,-2.7762,-2.7809,-2.7809,-2.7951,-2.8045,-2.8243,-2.8243,-2.829,-2.8466,-2.8466,-2.8466,-2.8466,-2.8337,-2.8149,-2.7998,-2.7904,-2.7773,-2.7584,-2.7678,-2.7631,-2.7489,-2.7452,-2.7404,-2.7309,-2.7309,-2.7309,-2.851,-2.7702,-2.6898,-2.6898,-2.6081,0.0,-2.5347,-2.5347,-2.5123,0.0,0.0,0.0,0.0,0.0,0.0,0.0,0.0,0.0,0.0,0.0,0.0,0.0,0.0,0.0,-2.3111,-2.3153,-2.336,-2.3774,-2.3805,-2.3971,-2.4332,-2.4394,-2.483,-2.5712,-2.6625,-2.7557,-2.8502,-2.9378,-2.9792,-2.9792,-2.9792,-2.9792,-2.9792,-2.9792,-2.9792,-2.9792,-2.9792,-2.9792,-2.9792,-2.9792,-2.9792,-2.9764,-2.9221,-2.9009,-2.8793,-2.7513,-2.6968,-2.6762,-2.5986,-2.5722,-2.5732,-2.5674,-2.5742,-2.579,-2.5742,-2.5742,-2.579,-2.5839,-2.6245,-2.6592,-2.6592,-2.6928,-2.7357,-2.7536,-2.7762,-2.8045,-2.829,-2.8571,-2.8757,-2.8803,-2.8803,-2.8653,-2.8139,-2.8045,-2.7857,-2.7404,-2.7499,-2.7594,-2.7584,-2.7762,-2.7951,-2.794,-2.7951,-2.7998,-2.7998,-2.7998,-2.7998,-2.7998,-2.7998,-2.7998,-2.7951,-2.7726,-2.7594,-2.7584,-2.7404,-2.7309,-2.7309,-2.7499,-2.7489,-2.7309,-2.7309,-2.7309,-2.851,-2.7702,-2.6898,0.0,-2.6081,0.0,-2.5488,-2.5688,-2.5382,0.0,0.0,0.0,0.0,0.0,0.0,0.0,0.0,0.0,0.0,0.0,0.0,0.0,0.0,0.0,-2.2635,-2.2967,-2.3225,-2.3318,-2.3318,-2.336,-2.3443,-2.3805,-2.4398,-2.5303,-2.6497,-2.7557,-2.8502,-2.9378,-2.9792,-2.9792,-2.9792,-2.9792,-2.9792,-2.9792,-2.9792,-2.9792,-2.9792,-2.9792,-2.9792,-2.9792,-2.9792,-2.9714,-2.894,-2.8373,-2.7931,-2.6963,-2.6148,-2.5513,-2.5698,-2.5764,-2.5777,-2.5731,-2.5994,-2.6245,-2.5839,-2.5994,-2.6438,-2.687,-2.7061,-2.7119,-2.7119,-2.7214,-2.7309,-2.7357,-2.7536,-2.7773,-2.7998,-2.829,-2.8524,-2.8757,-2.8803,-2.871,-2.8395,-2.8301,-2.8149,-2.7631,-2.7584,-2.7536,-2.7404,-2.7404,-2.7489,-2.7678,-2.7678,-2.7773,-2.7987,-2.7998,-2.7998,-2.7998,-2.7998,-2.7904,-2.7678,-2.7631,-2.7536,-2.7357,-2.7309,-2.7309,-2.7309,-2.7357,-2.7357,-2.7309,-2.7309,-2.7309,0.0,0.0,0.0,-2.6586,0.0,0.0,0.0,-2.5758,-2.5571,-2.4337,0.0,0.0,0.0,0.0,0.0,0.0,0.0,0.0,0.0,0.0,0.0,0.0,0.0,0.0,-2.2149,-2.2366,-2.2594,-2.2822,-2.306,-2.3184,-2.3184,-2.3412,-2.3771,-2.4188,-2.5473,-2.657,-2.7474,-2.8579,-2.9378,-2.9792,-2.9792,-2.9792,-2.9792,-2.9792,-2.9792,-2.9792,-2.9792,-2.9792,-2.9792,-2.9792,-2.9792,-2.9753,-2.9326,-2.875,-2.8058,-2.7397,-2.6574,-2.5808,-2.5833,-2.586,-2.5844,-2.5835,-2.5999,-2.619,-2.6168,-2.6496,-2.6976,-2.7214,-2.7309,-2.7309,-2.7309,-2.7309,-2.7309,-2.7309,-2.7452,-2.7631,-2.7762,-2.8113,-2.8441,-2.8571,-2.871,-2.871,-2.8441,-2.8301,-2.8055,-2.7678,-2.7489,-2.7394,-2.7309,-2.7309,-2.7357,-2.7452,-2.7452,-2.7489,-2.7631,-2.7631,-2.7631,-2.7631,-2.7631,-2.7584,-2.7452,-2.7452,-2.7404,-2.7309,-2.7309,-2.7309,-2.7309,-2.7309,-2.7309,-2.7309,-2.7309,-2.7309,0.0,0.0,0.0,0.0,0.0,-2.5606,0.0,0.0,0.0,0.0,0.0,0.0,0.0,0.0,0.0,0.0,0.0,0.0,0.0,0.0,0.0,0.0,0.0,0.0,0.0,-2.1807,-2.1963,-2.2335,-2.2708,-2.2925,-2.2925,-2.3008,-2.306,-2.306,-2.4387,-2.5472,-2.6267,-2.7648,-2.8724,-2.9513,-2.9651,-2.9702,-2.9702,-2.9792,-2.9792,-2.9792,-2.9792,-2.9792,-2.9792,-2.9792,-2.9792,-2.9792,-2.9624,-2.9079,-2.8351,-2.761,-2.6919,-2.6238,-2.5853,-2.5706,-2.5771,-2.5854,-2.5875,-2.5993,-2.6366,-2.6739,-2.704,-2.704,-2.704,-2.704,-2.704,-2.704,-2.7061,-2.7154,-2.7269,-2.7432,-2.7563,-2.7925,-2.8254,-2.8301,-2.8477,-2.8571,-2.8441,-2.8243,-2.7951,-2.7631,-2.7441,-2.7357,-2.7309,-2.7309,-2.7309,-2.7309,-2.7309,-2.7309,-2.7309,-2.7309,-2.7309,-2.7309,-2.7309,-2.7309,-2.7309,-2.7309,-2.7309,-2.7309,-2.7309,-2.7309,-2.7309,-2.7309,-2.7309,-2.7309,-2.7309,-2.7309,0.0,0.0,0.0,0.0,-2.5971,0.0,0.0,0.0,-2.598,-2.5347,0.0,0.0,0.0,0.0,0.0,0.0,0.0,0.0,0.0,0.0,0.0,0.0,0.0,0.0,0.0,-2.1807,-2.1828,-2.188,-2.1932,-2.1963,-2.1963,-2.2356,-2.2573,-2.2573,-2.3892,-2.487,-2.5517,-2.6921,-2.7905,-2.8468,-2.9118,-2.947,-2.9457,-2.9689,-2.9792,-2.9792,-2.9792,-2.9792,-2.9792,-2.9792,-2.9792,-2.9702,-2.8961,-2.8422,-2.7931,-2.6343,-2.5707,-2.5551,-2.514,-2.5129,-2.5368,-2.5751,-2.5875,-2.5885,-2.5937,-2.6034,-2.6086,-2.6086,-2.6086,-2.6086,-2.6086,-2.6086,-2.6179,-2.6594,-2.6698,-2.6905,-2.7453,-2.7631,-2.7773,-2.7998,-2.8092,-2.8139,-2.8348,-2.8395,-2.8207,-2.7678,-2.7584,-2.7499,-2.7299,-2.7309,-2.7309,-2.7309,-2.7309,-2.7309,-2.7309,-2.7309,-2.7309,-2.7309,-2.7309,-2.7309,-2.7309,-2.7309,-2.7309,-2.7309,-2.7309,-2.7309,-2.7309,-2.7309,-2.7309,-2.7309,-2.7309,-2.7309,0.0,0.0,0.0,0.0,0.0,0.0,-2.6131,0.0,-2.6292,0.0,0.0,0.0,0.0,0.0,0.0,0.0,-2.2703,0.0,0.0,0.0,0.0,0.0,0.0,0.0,0.0,0.0,0.0,0.0,-2.1807,-2.1807,-2.1807,-2.1994,-2.2097,-2.2097,-2.3225,-2.4238,-2.4983,-2.615,-2.7265,-2.8293,-2.8617,-2.9005,-2.9419,-2.9509,-2.965,-2.9792,-2.9792,-2.9792,-2.9792,-2.9792,-2.9702,-2.9521,-2.9184,-2.8661,-2.8011,-2.7273,-2.6381,-2.5475,-2.5456,-2.5154,-2.4817,-2.5003,-2.5285,-2.5502,-2.5502,-2.5678,-2.5875,-2.5875,-2.5875,-2.5875,-2.5875,-2.5875,-2.5927,-2.6169,-2.621,-2.6262,-2.6551,-2.6741,-2.6963,-2.7376,-2.7501,-2.7679,-2.7919,-2.7925,-2.7878,-2.7631,-2.7499,-2.7404,-2.7309,-2.7309,-2.7309,-2.7309,-2.7309,-2.7309,-2.7309,-2.7309,-2.7309,-2.7309,-2.7309,-2.7309,-2.7309,-2.7309,-2.7309,-2.7309,-2.7309,-2.7309,-2.7309,-2.7309,-2.7309,-2.7309,-2.7309,-2.7309,-2.6861,0.0,0.0,0.0,0.0,0.0,0.0,0.0,0.0,0.0,0.0,0.0,0.0,0.0,0.0,0.0,0.0,-2.3091,0.0,0.0,0.0,0.0,0.0,0.0,0.0,0.0,0.0,-2.1807,-2.1807,-2.1807,-2.1807,-2.1987,-2.2138,-2.2138,-2.3026,-2.392,-2.4682,-2.5538,-2.6524,-2.7689,-2.8058,-2.8516,-2.9001,-2.9266,-2.9482,-2.9624,-2.9753,-2.9753,-2.9689,-2.9689,-2.956,-2.938,-2.9263,-2.8858,-2.8263,-2.8103,-2.708,-2.5779,-2.5746,-2.5179,-2.4497,-2.4497,-2.4724,-2.5003,-2.5003,-2.5264,-2.5513,-2.5513,-2.5513,-2.5513,-2.5513,-2.5513,-2.5544,-2.5668,-2.5699,-2.573,-2.5854,-2.6066,-2.6316,-2.6697,-2.6876,-2.7028,-2.719,-2.7416,-2.7584,-2.7547,-2.7404,-2.7309,-2.7309,-2.7309,-2.7309,-2.7309,-2.7309,-2.7309,-2.7309,-2.7309,-2.7309,-2.7309,-2.7309,-2.7309,-2.7309,-2.7309,-2.7309,-2.7309,-2.7309,-2.7309,-2.7309,-2.7309,-2.7309,-2.7309,-2.7309,-2.7309,0.0,0.0,0.0,-2.5928,0.0,0.0,0.0,0.0,-2.6499,0.0,0.0,0.0,0.0,0.0,0.0,-2.4192,0.0,0.0,0.0,0.0,0.0,0.0,0.0,0.0,0.0,0.0,0.0,-2.1807,-2.1807,-2.1807,-2.1807,-2.2553,-2.2964,-2.2964,-2.3545,-2.4166,-2.4695,-2.5051,-2.5542,-2.6202,-2.7427,-2.8013,-2.8088,-2.8989,-2.9314,-2.9131,-2.9585,-2.965,-2.9419,-2.9419,-2.9419,-2.938,-2.8949,-2.8791,-2.8712,-2.8051,-2.7244,-2.6404,-2.5746,-2.5052,-2.4497,-2.4497,-2.4507,-2.4518,-2.4518,-2.4528,-2.4538,-2.4538,-2.4538,-2.4538,-2.4538,-2.4538,-2.4652,-2.5096,-2.521,-2.5368,-2.5792,-2.593,-2.5965,-2.6166,-2.6211,-2.6222,-2.6232,-2.6987,-2.7536,-2.7357,-2.7309,-2.7309,-2.7309,-2.7309,-2.7309,-2.7309,-2.7309,-2.7309,-2.7309,-2.7309,-2.7309,-2.7309,-2.7309,-2.7309,-2.7309,-2.7309,-2.7309,-2.7309,-2.7309,-2.7309,-2.7309,-2.7309,-2.7309,-2.7309,-2.7309,-2.7309,0.0,0.0,-2.5612,-2.5842,0.0,0.0,0.0,0.0,0.0,0.0,0.0,0.0,0.0,0.0,0.0,0.0,0.0,0.0,0.0,0.0,0.0,0.0,0.0,0.0,0.0,0.0,0.0,-2.1807,-2.2289,-2.259,-2.259,-2.3239,-2.3607,-2.3607,-2.4045,-2.4371,-2.4587,-2.5015,-2.554,-2.6105,-2.654,-2.7195,-2.8001,-2.8338,-2.8697,-2.9091,-2.926,-2.93,-2.9197,-2.9197,-2.9118,-2.8988,-2.8831,-2.8791,-2.8803,-2.8673,-2.8103,-2.7203,-2.6069,-2.5179,-2.4497,-2.4497,-2.4497,-2.4497,-2.4497,-2.4497,-2.4497,-2.4497,-2.4497,-2.4497,-2.4497,-2.4497,-2.4538,-2.4693,-2.4735,-2.4766,-2.4964,-2.4952,-2.5122,-2.5687,-2.5784,-2.5933,-2.6372,-2.6745,-2.6915,-2.6858,-2.7112,-2.7309,-2.7309,-2.7309,-2.7309,-2.7309,-2.7309,-2.7309,-2.7309,-2.7113,-2.703,-2.703,-2.6896,-2.682,-2.682,-2.682,-2.682,-2.682,-2.6976,-2.703,-2.703,-2.7201,-2.7309,-2.7309,-2.7309,-2.7309,-2.5865,-2.5564,0.0,-2.5793,-2.591,0.0,-2.6396,0.0,0.0,0.0,0.0,0.0,0.0,0.0,0.0,0.0,0.0,0.0,0.0,-2.3877,0.0,0.0,0.0,0.0,0.0,0.0,-2.1807,-2.1807,-2.2553,-2.2964,0.0,0.0,-2.4251,-2.4179,-2.4659,-2.4886,-2.4886,-2.517,-2.548,-2.5817,-2.6009,-2.6636,-2.7619,-2.7878,-2.8344,-2.8895,-2.9052,-2.9052,-2.9,-2.9,-2.8922,-2.8803,-2.8724,-2.8685,-2.8724,-2.9013,-2.8633,-2.7839,-2.6318,-2.5421,-2.4893,-2.4615,-2.4497,-2.4497,-2.4497,-2.4497,-2.4497,-2.4497,-2.4497,-2.4497,-2.4497,-2.4497,-2.4497,-2.4497,-2.4497,-2.4497,-2.4497,-2.4497,-2.4666,-2.5259,-2.5355,-2.5493,-2.593,-2.6121,-2.6351,-2.6578,-2.6867,-2.7055,-2.7055,-2.7055,-2.7055,-2.7055,-2.6962,-2.6858,-2.6812,-2.6624,-2.6549,-2.6549,-2.6504,-2.647,-2.647,-2.657,-2.6655,-2.6724,-2.676,-2.6816,-2.6892,-2.6982,-2.7092,-2.7155,-2.7155,-2.7191]},{"header":{"parameterUnit":"m.s-1","parameterCategory":1,"la1":30.6,"la2":29.2853,"lo1":-89.7004,"lo2":-87.6739,"dy":0.0162,"dx":0.0183,"nx":112,"ny":82,"refTime":"2023-08-02T18:00:00:Z","depth":0,"parameterNumber":3,"parameterNumberName":"V-component_of_WINDS"},"data":[0.0,0.0,0.0,0.0,0.0,0.0,0.0,0.0,0.0,0.0,0.0,0.0,0.0,0.0,0.0,0.0,0.0,0.0,0.0,0.0,0.0,0.0,0.0,0.0,0.0,0.0,0.0,0.0,0.0,0.0,0.0,0.0,0.0,0.0,0.0,0.0,0.0,0.0,0.0,0.0,0.0,0.0,0.0,0.0,0.0,0.0,0.0,0.0,0.0,0.0,0.0,0.0,0.0,0.0,0.0,0.0,0.0,0.0,0.0,0.0,0.0,0.0,0.0,0.0,0.0,0.0,0.0,0.0,0.0,0.0,0.0,0.0,0.0,0.0,0.0,0.0,0.0,0.0,0.0,0.0,0.0,0.0,0.0,0.0,0.0,0.0,0.0,0.0,0.0,0.0,-3.4539,-3.4374,-3.4397,-3.4528,-3.4768,-3.4316,-3.3802,-3.3275,0.0,0.0,0.0,0.0,0.0,0.0,0.0,0.0,0.0,0.0,0.0,0.0,0.0,0.0,0.0,0.0,0.0,0.0,0.0,0.0,0.0,0.0,0.0,0.0,0.0,0.0,0.0,0.0,0.0,0.0,0.0,0.0,0.0,0.0,0.0,0.0,0.0,0.0,0.0,0.0,0.0,0.0,0.0,0.0,0.0,0.0,0.0,0.0,0.0,0.0,0.0,0.0,0.0,0.0,0.0,0.0,0.0,0.0,0.0,0.0,0.0,0.0,0.0,0.0,0.0,0.0,0.0,0.0,0.0,0.0,0.0,0.0,0.0,0.0,0.0,0.0,0.0,0.0,0.0,0.0,0.0,0.0,0.0,0.0,0.0,0.0,0.0,0.0,0.0,0.0,0.0,0.0,0.0,0.0,0.0,0.0,0.0,0.0,0.0,0.0,0.0,0.0,0.0,0.0,-3.4612,-3.4634,-3.4645,-3.4666,-3.4697,-3.4634,-3.4524,-3.437,0.0,0.0,0.0,0.0,0.0,0.0,0.0,0.0,0.0,0.0,0.0,0.0,0.0,0.0,0.0,0.0,0.0,0.0,0.0,0.0,0.0,0.0,0.0,0.0,0.0,0.0,0.0,0.0,0.0,0.0,0.0,0.0,0.0,0.0,0.0,0.0,0.0,0.0,0.0,0.0,0.0,0.0,0.0,0.0,0.0,0.0,0.0,0.0,0.0,0.0,0.0,0.0,0.0,0.0,0.0,0.0,0.0,0.0,0.0,0.0,0.0,0.0,0.0,0.0,0.0,0.0,0.0,0.0,0.0,0.0,0.0,0.0,0.0,0.0,0.0,0.0,0.0,0.0,0.0,0.0,0.0,0.0,0.0,0.0,0.0,0.0,0.0,0.0,0.0,0.0,0.0,0.0,0.0,0.0,0.0,0.0,0.0,0.0,0.0,0.0,0.0,0.0,0.0,-3.4602,-3.4727,-3.4758,-3.4788,-3.4788,-3.4758,-3.4758,-3.4737,-3.4655,-3.413,0.0,0.0,0.0,0.0,0.0,0.0,0.0,0.0,0.0,0.0,0.0,0.0,0.0,0.0,0.0,0.0,0.0,0.0,0.0,0.0,0.0,0.0,0.0,0.0,0.0,0.0,0.0,0.0,0.0,0.0,0.0,0.0,0.0,0.0,0.0,0.0,0.0,0.0,0.0,0.0,0.0,0.0,0.0,0.0,0.0,0.0,0.0,0.0,0.0,0.0,0.0,0.0,0.0,0.0,0.0,0.0,0.0,0.0,0.0,0.0,0.0,0.0,0.0,0.0,0.0,0.0,0.0,0.0,0.0,0.0,0.0,0.0,0.0,0.0,0.0,0.0,0.0,0.0,0.0,0.0,0.0,0.0,0.0,0.0,0.0,0.0,0.0,0.0,0.0,0.0,0.0,0.0,0.0,0.0,0.0,0.0,0.0,0.0,0.0,0.0,0.0,0.0,-3.4687,-3.4758,-3.4758,-3.4798,-3.4798,-3.4758,-3.4758,-3.4737,-3.4676,-3.4115,0.0,0.0,0.0,0.0,0.0,0.0,0.0,0.0,0.0,0.0,0.0,0.0,0.0,0.0,0.0,0.0,0.0,0.0,0.0,0.0,0.0,0.0,0.0,0.0,0.0,0.0,0.0,0.0,0.0,0.0,0.0,0.0,0.0,0.0,0.0,0.0,0.0,0.0,0.0,0.0,0.0,0.0,0.0,0.0,0.0,0.0,0.0,0.0,0.0,0.0,0.0,0.0,0.0,0.0,0.0,0.0,0.0,0.0,0.0,0.0,0.0,0.0,0.0,0.0,0.0,0.0,0.0,0.0,0.0,0.0,0.0,0.0,0.0,0.0,0.0,0.0,0.0,0.0,0.0,0.0,0.0,0.0,0.0,0.0,0.0,0.0,0.0,0.0,0.0,0.0,0.0,0.0,0.0,0.0,0.0,0.0,0.0,0.0,0.0,0.0,0.0,0.0,-3.4612,-3.4623,-3.4623,-3.4623,-3.4623,-3.4604,-3.4623,-3.4612,-3.4612,-3.4609,0.0,0.0,0.0,0.0,0.0,0.0,0.0,0.0,0.0,0.0,0.0,0.0,0.0,0.0,0.0,0.0,0.0,0.0,0.0,0.0,0.0,0.0,0.0,0.0,0.0,0.0,0.0,0.0,0.0,0.0,0.0,0.0,0.0,0.0,0.0,0.0,0.0,0.0,0.0,0.0,0.0,0.0,0.0,0.0,0.0,0.0,0.0,0.0,0.0,0.0,0.0,0.0,0.0,0.0,0.0,0.0,0.0,0.0,0.0,0.0,0.0,0.0,0.0,0.0,0.0,0.0,0.0,0.0,0.0,0.0,0.0,0.0,0.0,0.0,0.0,0.0,0.0,0.0,0.0,0.0,0.0,0.0,0.0,0.0,0.0,0.0,0.0,0.0,0.0,0.0,0.0,0.0,0.0,0.0,0.0,0.0,0.0,0.0,0.0,0.0,0.0,0.0,-3.4634,-3.4666,0.0,-3.4697,-3.4716,-3.4666,-3.4697,-3.4923,-3.5389,0.0,0.0,0.0,0.0,0.0,0.0,0.0,0.0,0.0,0.0,0.0,0.0,0.0,0.0,0.0,0.0,0.0,0.0,0.0,0.0,0.0,0.0,0.0,0.0,0.0,0.0,0.0,0.0,0.0,0.0,0.0,0.0,0.0,0.0,0.0,0.0,0.0,0.0,0.0,0.0,0.0,0.0,0.0,0.0,0.0,0.0,0.0,0.0,0.0,0.0,0.0,0.0,0.0,0.0,0.0,0.0,0.0,0.0,0.0,0.0,0.0,0.0,0.0,0.0,0.0,0.0,0.0,0.0,0.0,0.0,0.0,0.0,0.0,0.0,0.0,0.0,0.0,0.0,0.0,0.0,0.0,0.0,0.0,0.0,0.0,0.0,0.0,0.0,0.0,0.0,0.0,0.0,0.0,0.0,0.0,0.0,0.0,0.0,0.0,0.0,0.0,0.0,-3.4575,-3.4645,-3.4666,0.0,-3.4961,-3.5141,-3.508,-3.5356,-3.5733,-3.6254,0.0,0.0,0.0,0.0,0.0,0.0,0.0,0.0,0.0,0.0,0.0,0.0,0.0,0.0,0.0,0.0,0.0,0.0,0.0,0.0,0.0,0.0,0.0,0.0,0.0,0.0,0.0,0.0,0.0,0.0,0.0,0.0,0.0,0.0,0.0,0.0,0.0,0.0,0.0,0.0,0.0,0.0,0.0,0.0,0.0,0.0,0.0,0.0,0.0,0.0,0.0,0.0,0.0,0.0,0.0,0.0,0.0,0.0,0.0,0.0,0.0,0.0,0.0,0.0,0.0,0.0,0.0,0.0,0.0,0.0,0.0,0.0,0.0,0.0,0.0,0.0,0.0,0.0,0.0,0.0,0.0,0.0,0.0,0.0,0.0,0.0,0.0,0.0,0.0,0.0,0.0,0.0,0.0,0.0,0.0,0.0,0.0,0.0,0.0,0.0,0.0,0.0,-3.4518,-3.4631,-3.4631,-3.4631,-3.5409,-3.5916,-3.5916,-3.6629,-3.711,0.0,0.0,0.0,0.0,0.0,0.0,0.0,0.0,0.0,0.0,0.0,0.0,0.0,0.0,0.0,0.0,0.0,0.0,0.0,0.0,0.0,0.0,0.0,0.0,0.0,0.0,0.0,0.0,0.0,0.0,0.0,0.0,0.0,0.0,0.0,0.0,0.0,0.0,0.0,0.0,0.0,0.0,0.0,0.0,0.0,0.0,0.0,0.0,0.0,0.0,0.0,0.0,0.0,0.0,0.0,0.0,0.0,0.0,0.0,0.0,0.0,0.0,0.0,0.0,0.0,0.0,0.0,0.0,0.0,0.0,0.0,0.0,0.0,0.0,0.0,0.0,0.0,0.0,0.0,0.0,0.0,0.0,0.0,0.0,0.0,0.0,0.0,0.0,0.0,0.0,0.0,0.0,0.0,0.0,0.0,0.0,0.0,0.0,0.0,0.0,0.0,0.0,0.0,-3.5484,-3.601,-3.6359,-3.6359,-3.6584,-3.6753,-3.6753,-3.696,-3.7336,-3.7906,0.0,0.0,0.0,0.0,0.0,0.0,0.0,0.0,0.0,0.0,0.0,0.0,0.0,0.0,0.0,0.0,0.0,0.0,0.0,0.0,0.0,0.0,0.0,0.0,0.0,0.0,0.0,0.0,0.0,0.0,0.0,0.0,0.0,0.0,0.0,0.0,0.0,0.0,0.0,0.0,0.0,0.0,0.0,0.0,0.0,0.0,0.0,0.0,0.0,0.0,0.0,0.0,0.0,0.0,0.0,0.0,0.0,0.0,0.0,0.0,0.0,0.0,0.0,0.0,0.0,0.0,0.0,0.0,0.0,0.0,0.0,0.0,0.0,0.0,0.0,0.0,0.0,0.0,0.0,0.0,0.0,0.0,0.0,0.0,0.0,0.0,0.0,0.0,0.0,0.0,0.0,0.0,0.0,0.0,0.0,0.0,0.0,0.0,0.0,0.0,0.0,0.0,-3.6385,-3.681,-3.711,-3.711,-3.738,-3.7568,-3.7568,-3.7899,-3.8269,-3.8677,0.0,0.0,0.0,0.0,0.0,0.0,0.0,0.0,0.0,0.0,0.0,0.0,0.0,0.0,0.0,0.0,0.0,0.0,0.0,0.0,0.0,0.0,0.0,0.0,0.0,0.0,0.0,0.0,0.0,0.0,0.0,0.0,0.0,0.0,0.0,0.0,0.0,0.0,0.0,0.0,0.0,0.0,0.0,0.0,0.0,0.0,0.0,0.0,0.0,0.0,0.0,0.0,0.0,0.0,0.0,0.0,0.0,0.0,0.0,0.0,0.0,0.0,0.0,0.0,0.0,0.0,0.0,0.0,0.0,0.0,0.0,0.0,0.0,0.0,0.0,0.0,0.0,0.0,0.0,0.0,0.0,0.0,0.0,0.0,0.0,0.0,0.0,0.0,0.0,0.0,0.0,0.0,0.0,0.0,0.0,0.0,0.0,0.0,0.0,0.0,0.0,0.0,-3.7223,-3.7279,-3.7336,-3.7336,-3.7981,-3.8432,-3.8432,-3.9114,-3.9496,-3.9298,0.0,0.0,0.0,0.0,0.0,0.0,0.0,0.0,0.0,0.0,0.0,0.0,0.0,0.0,0.0,0.0,0.0,0.0,0.0,0.0,0.0,0.0,0.0,0.0,0.0,0.0,0.0,0.0,0.0,0.0,0.0,0.0,0.0,0.0,0.0,0.0,0.0,0.0,0.0,0.0,0.0,0.0,0.0,0.0,0.0,0.0,0.0,0.0,0.0,0.0,0.0,0.0,0.0,0.0,0.0,0.0,0.0,0.0,0.0,0.0,-3.4456,0.0,0.0,0.0,0.0,0.0,0.0,0.0,0.0,0.0,0.0,0.0,0.0,0.0,0.0,0.0,0.0,0.0,0.0,0.0,0.0,0.0,0.0,0.0,0.0,0.0,0.0,0.0,0.0,0.0,0.0,0.0,0.0,0.0,0.0,0.0,0.0,0.0,0.0,0.0,0.0,0.0,-3.8037,-3.865,-3.9063,-3.9063,-3.9214,-3.9326,-3.9326,-3.9294,-3.9283,-3.9224,-3.9251,0.0,0.0,0.0,0.0,0.0,0.0,0.0,0.0,0.0,0.0,0.0,0.0,0.0,0.0,0.0,0.0,0.0,0.0,0.0,0.0,0.0,0.0,0.0,0.0,0.0,0.0,0.0,0.0,0.0,0.0,0.0,0.0,0.0,0.0,0.0,0.0,0.0,0.0,0.0,0.0,0.0,0.0,0.0,0.0,0.0,0.0,0.0,0.0,0.0,0.0,0.0,0.0,0.0,0.0,0.0,0.0,0.0,0.0,0.0,0.0,-3.4949,0.0,0.0,0.0,0.0,0.0,0.0,0.0,0.0,0.0,0.0,0.0,0.0,0.0,0.0,0.0,0.0,0.0,0.0,0.0,0.0,0.0,0.0,0.0,0.0,0.0,0.0,0.0,0.0,0.0,0.0,0.0,0.0,0.0,0.0,0.0,0.0,0.0,0.0,0.0,0.0,-3.892,-3.9326,-3.9589,-3.9589,-3.9589,-3.9589,-3.9589,-3.947,-3.9349,-3.9245,-3.9224,0.0,0.0,0.0,0.0,0.0,0.0,0.0,0.0,0.0,0.0,0.0,0.0,0.0,0.0,0.0,0.0,0.0,0.0,0.0,0.0,0.0,0.0,0.0,0.0,0.0,0.0,0.0,0.0,0.0,0.0,0.0,0.0,0.0,0.0,0.0,0.0,0.0,0.0,0.0,0.0,0.0,0.0,0.0,0.0,0.0,0.0,0.0,0.0,0.0,0.0,0.0,0.0,0.0,-3.613,-3.6136,-3.6019,-3.5986,-3.6228,-3.6665,-3.6056,-3.6022,-3.6292,-3.5025,0.0,0.0,0.0,0.0,0.0,0.0,0.0,0.0,0.0,0.0,0.0,0.0,0.0,0.0,0.0,0.0,0.0,0.0,0.0,0.0,0.0,0.0,0.0,0.0,-3.7679,-3.8011,0.0,0.0,0.0,0.0,0.0,0.0,0.0,0.0,0.0,0.0,0.0,0.0,-3.9608,-3.9552,-3.954,-3.9589,-3.9564,-3.9552,-3.9552,-3.9527,-3.94,-3.9219,-3.917,-3.9073,0.0,0.0,0.0,0.0,0.0,0.0,0.0,0.0,0.0,0.0,0.0,0.0,0.0,0.0,0.0,0.0,0.0,0.0,0.0,0.0,0.0,0.0,0.0,0.0,0.0,0.0,0.0,0.0,0.0,0.0,0.0,0.0,-3.4916,-3.4945,0.0,0.0,0.0,0.0,0.0,0.0,0.0,0.0,0.0,0.0,0.0,0.0,0.0,-3.5695,-3.5804,-3.649,-3.685,-3.685,-3.7437,-3.7694,-3.7677,-3.7486,-3.747,-3.7542,-3.7381,0.0,-3.6381,-3.6185,0.0,0.0,0.0,0.0,0.0,0.0,0.0,0.0,0.0,0.0,0.0,0.0,0.0,0.0,0.0,0.0,0.0,0.0,0.0,0.0,0.0,0.0,-3.875,-3.8586,-3.867,-3.8779,0.0,-3.8322,-3.8133,-3.8718,-3.9059,0.0,0.0,0.0,0.0,0.0,0.0,0.0,-3.9577,-3.9335,-3.9283,-3.9564,-3.9439,-3.9337,-3.9337,-3.9183,-3.9017,-3.8877,-3.8848,-3.8803,-3.8661,-3.8815,0.0,0.0,0.0,0.0,0.0,0.0,0.0,0.0,0.0,0.0,0.0,0.0,0.0,0.0,0.0,0.0,0.0,0.0,0.0,0.0,0.0,0.0,0.0,0.0,0.0,0.0,0.0,0.0,0.0,-3.4399,-3.4629,-3.4779,-3.4505,-3.4141,0.0,0.0,0.0,0.0,0.0,0.0,0.0,0.0,0.0,-3.6286,-3.6421,-3.6689,-3.7142,-3.7502,-3.7632,-3.7564,-3.7855,-3.7932,-3.7845,-3.7931,-3.7966,-3.7931,-3.8083,-3.7967,-3.7588,-3.6938,-3.6476,-3.6185,0.0,0.0,0.0,0.0,-3.7737,-3.7969,-3.7924,-3.8047,0.0,-3.8188,0.0,0.0,0.0,0.0,0.0,0.0,0.0,0.0,0.0,0.0,-3.8888,-3.868,-3.8773,-3.8862,-3.8755,-3.8625,-3.8665,0.0,-3.9288,-3.9373,-3.9129,0.0,0.0,0.0,0.0,-3.9251,-3.9413,-3.9237,-3.9156,-3.9309,-3.9237,-3.9178,-3.9178,-3.9115,-3.9031,-3.896,-3.8862,-3.8773,-3.871,-3.868,-3.8649,0.0,0.0,0.0,0.0,0.0,0.0,0.0,0.0,0.0,0.0,0.0,0.0,0.0,0.0,0.0,0.0,0.0,0.0,0.0,0.0,0.0,0.0,0.0,0.0,0.0,0.0,0.0,0.0,-3.4486,-3.4682,-3.4613,-3.4756,-3.4559,0.0,0.0,0.0,0.0,0.0,0.0,-3.5828,-3.6011,-3.6421,-3.7131,-3.7252,-3.7593,-3.8191,-3.8157,-3.8105,-3.8001,-3.7949,-3.7845,-3.7721,-3.8034,-3.8152,-3.8118,-3.8439,-3.8594,-3.8524,-3.769,-3.7342,-3.7374,-3.7694,-3.7827,-3.7915,-3.8615,-3.8984,-3.9129,-3.9082,-3.9147,-3.9269,-3.9256,0.0,-3.9197,-3.9183,0.0,0.0,0.0,0.0,-3.9142,-3.9003,-3.8917,-3.8785,-3.851,-3.8603,-3.8728,-3.8525,-3.8698,-3.8892,0.0,-3.9147,-3.9234,-3.8974,0.0,0.0,0.0,0.0,-3.9101,-3.9232,-3.9101,-3.9017,-3.9087,-3.9073,-3.9045,-3.9045,-3.9045,-3.9031,-3.9007,-3.8866,-3.8762,-3.8713,-3.8621,-3.8544,-3.851,0.0,0.0,0.0,0.0,0.0,0.0,0.0,0.0,0.0,0.0,0.0,0.0,0.0,0.0,0.0,0.0,0.0,0.0,0.0,0.0,0.0,0.0,0.0,0.0,0.0,0.0,0.0,0.0,0.0,-3.5511,-3.5999,0.0,0.0,0.0,0.0,-3.5618,-3.5736,-3.6061,-3.6701,-3.6855,-3.7321,-3.8101,-3.8154,-3.8172,-3.8209,-3.807,-3.8001,-3.8001,-3.781,-3.7703,-3.7703,-3.7983,-3.8101,-3.8118,-3.8439,-3.8594,-3.8594,-3.8542,-3.8508,-3.8539,-3.8868,-3.9013,-3.9059,-3.9413,-3.9564,-3.9552,-3.9495,-3.9482,-3.9469,-3.9418,-3.9301,-3.9183,-3.9129,-3.9248,0.0,0.0,-3.9156,-3.9073,-3.8935,-3.8664,-3.8417,-3.8322,-3.8368,-3.8415,-3.8399,-3.8621,-3.8743,0.0,-3.8698,-3.8837,-3.8822,0.0,-3.9036,-3.9101,-3.9007,-3.8964,-3.9087,-3.8881,-3.8825,-3.9073,-3.8993,-3.8906,-3.8906,-3.8906,-3.8851,-3.8738,-3.8723,-3.8658,-3.8525,-3.8624,-3.8624,-3.851,-3.8624,0.0,0.0,0.0,0.0,0.0,0.0,0.0,0.0,0.0,0.0,0.0,0.0,0.0,0.0,0.0,0.0,0.0,0.0,0.0,0.0,0.0,0.0,0.0,0.0,0.0,0.0,0.0,0.0,-3.5581,-3.6208,0.0,-3.5627,-3.6056,-3.6363,-3.6331,-3.6883,-3.7313,-3.7568,-3.7706,-3.7901,-3.8191,-3.8209,-3.8157,-3.807,-3.8018,-3.8034,-3.8135,-3.8068,-3.8117,-3.8279,-3.8597,-3.8733,-3.8785,-3.9654,-4.002,-4.0057,-4.0579,-4.0058,-3.8956,-3.9296,-3.9393,-3.9373,-3.9476,-3.9464,-3.9335,-3.9328,-3.9288,-3.9229,-3.9215,-3.9156,-3.9115,-3.8989,-3.9078,-3.9188,-3.9101,-3.9017,-3.895,-3.8866,-3.9053,-3.9197,-3.9037,-3.9536,-3.9999,-3.99,-4.0015,-4.0146,-4.0118,-3.9479,-3.9047,-3.9386,-3.958,-3.9897,-4.0429,-4.04,-4.0372,-4.0507,-3.9868,-3.9431,-3.9537,-3.8964,-3.8588,-3.8634,-3.8634,-3.8652,-3.8707,-3.8707,-3.8673,-3.8624,-3.8673,-3.8673,-3.8624,-3.8692,-3.8707,0.0,0.0,0.0,0.0,0.0,0.0,0.0,0.0,0.0,0.0,0.0,0.0,0.0,0.0,0.0,0.0,0.0,0.0,0.0,0.0,0.0,0.0,0.0,0.0,0.0,0.0,-3.6374,-3.5648,-3.6528,-3.6852,-3.6023,-3.6705,-3.7209,-3.721,-3.773,-3.8053,-3.8053,-3.8157,-3.8317,-3.8607,-3.8607,-3.8733,-3.8966,-3.895,-3.9017,-3.9213,-3.9199,-3.928,-3.9436,-3.9771,-3.9914,-3.9965,-4.083,-4.121,-4.1248,-4.1779,-4.1242,-4.0103,-4.0295,-4.0352,-4.0319,-4.0274,-4.0176,-4.0076,-3.9988,-3.9988,-4.0007,-3.9904,-3.9923,-3.9937,-3.983,-3.9855,-3.9908,-3.9833,-3.9749,-3.9663,-3.9617,-3.9829,-4.0054,-3.9905,-4.0372,-4.0839,-4.0756,-4.0842,-4.0943,-4.0996,-4.0278,-3.9786,-4.0166,-4.0352,-4.0627,-4.1146,-4.1158,-4.1144,-4.1222,-4.065,-4.0244,-4.0244,-3.968,-3.9335,-3.9365,-3.9143,-3.9012,-3.9111,-3.8854,-3.8707,-3.8707,-3.8707,-3.8707,-3.8707,-3.8658,-3.8609,-3.8611,0.0,0.0,0.0,0.0,0.0,0.0,0.0,0.0,0.0,0.0,0.0,0.0,0.0,0.0,0.0,0.0,0.0,0.0,0.0,0.0,0.0,0.0,0.0,-3.5653,-3.6245,-3.6494,-3.5853,-3.7032,-3.7645,-3.6918,-3.7549,-3.8071,-3.8228,-3.8245,-3.8263,-3.8264,-3.8264,-3.8644,-3.9459,-3.9459,-3.9923,-4.0939,-4.0856,-4.0956,-4.1212,-4.1151,-4.1121,-4.1135,-4.1408,-4.1522,-4.1537,-4.1897,-4.2042,-4.2042,-4.2079,-4.2079,-4.2066,-4.1957,-4.1892,-4.1879,-4.1829,-4.1801,-4.1773,-4.1549,-4.1626,-4.1745,-4.1475,-4.1508,-4.1649,-4.1519,-4.1538,-4.1549,-4.1418,-4.1295,-4.1188,-4.1188,-4.1009,-4.0825,-4.0843,-4.0861,-4.0879,-4.0879,-4.0984,-4.1071,-4.1071,-4.1071,-4.1086,-4.1115,-4.1132,-4.115,-4.1168,-4.1168,0.0,-4.1168,-4.115,-4.1132,-4.1132,-4.1113,-4.1095,-4.1095,-4.0377,-3.9937,-3.9937,-3.9184,-3.8744,-3.8744,-3.871,-3.8692,-3.8692,-3.8559,-3.8462,-3.8399,0.0,0.0,0.0,0.0,0.0,0.0,0.0,0.0,0.0,0.0,0.0,0.0,0.0,0.0,0.0,0.0,0.0,0.0,0.0,0.0,0.0,0.0,-3.7023,-3.6391,-3.7071,-3.757,-3.7387,-3.7818,-3.8051,-3.7814,-3.803,-3.8392,-3.9007,-3.9078,-3.928,-3.977,-3.9841,-4.0309,-4.1248,-4.077,-4.0976,-4.1979,-4.1376,-4.1193,-4.1419,-4.1408,-4.153,-4.1768,-4.1819,-4.186,-4.1897,-4.2634,-4.2938,-4.2994,-4.3562,-4.3779,-4.3624,-4.2374,-4.1884,-4.1829,-4.1801,-4.1801,-4.1754,-4.1464,-4.1433,-4.146,-4.1214,-4.1151,-4.1167,-4.1042,-4.1056,-4.1153,-4.1056,-4.0993,-4.0926,-4.0976,-4.1297,-4.1559,-4.1488,-4.196,-4.2468,-4.2468,-4.2505,-4.2541,-4.2576,-4.2594,-4.2464,-4.2032,-4.1974,-4.2176,-4.2745,-4.2837,0.0,-4.2837,-4.229,-4.1908,-4.1908,-4.129,-4.0909,-4.1013,-4.0828,-4.0716,-4.0765,-3.9965,-3.9511,-3.9511,-3.8841,-3.8481,-3.8481,-3.8465,-3.8415,0.0,0.0,0.0,0.0,0.0,0.0,0.0,0.0,0.0,0.0,0.0,0.0,0.0,0.0,0.0,0.0,0.0,0.0,0.0,0.0,0.0,0.0,-3.7914,-3.7851,-3.7416,-3.7846,-3.817,-3.8087,-3.8511,-3.8829,-3.8829,-3.912,-3.9504,-3.9961,-3.9876,-4.0185,-4.1017,-4.1125,-4.1775,-4.3204,-4.2502,-4.2597,-4.3601,-4.2823,-4.2537,-4.2762,-4.2762,-4.2847,-4.3055,-4.3055,-4.3028,0.0,-4.3498,-4.3676,-4.3623,-4.409,-4.4252,0.0,0.0,0.0,0.0,0.0,-4.2608,-4.2465,-4.2182,-4.2182,-4.2247,-4.1997,-4.1982,-4.2032,-4.1896,-4.1895,-4.1946,-4.1879,-4.1828,-4.181,-4.1863,-4.2139,-4.2414,-4.2359,-4.2741,-4.3142,-4.3142,-4.3142,-4.316,-4.3196,-4.3214,0.0,-4.2736,-4.268,-4.2844,-4.3284,-4.3428,-4.3464,-4.3464,-4.3042,-4.2749,-4.2749,-4.2258,-4.1966,-4.2035,-4.1708,0.0,0.0,0.0,-4.0218,-4.0218,-3.9382,0.0,0.0,0.0,-3.8336,-3.8322,0.0,0.0,0.0,-3.8478,-3.8525,0.0,0.0,0.0,0.0,0.0,0.0,0.0,0.0,0.0,0.0,0.0,0.0,0.0,0.0,0.0,0.0,-3.9451,-3.8976,-3.875,-3.8797,-3.8732,-3.8419,-3.9254,-3.9891,-3.9891,-4.0533,-4.1011,-4.1129,-4.0924,-4.127,-4.2391,0.0,0.0,0.0,0.0,-4.4459,-4.5482,-4.4602,-4.4258,-4.4501,-4.4501,-4.4501,-4.4501,-4.4487,-4.4416,-4.43,-4.4285,-4.4162,-4.3989,-4.3989,-4.3926,-4.3849,-4.3926,-4.4067,-4.4192,-4.3945,-4.3699,-4.3479,-4.3286,0.0,0.0,-4.3232,-4.3286,-4.341,-4.3285,-4.3249,-4.3232,-4.3178,-4.3178,-4.3178,-4.3178,-4.3178,-4.316,-4.3196,-4.3196,-4.3196,-4.3196,-4.3196,-4.3178,-4.316,-4.3178,-4.3178,-4.3178,-4.3178,-4.3214,-4.3214,-4.3305,-4.3376,-4.3376,-4.3428,-4.348,-4.348,0.0,0.0,-4.348,-4.277,-4.2316,-4.2316,-4.1427,-4.0883,-4.0756,-4.0081,-3.9683,-3.9599,-3.8926,-3.853,-3.8462,-3.8462,-3.8496,-3.8545,-3.849,-3.8494,0.0,0.0,0.0,0.0,0.0,0.0,0.0,0.0,0.0,0.0,0.0,0.0,0.0,0.0,0.0,-4.0859,-4.1148,-4.1194,-4.0717,-4.0888,-4.0666,-3.9534,-4.0349,-4.0987,-4.0987,-4.1132,-4.1778,-4.3127,-4.317,-4.3763,-4.5145,-4.5326,-4.5942,-4.7144,-4.5781,-4.5534,-4.6656,-4.5175,-4.444,-4.4501,0.0,0.0,-4.4501,-4.4387,-4.4329,-4.4285,-4.4131,-4.4008,-4.3913,-4.3913,-4.3732,-4.3425,-4.3614,-4.3714,-4.373,-4.3615,-4.3615,-4.3614,-4.3304,-4.3268,-4.3303,-4.3032,-4.2976,-4.3013,-4.2976,-4.2976,0.0,-4.2957,-4.2975,-4.2975,-4.2975,-4.2975,-4.2994,-4.3086,-4.3123,-4.3123,-4.3123,-4.3123,-4.3086,-4.2975,-4.2975,-4.2975,-4.2975,-4.3087,-4.3214,-4.3214,-4.3233,-4.3233,-4.3233,-4.3251,-4.3269,-4.3269,-4.3269,-4.3269,-4.3269,-4.3105,-4.3014,-4.3014,-4.2177,-4.1342,-4.0599,-4.04,-4.0328,-4.031,-4.0147,-4.0057,-4.0075,-4.0075,-4.0057,-4.0057,-3.8888,-3.8401,0.0,0.0,0.0,0.0,0.0,0.0,0.0,0.0,0.0,0.0,0.0,-4.0959,0.0,0.0,-4.1852,-4.2151,-4.209,-4.1865,-4.1505,-4.2071,-4.2,-4.0664,-4.1462,-4.2114,-4.2114,-4.2823,-4.3642,-4.4445,-4.4741,-4.5482,-4.6769,-4.6913,-4.7456,-4.856,-4.7411,-4.7023,-4.7594,-4.6373,-4.5504,-4.5001,-4.5001,-4.4751,-4.4252,-4.4192,-4.4101,-4.4042,-4.3929,-4.38,-4.3671,-4.3973,-4.4235,-4.44,-4.4437,-4.3962,-4.3249,-4.3356,-4.3356,-4.3267,-4.3123,-4.3069,-4.3087,-4.2939,-4.2901,-4.2901,-4.2901,-4.2901,-4.2992,-4.339,-4.3498,-4.3588,-4.3987,-4.4095,-4.4134,-4.4267,-4.4304,-4.4323,-4.4342,-4.4343,-4.4324,-4.4268,-4.425,-4.425,-4.425,-4.3979,-4.3578,-4.3104,-4.3105,-4.316,-4.316,-4.3178,-4.3214,-4.3214,-4.3214,-4.3214,-4.3214,-4.316,-4.3123,-4.305,-4.265,-4.2195,-4.1723,-4.1307,-4.1089,-4.1089,-4.0709,-4.0492,-4.0492,-4.0492,-4.0492,-4.0474,-3.973,-3.947,0.0,0.0,0.0,0.0,0.0,0.0,0.0,0.0,-3.9069,-4.0377,-4.1067,-4.162,-4.2279,-4.2448,-4.2718,-4.3366,-4.2929,-4.2439,-4.2272,-4.2978,-4.3133,-4.2028,-4.2683,-4.3281,-4.343,-4.4614,-4.5478,-4.5767,-4.6151,-4.6859,-4.7984,-4.8004,-4.8455,-4.9456,-4.8645,-4.8179,-4.813,-4.7342,-4.6521,-4.5677,-4.5677,-4.5246,-4.4472,-4.4438,-4.4378,-4.4249,-4.4182,-4.4028,-4.3852,-4.4306,-4.4884,-4.5446,-4.5349,-4.4512,-4.3391,-4.3652,-4.356,-4.3372,-4.341,-4.3391,-4.3372,-4.3409,-4.3372,-4.3372,-4.3372,-4.3372,-4.3498,-4.415,-4.4331,-4.4476,-4.5128,-4.5291,-4.5329,-4.5465,-4.5504,-4.5525,-4.5584,-4.5622,-4.5622,-4.5603,-4.5603,-4.5603,-4.5603,-4.5017,-4.4212,-4.3319,-4.3121,-4.3049,-4.3049,-4.3105,-4.3142,-4.3142,-4.3142,-4.3142,-4.3142,-4.3087,-4.303,-4.2919,-4.2901,-4.2901,-4.2901,-4.2285,-4.1922,-4.1922,-4.1307,-4.0981,-4.0981,-4.0981,-4.0981,-4.0981,-4.0981,-4.0871,-3.6799,-3.756,-3.8518,-3.9311,-3.9605,-4.0248,0.0,0.0,-4.1669,-4.3001,-4.3467,-4.3679,-4.3831,-4.4053,-4.4215,-4.4194,-4.4224,-4.4219,-4.4191,-4.428,-4.4285,-4.4092,-4.4224,-4.4604,-4.5331,-4.5556,-4.6273,-4.7755,-4.7753,-4.8151,-4.924,-4.9132,-4.9169,-4.949,-4.8645,-4.81,-4.7943,-4.714,-4.6594,-4.6308,-4.6308,-4.6236,-4.6127,-4.6012,-4.5945,-4.591,-4.5553,-4.5348,-4.5269,-4.5225,-4.5238,-4.5329,-4.5309,-4.5182,-4.5057,-4.5212,-4.5155,-4.5057,-4.5234,-4.5176,-4.5057,-4.5173,-4.5116,-4.5037,-4.5037,-4.5037,-4.5055,-4.5146,-4.5164,-4.5182,-4.5273,-4.5291,-4.5329,-4.5465,-4.5544,-4.5584,-4.5603,-4.5697,-4.5735,-4.5622,-4.5603,-4.5603,-4.5603,-4.5472,-4.5085,-4.4267,-4.3447,-4.2919,-4.2919,-4.2938,-4.292,-4.292,-4.292,-4.292,-4.292,-4.2938,-4.2919,-4.2901,-4.2901,-4.2901,-4.2901,-4.281,-4.2755,-4.2755,-4.2665,-4.2629,-4.2629,-4.2629,-4.2629,-4.2629,-4.2629,-4.1941,-3.7871,-3.8773,-3.9547,-4.0056,-4.0562,-4.1196,-4.2141,-4.2032,-4.2121,-4.333,-4.3781,-4.3974,-4.4079,-4.4248,-4.4387,0.0,-4.4473,-4.4501,-4.4501,-4.4501,-4.4473,-4.434,-4.4857,-4.5326,-4.5621,-4.6138,-4.6892,-4.7944,-4.854,-4.8971,-4.9311,-4.9361,-4.9361,-4.9329,-4.8974,-4.8688,-4.8472,-4.8155,-4.7644,-4.6974,-4.6974,-4.6682,-4.6098,-4.6046,-4.5992,-4.5938,-4.5659,-4.5779,-4.6194,-4.6055,-4.6269,-4.6703,-4.6703,-4.6703,-4.6595,-4.5713,-4.5349,-4.5311,-4.539,-4.537,-4.5309,-4.5368,-4.5349,-4.5291,-4.5291,-4.5291,-4.5399,-4.587,-4.5997,-4.6106,-4.6576,-4.6703,-4.6724,-4.6844,-4.6946,-4.7009,-4.7085,-4.7182,-4.7239,-4.7183,-4.7164,-4.7164,-4.7164,-4.6663,-4.6147,-4.5819,-4.4919,-4.4132,-4.3661,-4.3588,-4.3407,-4.2955,-4.2901,-4.2901,-4.2901,-4.2901,-4.2901,-4.2901,-4.2901,-4.2901,-4.2901,-4.2901,-4.2901,-4.2901,-4.2901,-4.2901,-4.2901,-4.2901,-4.2901,-4.2901,-4.2901,-4.2575,-3.833,-3.9302,-4.0095,-4.0348,-4.1143,-4.1905,-4.205,-4.2177,-4.2501,-4.3281,-4.3666,-4.3878,-4.3968,-4.4158,-4.4329,-4.443,-4.4487,-4.4501,-4.4501,-4.4487,-4.4519,-4.4643,-4.5259,-4.5719,-4.5855,-4.6705,-4.7404,-4.7807,-4.8779,-4.9281,-4.9131,-4.9265,-4.9281,-4.9113,-4.9113,-4.9029,-4.882,-4.882,-4.8418,-4.7647,-4.7647,-4.7279,-4.6562,-4.6544,-4.6487,-4.6372,-4.6217,-4.6464,-4.6969,-4.6869,-4.7174,-4.7717,-4.7717,-4.7717,-4.7572,-4.6395,-4.5961,-4.5961,-4.6041,-4.6021,-4.5961,-4.6019,-4.5981,-4.5961,-4.5961,-4.5961,-4.6087,-4.6667,-4.683,-4.6975,-4.7554,-4.7738,-4.778,-4.7881,-4.7986,-4.809,-4.8187,-4.8247,-4.8306,-4.8306,-4.8306,-4.8306,-4.8306,-4.7656,-4.7135,-4.7135,-4.6464,-4.5599,-4.4548,-4.424,-4.3878,-4.33,-4.3027,-4.2901,-4.2901,-4.2901,-4.2901,-4.2901,-4.2901,-4.2901,-4.2901,-4.2901,-4.2901,-4.2901,-4.2901,-4.2901,-4.2901,-4.2901,-4.2901,-4.2901,-4.2901,-4.2901,-3.7667,-3.8561,-3.9721,-4.0113,-4.125,-4.2472,-4.3192,-4.3391,-4.3408,-4.332,-4.3511,-4.3695,-4.3712,-4.4036,-4.43,-4.43,-4.4416,-4.4501,-4.4501,-4.444,-4.4697,-4.5469,-4.5581,-4.5874,0.0,-4.7357,-4.7826,-4.7715,-4.8461,-4.8926,-4.8909,-4.8926,-4.8926,-4.8909,-4.8909,-4.8803,-4.8605,-4.8605,-4.8495,-4.8269,-4.8269,-4.8251,-4.8233,-4.8173,-4.8034,-4.7847,-4.7829,-4.7785,-4.7681,-4.7681,-4.7681,-4.7717,-4.7717,-4.7717,-4.7678,-4.7663,-4.7645,-4.7666,-4.7856,-4.7795,-4.7645,-4.7788,-4.7728,-4.7645,-4.7645,-4.7645,-4.7645,-4.7663,-4.7663,-4.7681,-4.7678,-4.7798,-4.7881,-4.7881,-4.8046,-4.8187,-4.8187,-4.8247,-4.8306,-4.8306,-4.8306,-4.8306,-4.8306,-4.8113,-4.7955,-4.7955,-4.7772,-4.7065,-4.5472,-4.4584,-4.4077,-4.4059,-4.3372,-4.2901,-4.2901,-4.2901,-4.2901,-4.2901,-4.2901,-4.2901,-4.2901,-4.2901,-4.2901,-4.2901,-4.2901,-4.2901,-4.2901,-4.2901,-4.2901,-4.2901,-4.2901,-4.2901,-3.807,-3.92,-4.0443,-4.0683,-4.1932,-4.315,-4.3356,-4.3569,-4.3617,-4.3356,-4.3548,-4.3751,-4.3714,-4.3908,-4.4097,-4.4097,-4.4325,-4.4473,-4.4387,-4.4401,-4.4495,-4.4718,-4.5163,0.0,0.0,0.0,0.0,-4.7698,-4.8461,-4.8909,-4.8909,-4.8909,-4.8838,-4.8714,-4.8714,-4.8587,-4.8383,-4.8401,-4.8363,-4.8306,-4.8306,-4.8286,-4.8228,-4.813,-4.8008,-4.7899,-4.7819,-4.7738,-4.7717,-4.7717,-4.7717,-4.7717,-4.7717,-4.7717,-4.7717,-4.7717,-4.7717,-4.7699,-4.7783,-4.7762,-4.7717,-4.7759,-4.7738,-4.7717,-4.7717,-4.7717,-4.7717,-4.7717,-4.7717,-4.7717,-4.7717,-4.7738,-4.7759,-4.7759,-4.7884,-4.8004,-4.8004,-4.805,-4.8111,-4.8111,-4.8111,-4.8111,-4.8111,-4.8008,-4.7886,-4.7824,-4.7288,-4.6721,-4.6178,-4.5399,-4.4892,-4.4892,-4.4168,-4.3697,-4.3697,-4.3227,-4.2901,-4.2901,-4.2901,-4.2901,-4.2901,-4.2901,-4.2901,-4.2901,-4.2901,-4.2901,-4.2901,-4.2901,-4.2901,-4.2901,-4.2901,-4.2901,-3.8241,-3.9302,-4.0458,-4.0838,-4.2,-4.3132,-4.3373,-4.3618,-4.3703,-4.3339,-4.3549,-4.3753,-4.3666,-4.3798,-4.3926,-4.3989,-4.4203,-4.434,-4.4252,-4.43,-4.4441,-4.4722,-4.5124,-4.5395,0.0,0.0,0.0,-4.7492,-4.8304,-4.8767,-4.8678,-4.875,-4.8714,-4.8495,-4.8495,-4.8439,-4.8306,-4.8306,-4.8306,-4.8306,-4.8306,-4.8229,-4.8128,-4.8032,-4.7947,-4.7819,-4.7738,-4.7717,-4.7717,-4.7717,-4.7717,-4.7717,-4.7717,-4.7717,-4.7717,-4.7717,-4.7717,-4.7717,-4.7717,-4.7717,-4.7717,-4.7717,-4.7717,-4.7717,-4.7717,-4.7717,-4.7717,-4.7717,-4.7717,-4.7717,-4.7717,-4.7738,-4.7759,-4.7759,-4.7863,-4.7945,-4.7945,-4.797,-4.7992,-4.7992,-4.7992,-4.7992,-4.7992,-4.7927,-4.7861,-4.7717,-4.7265,-4.6939,-4.6939,-4.6232,-4.5725,-4.5725,-4.5001,-4.453,-4.453,-4.3788,-4.3317,-4.3317,-4.3064,-4.2901,-4.2901,-4.2901,-4.2901,-4.2901,-4.2901,-4.2901,-4.2901,-4.2901,-4.2901,-4.2901,-4.2901,-4.2901,-3.8209,-3.8907,-3.9841,-4.0606,-4.1582,-4.2561,-4.3332,-4.3652,-4.3669,-4.3286,-4.3497,-4.3719,0.0,0.0,-4.3851,-4.3974,-4.4064,-4.4124,-4.4091,-4.4147,-4.4524,0.0,0.0,0.0,0.0,0.0,0.0,-4.7168,0.0,-4.8495,-4.8325,-4.8495,-4.8495,-4.8306,-4.8306,-4.8306,-4.8306,-4.8306,-4.8306,-4.8306,-4.8287,-4.819,-4.7992,-4.7992,-4.7888,-4.7717,-4.7717,-4.7717,-4.7717,-4.7717,-4.7717,-4.7717,-4.7717,-4.7717,-4.7717,-4.7717,-4.7717,-4.7717,-4.7717,-4.7717,-4.7717,-4.7717,-4.7717,-4.7717,-4.7717,-4.7717,-4.7717,-4.7717,-4.7717,-4.7717,-4.7717,-4.778,-4.7881,-4.7881,-4.7927,-4.7972,-4.7972,-4.7972,-4.7972,-4.7972,-4.7972,-4.7972,-4.7972,-4.7927,-4.784,-4.7717,-4.7717,-4.7717,-4.7717,-4.7029,-4.6558,-4.6558,-4.5852,-4.5363,-4.5363,-4.4621,-4.415,-4.415,-4.3444,-4.3028,-4.3028,-4.2992,-4.2955,-4.2955,-4.2919,-4.2901,-4.2901,-4.2901,-4.2901,-4.2901,-4.2901,-4.2901,-3.8209,-3.9291,-4.0484,-4.0735,-4.1969,-4.319,-4.3442,-4.3583,-4.3566,-4.325,-4.3427,-4.3617,0.0,0.0,0.0,-4.3989,-4.4147,0.0,-4.4106,-4.4082,0.0,-4.458,0.0,-4.4737,-4.6212,-4.6301,0.0,0.0,-4.8234,-4.842,-4.8514,-4.8439,-4.8363,-4.8306,-4.8306,-4.8306,-4.8306,-4.8306,-4.8306,-4.8306,-4.8247,-4.8149,-4.7992,-4.7947,-4.7842,-4.7717,-4.7717,-4.7717,-4.7717,-4.7717,-4.7717,-4.7717,-4.7717,-4.7717,-4.7717,-4.7717,-4.7717,-4.7717,-4.7717,-4.7717,-4.7717,-4.7717,-4.7717,-4.7717,-4.7717,-4.7717,-4.7717,-4.7717,-4.7717,-4.7717,-4.7717,-4.7738,-4.7759,-4.7759,-4.7762,-4.7783,-4.7783,-4.7783,-4.7783,-4.7783,-4.7783,-4.7783,-4.7783,-4.7762,-4.7738,-4.7717,-4.7717,-4.7717,-4.7717,-4.7515,-4.7391,-4.7391,-4.6667,-4.6196,-4.6196,-4.5454,-4.4983,-4.4983,-4.4802,-4.4693,-4.4693,-4.4114,-4.3788,-4.3788,-4.3227,-4.2901,-4.2901,-4.2901,-4.2901,-4.2901,-4.2901,-4.2901,-3.8241,-3.9216,-4.0319,-4.0698,-4.1843,-4.299,-4.3355,-4.3532,-4.3422,-4.2759,-4.3154,-4.3471,-4.3054,-4.3494,0.0,0.0,0.0,0.0,-4.4064,-4.4017,-4.4051,0.0,-4.4294,0.0,-4.6178,-4.6377,-4.6948,0.0,-4.8306,-4.8344,-4.8458,-4.8363,-4.8306,-4.8306,-4.8306,-4.8306,-4.8306,-4.8306,-4.8306,-4.8306,-4.8228,-4.813,-4.7992,-4.7925,-4.784,-4.7717,0.0,-4.7717,-4.7717,-4.7717,-4.7717,-4.7717,-4.7717,-4.7717,-4.7717,-4.7717,-4.7935,-4.8221,-4.8221,-4.846,-4.8641,-4.7935,-4.7717,-4.7717,-4.7717,-4.7717,-4.7717,-4.7717,-4.7717,-4.7717,-4.7717,-4.7717,-4.7717,-4.7717,-4.7717,-4.7717,-4.7717,-4.7717,-4.7717,-4.7717,-4.7717,-4.7717,-4.7717,-4.7717,-4.7717,-4.7717,-4.7717,-4.7717,-4.7717,-4.7717,-4.7717,-4.7717,-4.7301,-4.7029,-4.7029,-4.6287,-4.5834,-4.5834,-4.549,-4.5291,-4.5291,-4.4874,-4.4621,-4.4621,-4.4168,-4.3951,-4.3951,-4.3951,-4.3951,-4.3951,-4.3951,-4.3951,-3.8322,-3.8937,-3.9752,-4.0495,-4.1422,-4.2369,-4.3082,-4.3424,-4.3294,-4.2304,-4.2881,-4.3344,-4.2612,-4.3205,-4.3867,-4.4005,0.0,-4.402,-4.4036,-4.4005,-4.4039,-4.4153,-4.4654,-4.5335,-4.6181,-4.6764,-4.7424,-4.8251,-4.8306,-4.8306,-4.8306,-4.8306,-4.8306,-4.8306,-4.8306,-4.8306,-4.8306,-4.8306,-4.8306,-4.8306,-4.8208,-4.811,-4.7992,-4.7925,-4.7819,-4.7717,-4.7717,0.0,-4.7717,-4.7717,-4.7717,-4.7717,-4.7717,-4.7772,-4.7859,-4.7859,-4.8387,-4.9075,-4.9075,-4.9528,-4.9836,-4.8351,-4.7859,-4.7823,-4.7735,-4.7717,-4.7717,-4.7717,-4.7717,-4.7717,-4.7717,-4.7717,-4.7717,-4.7717,-4.7717,-4.7717,-4.7717,-4.7717,-4.7717,-4.7717,-4.7717,-4.7717,-4.7717,-4.7717,-4.7717,-4.7717,-4.7717,-4.7717,-4.7717,-4.7717,-4.7717,-4.7717,-4.7717,-4.7717,-4.7717,-4.7065,-4.6667,-4.6667,-4.5997,-4.5617,-4.5617,-4.5526,-4.5454,-4.5454,-4.5345,-4.5291,-4.5291,-4.5291,-4.5291,-4.5291,-4.5291,-4.5291,-3.8401,-3.8937,-3.9593,-3.9889,-4.1003,-4.2099,-4.2419,-4.302,0.0,0.0,-4.3336,-4.3494,-4.3396,-4.3687,-4.4039,-4.4226,-4.4158,-4.4109,-4.4222,-4.4055,-4.3929,0.0,-4.4572,-4.5301,-4.6062,-4.6728,0.0,0.0,0.0,-4.8306,-4.8306,-4.8306,-4.8306,-4.8306,-4.8306,-4.8306,-4.8306,-4.8306,-4.8306,-4.8287,-4.8111,-4.8012,-4.7992,-4.7824,-4.7717,-4.7717,-4.7717,0.0,-4.7717,-4.7717,-4.7717,-4.7717,-4.7717,-4.8094,-4.8674,-4.8674,-4.9202,-4.9872,-4.9872,-4.9985,-4.9927,-4.9003,-4.8674,-4.8565,-4.7916,-4.7717,-4.7717,-4.7717,-4.7717,-4.7717,-4.7717,-4.7717,-4.7717,-4.7717,-4.7717,-4.7717,-4.7717,-4.7717,-4.7717,-4.7717,-4.7717,-4.7717,-4.7717,-4.7717,-4.7717,-4.7717,-4.7717,-4.7717,-4.7717,-4.7717,-4.7717,-4.7717,-4.7717,-4.7717,-4.7717,-4.7551,-4.75,-4.75,-4.7373,-4.7283,-4.7283,-4.6649,-4.6287,-4.6287,-4.5635,-4.5291,-4.5291,-4.5291,-4.5291,-4.5291,-4.5291,-4.5291,-3.8415,-3.8658,-3.9044,-3.9564,-4.0239,-4.0896,-4.1452,0.0,0.0,0.0,-4.2824,-4.3385,-4.3028,-4.3488,0.0,-4.4158,-4.4109,-4.4097,-4.4226,-4.407,0.0,-4.3942,-4.4973,-4.5796,0.0,-4.7169,0.0,0.0,0.0,-4.8306,-4.8306,-4.8306,-4.8306,-4.8306,-4.8306,-4.8306,-4.8306,-4.8306,-4.8267,-4.8247,-4.8072,-4.799,-4.7947,-4.778,-4.7717,-4.7717,-4.7717,0.0,-4.7717,-4.7717,-4.7717,-4.7717,-4.7717,-4.8206,-4.8891,-4.8891,-4.9673,-5.0728,-5.0728,-5.1017,-5.1212,-5.0416,-4.9582,-4.8818,-4.8438,-4.8022,-4.7717,-4.7717,-4.7717,-4.7717,-4.7717,-4.7717,-4.7717,-4.7717,-4.7717,-4.7717,-4.7717,-4.7717,-4.7717,-4.7717,-4.7717,-4.7717,-4.7717,-4.7717,-4.7717,-4.7717,-4.7717,-4.7717,-4.7717,-4.7717,-4.7717,-4.7717,-4.7717,-4.7717,-4.7717,-4.7717,-4.7717,-4.7717,-4.7717,-4.7717,-4.7717,-4.7337,-4.712,-4.712,-4.6757,-4.6558,-4.6558,-4.6558,-4.6558,-4.6558,-4.6558,-4.6558,-3.8446,-3.8415,-3.8544,-3.9185,-3.946,-3.9768,-4.0489,-4.1344,0.0,-4.1241,-4.2239,-4.3128,-4.2717,-4.3277,-4.3851,0.0,-4.4036,-4.4055,-4.4184,-4.4085,-4.3989,0.0,-4.534,0.0,-4.6188,0.0,0.0,0.0,0.0,0.0,-4.8306,-4.8306,-4.8306,-4.8306,-4.8306,-4.8306,-4.8306,-4.8305,-4.8247,-4.8187,-4.805,-4.7947,-4.7899,-4.7759,-4.7717,-4.7717,-4.7717,0.0,0.0,-4.7717,-4.7717,-4.7717,-4.7717,-4.8315,-4.9166,-4.9166,-5.018,-5.1556,-5.1556,-5.1973,-5.2389,-5.1756,-5.047,-4.913,-4.8945,-4.833,-4.7717,-4.7717,-4.7717,-4.7717,-4.7717,-4.7717,-4.7717,-4.7717,-4.7717,-4.7717,-4.7717,-4.7717,-4.7717,-4.7717,-4.7717,-4.7717,-4.7717,-4.7717,-4.7717,-4.7717,-4.7717,-4.7717,-4.7717,-4.7717,-4.7717,-4.7717,-4.7717,-4.7717,-4.7717,-4.7717,-4.7717,-4.7717,-4.7717,-4.7717,-4.7717,-4.7717,-4.7717,-4.7717,-4.7717,-4.7717,-4.7717,-4.7717,-4.7717,-4.7717,-4.7717,-4.7717,-3.8525,-3.8446,-3.8417,-3.849,-3.9008,-3.9574,-3.9833,0.0,-4.1306,-4.2032,-4.2288,-4.2598,-4.3276,-4.3614,-4.3837,0.0,0.0,-4.4055,-4.4184,-4.4085,-4.3974,-4.3913,0.0,0.0,-4.6119,0.0,0.0,0.0,0.0,0.0,-4.8306,-4.8306,-4.8306,-4.8306,-4.8306,-4.8306,-4.8306,-4.8228,-4.8207,-4.8187,-4.7986,-4.7902,-4.7899,-4.7759,-4.7717,-4.7717,-4.7717,0.0,0.0,-4.7717,-4.7717,-4.7717,-4.7717,-4.8641,-5.0003,-5.0003,-5.0995,-5.2389,-5.2389,-5.2426,-5.248,-5.2408,-5.1285,-4.9836,-4.913,-4.833,-4.7717,-4.7717,-4.7717,-4.7717,-4.7717,-4.7717,-4.7717,-4.7717,-4.7717,-4.7717,-4.7717,-4.7717,-4.7717,-4.7717,-4.7717,-4.7717,-4.7717,-4.7717,-4.7717,-4.7717,-4.7717,-4.7717,-4.7717,-4.7717,-4.7717,-4.7717,-4.7717,-4.7717,-4.7717,-4.7717,-4.7717,-4.7717,-4.7717,-4.7717,-4.7717,-4.7717,-4.7717,-4.7717,-4.7717,-4.7717,-4.7717,-4.7717,-4.7717,-4.7717,-4.7717,-4.7717,-3.8269,-3.8334,-3.8462,-3.8462,-3.8668,-3.894,-3.9106,0.0,-4.052,-4.139,-4.1974,-4.2543,-4.3349,-4.3566,-4.3669,0.0,0.0,0.0,-4.4055,-4.4008,-4.3926,-4.3961,-4.4983,0.0,0.0,0.0,0.0,0.0,0.0,0.0,-4.8306,-4.8306,-4.8306,-4.8306,-4.8306,-4.8306,-4.8306,-4.8228,-4.8168,-4.807,-4.7945,-4.7861,-4.778,-4.7717,-4.7717,-4.7717,-4.7717,0.0,0.0,-4.7717,-4.7717,-4.7717,-4.7717,-4.8677,-5.0112,-5.0112,-5.1126,-5.2498,-5.2498,-5.2498,-5.2426,-5.1937,-5.1036,-5.0057,-4.9709,-4.8713,-4.7717,-4.7717,-4.7717,-4.7717,-4.7717,-4.7717,-4.7717,-4.7717,-4.7717,-4.7717,-4.7717,-4.7717,-4.7717,-4.7717,-4.7717,-4.7717,-4.7717,-4.7717,-4.7717,-4.7717,-4.7717,-4.7717,-4.7717,-4.7717,-4.7717,-4.7717,-4.7717,-4.7717,-4.7717,-4.7717,-4.7717,-4.7717,-4.7717,-4.7717,-4.7717,-4.7717,-4.7717,-4.7717,-4.7717,-4.7717,-4.7717,-4.7717,-4.7717,-4.7717,-4.7717,-4.7717,-3.7914,-3.8085,-3.8332,-3.83,-3.838,-3.8494,0.0,0.0,-3.966,-4.0547,-4.1387,-4.2194,-4.3002,-4.3332,-4.3549,0.0,0.0,-4.3682,-4.3913,-4.3913,-4.3913,0.0,0.0,0.0,0.0,0.0,0.0,0.0,0.0,0.0,-4.8306,-4.8306,-4.8306,-4.8306,-4.8306,-4.8287,-4.8267,-4.8189,-4.807,-4.797,-4.7884,-4.778,-4.7717,-4.7717,-4.7717,-4.7717,-4.7717,0.0,0.0,-4.7717,-4.7717,-4.7717,-4.7717,-4.8677,-5.0112,-5.0112,-5.0995,-5.2215,-5.2162,-5.2025,-5.1788,-5.1149,-5.0397,-4.9745,-4.9745,-4.8786,-4.7717,-4.7717,-4.7717,-4.7717,-4.7717,-4.7717,-4.7717,-4.7717,-4.7717,-4.7717,-4.7717,-4.7717,-4.7717,-4.7717,-4.7717,-4.7717,-4.7717,-4.7717,-4.7717,-4.7717,-4.7717,-4.7717,-4.7717,-4.7717,-4.7717,-4.7717,-4.7717,-4.7717,-4.7717,-4.7717,-4.7717,-4.7717,-4.7717,-4.7717,-4.7717,-4.7717,-4.7717,-4.7717,-4.7717,-4.7717,-4.7717,-4.7717,-4.7717,-4.7717,-4.7717,-4.7717,-3.7523,-3.7703,-3.7984,-3.7844,-3.8101,-3.8415,0.0,0.0,-3.8779,-3.9719,-4.0561,-4.1352,-4.2158,-4.2947,-4.3513,-4.3582,0.0,0.0,-4.3788,-4.3851,0.0,0.0,0.0,0.0,0.0,0.0,0.0,0.0,0.0,0.0,-4.8306,-4.8306,-4.8306,-4.8306,-4.8306,-4.8267,-4.8207,-4.807,-4.797,-4.7881,-4.7759,-4.7717,-4.7717,-4.7717,-4.7717,0.0,0.0,0.0,0.0,-4.7717,-4.7717,-4.7717,-4.7717,-4.8677,-5.0112,-5.0112,-5.0728,-5.1586,-5.1378,-5.0926,-5.0389,-5.0168,-4.9564,-4.8909,-4.8909,-4.833,-4.7717,-4.7717,-4.7717,-4.7717,-4.7717,-4.7717,-4.7717,-4.7717,-4.7717,-4.7717,-4.7717,-4.7717,-4.7717,-4.7717,-4.7717,-4.7717,-4.7717,-4.7717,-4.7717,-4.7717,-4.7717,-4.7717,-4.7717,-4.7717,-4.7717,-4.7717,-4.7717,-4.7717,-4.7717,-4.7717,-4.7717,-4.7717,-4.7717,-4.7717,-4.7717,-4.7717,-4.7717,-4.7717,-4.7717,-4.7717,-4.7717,-4.7717,-4.7717,-4.7717,-4.7717,-4.7717,-3.717,-3.7339,-3.765,-3.7614,-3.7685,-3.7861,-3.8168,0.0,-3.8536,-3.9669,-4.0102,-4.054,-4.1395,-4.1915,-4.225,-4.2408,-4.254,0.0,0.0,0.0,0.0,0.0,0.0,0.0,0.0,0.0,0.0,0.0,0.0,0.0,-4.7335,-4.7335,-4.763,-4.8287,-4.8247,-4.8226,-4.8187,-4.8026,-4.7904,-4.7881,-4.7759,-4.7717,-4.7717,-4.7717,-4.7511,0.0,0.0,0.0,0.0,-4.6613,-4.6613,-4.6613,-4.6613,-4.7258,-4.8234,-4.8748,-4.95,-5.0222,-5.0153,-5.0014,-4.9674,-4.854,-4.8003,-4.7701,-4.7145,-4.7304,-4.7717,-4.7717,-4.7717,-4.7717,-4.7717,-4.7717,-4.7717,-4.7717,-4.7717,-4.7717,-4.7717,-4.7717,-4.7717,-4.7717,-4.7717,-4.7717,-4.7717,-4.7717,-4.7717,-4.7717,-4.7717,-4.7717,-4.7717,-4.7717,-4.7717,-4.7717,-4.7717,-4.7717,-4.7717,-4.7717,-4.7717,-4.7717,-4.7717,-4.7717,-4.7717,-4.7717,-4.7717,-4.7717,-4.7717,-4.7717,-4.7717,-4.7717,-4.7717,-4.7717,-4.7717,-4.7511,0.0,-3.6978,-3.7266,-3.7266,-3.7395,0.0,0.0,-3.7982,-3.833,-3.9086,-3.9516,-3.9916,-4.0492,-4.1104,-4.1558,-4.1615,-4.1998,0.0,0.0,0.0,0.0,0.0,0.0,0.0,0.0,0.0,0.0,0.0,0.0,0.0,-4.6908,-4.6908,-4.7138,-4.7692,-4.785,-4.7788,-4.7482,-4.7557,-4.7468,-4.7214,-4.7129,-4.7107,-4.7107,-4.7107,-4.6908,0.0,0.0,0.0,0.0,-4.6098,-4.6098,-4.6098,-4.6098,-4.6765,-4.7774,-4.8222,-4.8776,-4.9272,-4.917,-4.8837,-4.826,-4.7189,-4.686,-4.673,-4.6256,-4.6566,-4.7107,-4.7107,-4.7107,-4.7129,-4.7341,-4.7407,-4.745,-4.7657,-4.7717,-4.7717,-4.7717,-4.7717,-4.7717,-4.7717,-4.7717,-4.7717,-4.7717,-4.7717,-4.7717,-4.7717,-4.7717,-4.7717,-4.7717,-4.7717,-4.7717,-4.7717,-4.7717,-4.7717,-4.7717,-4.7717,-4.7717,-4.7717,-4.7717,-4.7717,-4.7717,-4.7717,-4.7717,-4.7717,-4.7717,-4.7717,-4.7717,-4.7717,-4.7717,-4.7717,-4.7717,-4.7407,0.0,-3.6557,-3.686,-3.686,-3.7151,0.0,-3.745,-3.7756,0.0,-3.8114,-3.88,-3.9415,-3.9519,-4.0474,-4.1239,-4.1158,0.0,0.0,0.0,0.0,0.0,0.0,0.0,0.0,0.0,0.0,0.0,0.0,0.0,0.0,-4.6794,-4.6794,-4.6747,-4.659,-4.7084,-4.7039,-4.631,-4.6776,-4.6707,-4.6098,-4.6098,-4.6098,-4.6098,-4.6098,-4.6074,0.0,0.0,0.0,0.0,-4.5992,-4.5992,-4.5992,-4.6045,-4.6938,-4.8224,-4.8321,-4.8491,-4.8607,-4.8373,-4.7473,-4.6389,-4.6079,-4.6017,-4.6017,-4.6017,-4.6067,-4.6098,-4.6098,-4.6098,-4.6196,-4.6707,-4.6822,-4.6976,-4.7511,-4.7636,-4.7636,-4.7636,-4.7678,-4.7678,-4.7657,-4.7678,-4.7717,-4.7717,-4.7717,-4.7717,-4.7717,-4.7717,-4.7717,-4.7717,-4.7717,-4.7717,-4.7717,-4.7717,-4.7717,-4.7717,-4.7717,-4.7717,-4.7717,-4.7717,-4.7717,-4.7717,-4.7717,-4.7717,-4.7717,-4.7717,-4.7717,-4.7717,-4.7717,-4.7678,-4.7636,-4.7636,-4.7341,-3.6301,0.0,-3.6451,-3.6451,-3.6512,-3.6658,0.0,0.0,-3.7266,-3.7596,-3.7918,-3.8312,-3.887,-3.9465,-4.0061,-4.0651,0.0,0.0,0.0,0.0,0.0,0.0,0.0,0.0,0.0,0.0,0.0,0.0,0.0,-4.5735,-4.5735,-4.5735,-4.5632,-4.5424,-4.592,-4.6224,-4.631,-4.6334,-4.6262,-4.6098,-4.6098,-4.6098,-4.6098,-4.6098,-4.5893,0.0,0.0,0.0,-4.4934,-4.4934,-4.4934,-4.5029,-4.5582,-4.6026,-4.647,-4.7585,-4.7715,-4.727,-4.721,-4.6624,-4.5779,-4.5162,-4.5015,-4.5123,-4.5123,-4.5554,-4.6098,-4.6098,-4.6098,-4.6123,-4.6262,-4.6286,-4.643,-4.6954,-4.7084,-4.7084,-4.7084,-4.7407,-4.7593,-4.7151,-4.7407,-4.7717,-4.7717,-4.7717,-4.7717,-4.7717,-4.7717,-4.7717,-4.7717,-4.7717,-4.7717,-4.7717,-4.7717,-4.7717,-4.7717,-4.7717,-4.7717,-4.7717,-4.7717,-4.7717,-4.7717,-4.7717,-4.7717,-4.7717,-4.7717,-4.7717,-4.7717,-4.7717,-4.749,-4.7084,-4.7084,-4.659,-3.6301,-3.6301,-3.6301,-3.6301,-3.6301,-3.6385,-3.6655,0.0,0.0,0.0,0.0,0.0,0.0,0.0,0.0,0.0,-4.0676,0.0,0.0,0.0,0.0,0.0,0.0,0.0,0.0,0.0,0.0,0.0,0.0,-4.5397,-4.5397,-4.5344,-4.522,-4.5005,-4.5203,-4.5398,-4.552,-4.5665,-4.5614,-4.5416,-4.5416,-4.5416,-4.5416,-4.5416,-4.5258,0.0,0.0,0.0,-4.4615,-4.4615,-4.4615,-4.4682,-4.5415,-4.5906,-4.6346,-4.7466,-4.7445,-4.6786,-4.6786,-4.6092,-4.5128,-4.4733,-4.4654,-4.4737,-4.4776,-4.5096,-4.5416,-4.5494,-4.5468,-4.5451,-4.5691,-4.5724,-4.5875,-4.6406,-4.6525,-4.6525,-4.6525,-4.6753,-4.6886,-4.659,-4.6954,-4.7323,-4.7323,-4.7533,-4.7717,-4.7717,-4.7717,-4.7717,-4.7717,-4.7717,-4.7717,-4.7717,-4.7717,-4.7717,-4.7717,-4.7717,-4.7717,-4.7717,-4.7717,-4.7717,-4.7717,-4.7717,-4.7575,-4.7341,-4.7084,-4.6954,-4.6954,-4.6954,-4.6817,-4.6525,-4.6525,-4.6074,-3.6301,-3.6301,-3.6301,-3.6301,-3.6301,-3.6339,-3.6482,0.0,0.0,0.0,0.0,0.0,0.0,-3.8942,0.0,0.0,0.0,0.0,0.0,0.0,0.0,0.0,0.0,0.0,0.0,0.0,0.0,0.0,0.0,-4.5397,-4.5371,-4.5274,-4.514,-4.4978,-4.4858,-4.4737,-4.4615,-4.4981,-4.4981,-4.4615,-4.4615,-4.4615,-4.4615,-4.4615,-4.4615,-4.4615,0.0,0.0,-4.4615,-4.4615,-4.4615,-4.4682,-4.5415,-4.616,-4.6887,-4.7648,-4.7513,-4.6955,-4.6836,-4.5906,-4.4784,-4.4784,-4.4699,-4.4654,-4.4765,-4.4737,-4.4688,-4.4884,-4.4794,-4.4692,-4.5072,-4.5188,-4.5346,-4.585,-4.5975,-4.5975,-4.5975,-4.6024,-4.6091,-4.6,-4.6478,-4.6908,-4.6908,-4.7323,-4.7717,-4.7717,-4.7717,-4.7717,-4.7717,-4.7717,-4.7717,-4.7717,-4.7717,-4.7717,-4.7717,-4.7717,-4.7717,-4.7717,-4.7717,-4.7717,-4.7717,-4.7717,-4.749,-4.7039,-4.6519,-4.6238,-4.6238,-4.6123,-4.6049,-4.5975,-4.5975,-4.5691,-3.6301,-3.6301,-3.6301,-3.6301,-3.6301,-3.6339,-3.6482,0.0,0.0,0.0,0.0,0.0,0.0,-3.9504,-4.0289,0.0,0.0,0.0,0.0,0.0,0.0,0.0,0.0,0.0,0.0,0.0,0.0,0.0,0.0,-4.5371,-4.5247,-4.5203,-4.5086,-4.4831,-4.4803,-4.4737,-4.4615,-4.4682,-4.4682,-4.4615,-4.4615,-4.4615,-4.4615,-4.4615,-4.4615,-4.4615,0.0,-4.4615,-4.4615,-4.4615,-4.4615,-4.4682,-4.5415,-4.616,-4.6887,-4.7648,-4.7821,-4.7618,-4.7022,-4.6244,-4.5534,-4.5534,-4.5179,-4.4776,-4.4776,-4.4793,-4.4884,-4.5558,-4.5173,-4.4626,-4.4692,-4.472,-4.4841,-4.532,-4.5433,-4.5433,-4.5433,-4.5775,-4.5968,-4.5511,-4.622,-4.6908,-4.6908,-4.7323,-4.7717,-4.7717,-4.7717,-4.7717,-4.7717,-4.7717,-4.7717,-4.7717,-4.7717,-4.7717,-4.7717,-4.7717,-4.7717,-4.7717,-4.7717,-4.7717,-4.7717,-4.7717,-4.7657,-4.7593,-4.7062,-4.6794,-4.6794,-4.6334,-4.5868,-4.5433,-4.5433,-4.5152,-3.6523,-3.6523,-3.6502,-3.6423,-3.6343,-3.6339,-3.6482,-3.6502,0.0,0.0,0.0,0.0,0.0,0.0,0.0,0.0,0.0,0.0,0.0,0.0,0.0,0.0,0.0,0.0,0.0,0.0,0.0,0.0,0.0,0.0,-4.5203,-4.5059,-4.494,-4.4803,-4.4737,-4.4654,-4.4615,-4.4615,-4.4615,-4.4615,-4.4615,-4.4615,-4.4615,-4.4615,-4.4615,-4.4615,0.0,-4.4615,-4.4615,-4.4615,-4.4615,-4.4682,-4.5415,-4.5906,-4.6295,-4.7039,-4.7564,-4.777,-4.7056,-4.6583,-4.6295,-4.6295,-4.6116,-4.5897,-4.5954,-4.5926,-4.5982,-4.6379,-4.5869,-4.528,-4.5669,-4.5799,-4.5738,-4.555,-4.5503,-4.5401,-4.5019,-4.5133,-4.5222,-4.4971,-4.5528,-4.6042,-4.6042,-4.673,-4.7258,-4.7258,-4.7511,-4.7717,-4.7717,-4.7717,-4.7717,-4.7717,-4.7428,-4.7258,-4.7258,-4.6999,-4.7084,-4.7657,-4.7717,-4.7717,-4.7717,-4.7129,-4.684,-4.684,-4.6059,-4.5649,-4.5649,-4.5407,-4.5196,-4.5025,-4.5025,-4.4906,-3.6702,-3.6643,-3.6602,-3.6523,0.0,-3.6364,-3.6482,-3.6502,0.0,0.0,0.0,0.0,0.0,0.0,0.0,0.0,0.0,0.0,0.0,0.0,0.0,0.0,0.0,0.0,0.0,0.0,0.0,0.0,0.0,0.0,-4.5203,-4.5005,-4.4886,-4.4858,-4.4765,-4.4709,-4.4709,-4.4709,-4.4654,-4.4615,-4.4615,-4.4615,-4.4615,-4.4615,-4.4615,-4.4615,-4.4615,-4.4615,-4.4615,-4.4615,-4.4615,-4.4666,-4.5213,-4.5551,-4.5788,-4.6532,-4.7276,-4.7804,-4.7259,-4.7056,-4.7056,-4.7056,-4.6938,-4.6815,-4.6932,-4.6874,-4.6849,-4.7136,-4.6738,-4.6312,-4.6701,-4.6786,-4.6599,-4.5889,-4.5703,-4.55,-4.4767,-4.4615,-4.4615,-4.4615,-4.4998,-4.5303,-4.5303,-4.6091,-4.6707,-4.6707,-4.7062,-4.7341,-4.7341,-4.7428,-4.745,-4.7341,-4.7062,-4.6863,-4.673,-4.6334,-4.6454,-4.728,-4.7341,-4.7341,-4.7341,-4.6543,-4.6098,-4.6165,-4.5275,-4.4858,-4.4886,-4.4748,-4.4737,-4.4803,-4.4803,-4.4776,-3.6681,-3.6523,-3.636,-3.6464,-3.6502,0.0,-3.6502,-3.6502,0.0,-3.6664,0.0,0.0,0.0,0.0,0.0,0.0,0.0,0.0,0.0,0.0,0.0,0.0,0.0,0.0,0.0,0.0,0.0,0.0,0.0,0.0,-4.522,-4.5177,-4.5096,-4.4978,-4.4995,-4.4951,-4.4951,-4.4951,-4.4858,-4.4615,-4.4615,-4.4615,-4.4615,-4.4615,-4.4615,-4.4615,-4.4615,-4.4615,-4.4615,-4.4615,-4.4615,-4.4615,-4.4666,-4.5094,-4.5788,-4.6532,-4.7276,-4.7889,-4.7821,-4.7804,-4.7804,-4.7804,-4.7361,-4.6786,-4.6815,-4.6815,-4.6938,-4.7631,-4.78,-4.7614,-4.6955,-4.6786,-4.6599,-4.5889,-4.5703,-4.55,-4.4767,-4.4615,-4.4615,-4.4615,-4.4998,-4.5303,-4.5303,-4.5792,-4.6165,-4.6165,-4.6189,-4.6213,-4.6213,-4.666,-4.6771,-4.6286,-4.6637,-4.6707,-4.6213,-4.6123,-4.6123,-4.6213,-4.6213,-4.6213,-4.6213,-4.6123,-4.6165,-4.6286,-4.5794,-4.558,-4.5709,-4.5203,-4.4913,-4.4803,-4.4803,-4.472,-3.6745,-3.6664,-3.6544,-3.6502,-3.6502,0.0,0.0,-3.6444,-3.6641,-3.7105,-3.8083,0.0,0.0,0.0,0.0,0.0,0.0,0.0,0.0,0.0,0.0,0.0,0.0,0.0,0.0,0.0,0.0,0.0,0.0,0.0,-4.5203,-4.5113,-4.5059,-4.5005,-4.5005,-4.5005,-4.5005,-4.5005,-4.4951,-4.4858,-4.4858,-4.4858,-4.4858,-4.4858,-4.4803,-4.472,-4.472,-4.4682,-4.4615,-4.4615,-4.4615,-4.4615,-4.4615,-4.5043,-4.5737,-4.6007,-4.6583,-4.7225,-4.7225,-4.753,-4.7889,-4.7889,-4.8037,-4.8173,-4.8173,-4.8173,-4.824,-4.8511,-4.8595,-4.8528,-4.824,-4.8173,-4.7868,-4.6667,-4.638,-4.6058,-4.4869,-4.4615,-4.4615,-4.4615,-4.4731,-4.4879,-4.4879,-4.5267,-4.5597,-4.5597,-4.5893,-4.6098,-4.6098,-4.6286,-4.6334,-4.6123,-4.6084,-4.5877,-4.5328,-4.5381,-4.5433,-4.5433,-4.5918,-4.622,-4.622,-4.601,-4.5928,-4.5978,-4.5503,-4.5257,-4.531,-4.5113,-4.4978,-4.4923,-4.4923,-4.4858,-3.6788,-3.6687,-3.6564,0.0,0.0,0.0,-3.6322,-3.6364,-3.6578,-3.7029,-3.8031,0.0,-4.0753,0.0,0.0,0.0,0.0,0.0,0.0,0.0,0.0,0.0,0.0,0.0,0.0,0.0,0.0,0.0,0.0,0.0,0.0,-4.5167,-4.513,-4.513,-4.513,-4.513,-4.513,-4.513,-4.513,-4.513,-4.513,-4.5086,-4.5005,-4.5005,-4.4951,-4.4858,-4.4831,-4.4765,-4.4654,-4.4615,-4.4615,-4.4615,-4.4615,-4.4891,-4.5348,-4.5348,-4.5821,-4.6447,-4.6447,-4.6938,-4.7597,-4.7804,-4.8227,-4.8714,-4.8934,-4.9001,-4.9001,-4.9001,-4.9001,-4.9001,-4.9001,-4.9001,-4.8629,-4.7141,-4.6786,-4.638,-4.4936,-4.4615,-4.4615,-4.4615,-4.4615,-4.4615,-4.4615,-4.4879,-4.5089,-4.5089,-4.5425,-4.5683,-4.5683,-4.5835,-4.5935,-4.5935,-4.5615,-4.5257,-4.4886,-4.4968,-4.5005,-4.5005,-4.5597,-4.5935,-4.5885,-4.5666,-4.5572,-4.5606,-4.5257,-4.5086,-4.513,-4.513,-4.5086,-4.5005,-4.5005,-4.4913,-3.6788,-3.6568,-3.6381,0.0,0.0,0.0,-3.6322,-3.6301,-3.6301,-3.6318,-3.7646,-3.9247,-4.0642,0.0,0.0,0.0,0.0,0.0,0.0,0.0,0.0,0.0,0.0,0.0,0.0,0.0,0.0,0.0,0.0,0.0,0.0,-4.5397,-4.5397,-4.5397,-4.5397,-4.5397,-4.5397,-4.5397,-4.5397,-4.5397,-4.5397,-4.5264,-4.5005,-4.5005,-4.5005,-4.4978,-4.4858,-4.4803,-4.4776,-4.4654,-4.4615,-4.4615,-4.4615,-4.4615,-4.4615,-4.4615,-4.5043,-4.5703,-4.5703,-4.6177,-4.6904,-4.7648,-4.7872,-4.8054,-4.8781,-4.9001,-4.9001,-4.9001,-4.9001,-4.9001,-4.9001,-4.9001,-4.8629,-4.7158,-4.6802,-4.638,-4.4936,-4.4615,-4.4615,-4.4615,-4.4615,-4.4615,-4.4615,-4.4615,-4.4615,-4.4615,-4.4709,-4.4803,-4.4803,-4.5257,-4.558,-4.558,-4.523,-4.5005,-4.5005,-4.5005,-4.5005,-4.5005,-4.5113,-4.514,-4.5005,-4.5005,-4.5059,-4.5203,-4.5203,-4.5274,-4.5397,-4.5397,-4.5264,-4.5005,-4.5005,-4.4858,-3.6788,-3.6687,0.0,-3.6544,0.0,0.0,0.0,-3.6523,0.0,0.0,-3.9321,-4.051,-4.0849,0.0,0.0,0.0,0.0,0.0,0.0,0.0,0.0,0.0,0.0,0.0,0.0,0.0,0.0,0.0,0.0,0.0,0.0,-4.5397,-4.5397,-4.5397,-4.5397,-4.5397,-4.5397,-4.5397,-4.5397,-4.5397,-4.5397,-4.5371,-4.5291,-4.5291,-4.522,-4.514,-4.5113,-4.4978,-4.4776,-4.4654,-4.4615,-4.4615,-4.4615,-4.4615,-4.4615,-4.4615,-4.475,-4.4925,-4.4925,-4.5484,-4.6186,-4.6423,-4.7204,-4.8086,-4.8307,-4.8657,-4.9001,-4.9001,-4.9001,-4.9001,-4.9001,-4.9001,-4.8765,-4.7817,-4.7175,-4.6532,-4.5585,-4.4987,-4.4615,-4.4615,-4.4615,-4.4615,-4.4615,-4.4615,-4.4615,-4.4615,-4.4626,-4.4709,-4.4776,-4.5005,-4.5177,-4.5177,-4.5167,-4.514,-4.514,-4.5059,-4.5005,-4.5005,-4.4824,-4.4852,-4.514,-4.522,-4.5318,-4.5344,-4.5344,-4.53,-4.5274,-4.5274,-4.5113,-4.4858,-4.4714,-4.4547,-3.6788,-3.6708,0.0,-3.6626,-3.6664,-3.6702,-3.6626,0.0,0.0,0.0,0.0,-4.0735,-4.0884,-4.1023,0.0,0.0,0.0,0.0,0.0,0.0,0.0,0.0,0.0,0.0,0.0,0.0,0.0,0.0,0.0,0.0,0.0,-4.5397,-4.5344,-4.522,-4.5238,-4.5167,-4.5042,-4.5059,-4.5059,-4.5042,-4.5167,-4.5167,-4.5042,-4.5274,-4.5371,-4.5274,-4.5167,-4.4951,-4.4709,-4.4626,-4.4615,-4.4615,-4.4615,-4.4615,-4.4615,-4.4615,-4.4615,-4.4615,-4.4615,-4.4959,-4.5439,-4.5744,-4.6411,-4.7191,-4.748,-4.7827,-4.8122,-4.8122,-4.8122,-4.8122,-4.8122,-4.8122,-4.8088,-4.7953,-4.7344,-4.6599,-4.5872,-4.5111,-4.4615,-4.4615,-4.4615,-4.4615,-4.4615,-4.4615,-4.4615,-4.4615,-4.4682,-4.4776,-4.4886,-4.5049,-4.514,-4.5086,-4.5194,-4.5247,-4.514,-4.5059,-4.4951,-4.4797,-4.4614,-4.4614,-4.4906,-4.4988,-4.5113,-4.5238,-4.5113,-4.4988,-4.4934,-4.4934,-4.4797,-4.4592,-4.4463,-4.435,-3.6809,0.0,0.0,-3.6768,-3.6748,0.0,-3.6809,-3.7344,-3.8028,-3.8677,0.0,-4.0341,-4.0821,0.0,0.0,0.0,0.0,0.0,0.0,0.0,0.0,0.0,0.0,0.0,0.0,0.0,0.0,0.0,0.0,0.0,0.0,-4.5138,-4.5014,-4.4773,-4.4814,-4.4695,-4.4401,-4.4468,-4.4502,-4.4502,-4.4797,-4.4797,-4.453,-4.5113,-4.5344,-4.5291,-4.5032,-4.4803,-4.457,-4.4514,-4.4514,-4.4514,-4.4514,-4.4514,-4.4514,-4.457,-4.4615,-4.4615,-4.4615,-4.4598,-4.4716,-4.541,-4.5652,-4.585,-4.651,-4.6764,-4.6786,-4.6786,-4.6786,-4.6786,-4.6786,-4.6786,-4.6972,-4.7648,-4.7242,-4.6515,-4.5838,-4.5111,-4.4615,-4.4615,-4.4615,-4.4615,-4.4615,-4.4615,-4.4598,-4.4615,-4.4831,-4.5005,-4.5005,-4.5238,-4.5344,-4.5194,-4.5274,-4.5264,-4.4978,-4.4923,-4.4786,-4.4474,-4.4418,-4.4418,-4.4446,-4.4474,-4.4642,-4.4951,-4.4659,-4.4502,-4.4474,-4.4474,-4.439,-4.4281,-4.4281,-4.4196,-3.6948,-3.6928,0.0,0.0,-3.6788,-3.6809,-3.6928,-3.7527,-3.8198,-3.8751,-4.0003,-4.0949,0.0,0.0,0.0,0.0,0.0,0.0,0.0,0.0,0.0,0.0,0.0,0.0,0.0,0.0,0.0,0.0,0.0,0.0,-4.2966,-4.3167,-4.3167,-4.2904,-4.3454,-4.3705,-4.365,-4.4215,-4.4502,0.0,-4.4558,-4.4558,-4.4502,-4.4923,-4.4896,-4.4519,-4.448,-4.4423,-4.4338,-4.3914,-4.3752,-4.3752,-4.3752,-4.3752,-4.381,-4.4384,-4.4615,-4.4615,-4.4615,-4.4682,-4.4782,-4.4952,-4.5382,-4.5892,-4.6045,-4.6416,-4.6786,-4.6786,-4.6786,-4.6786,-4.6786,-4.6786,-4.6836,-4.7005,-4.6464,-4.5889,-4.5737,-4.5111,-4.4615,-4.4615,-4.4615,-4.4615,-4.4615,-4.4615,-4.4626,-4.4737,-4.4913,-4.5032,-4.5123,-4.53,-4.5318,-4.5059,-4.5059,-4.4951,-4.4614,-4.4406,-4.427,-4.4196,-4.3935,-4.3906,-4.4184,-4.4378,-4.453,-4.4603,-4.453,-4.4446,-4.435,-4.435,-4.4281,-4.4155,-4.4027,-4.3969,-3.6632,0.0,0.0,-3.6908,0.0,-3.6911,-3.697,-3.7567,-3.826,-3.888,-3.9935,0.0,0.0,0.0,0.0,0.0,0.0,0.0,0.0,0.0,0.0,0.0,0.0,0.0,0.0,0.0,0.0,0.0,0.0,-4.2064,-4.2289,-4.2438,-4.2385,-4.2109,-4.2496,-4.2462,-4.2007,-4.2389,-4.2411,-4.2114,-4.2261,-4.2501,-4.2864,-4.4176,-4.4547,-4.4196,-4.4196,-4.4109,-4.3931,-4.3663,-4.3634,-4.3798,-4.3856,-4.3985,-4.4174,-4.4536,-4.4709,-4.4682,-4.4626,-4.4654,-4.4709,-4.4709,-4.4964,-4.5275,-4.5275,-4.5518,-4.5766,-4.5835,-4.5835,-4.5835,-4.5835,-4.5835,-4.5835,-4.5766,-4.572,-4.5703,-4.5703,-4.5111,-4.4615,-4.4615,-4.4615,-4.4615,-4.4615,-4.4654,-4.4737,-4.4776,-4.4858,-4.494,-4.5005,-4.5005,-4.4906,-4.4769,-4.4769,-4.4631,-4.4321,-4.4184,-4.4039,-4.3864,-4.3687,-4.3687,-4.3864,-4.3977,-4.415,-4.431,-4.415,-4.4035,-4.3964,-4.3964,-4.3935,-4.3864,-4.3793,-4.3763,-3.6385,0.0,-3.6869,-3.6968,-3.7007,0.0,-3.6891,-3.7361,-3.7985,-3.867,0.0,0.0,0.0,0.0,0.0,0.0,0.0,0.0,0.0,0.0,0.0,0.0,0.0,0.0,0.0,0.0,0.0,0.0,0.0,-4.1186,-4.1767,-4.1827,-4.1721,-4.1458,-4.1565,-4.121,-4.0313,-4.0442,-4.0146,-3.9501,-3.9778,-4.0204,-4.0813,-4.2762,-4.3693,-4.3789,-4.3818,-4.3743,-4.3595,-4.3549,-4.3697,-4.4023,-4.4121,-4.4378,-4.4676,-4.4776,-4.4803,-4.4776,-4.4654,-4.4615,-4.4626,-4.4626,-4.4654,-4.4682,-4.4682,-4.4682,-4.4682,-4.4803,-4.4831,-4.4831,-4.4803,-4.4803,-4.4765,-4.4626,-4.506,-4.5517,-4.5517,-4.501,-4.4615,-4.4615,-4.457,-4.4542,-4.4514,-4.4626,-4.4692,-4.472,-4.472,-4.472,-4.4748,-4.4603,-4.4474,-4.4435,-4.4435,-4.4321,-4.4039,-4.401,-4.3894,-4.3628,-4.3598,-4.3598,-4.3598,-4.3598,-4.3747,-4.401,-4.3747,-4.3598,-4.3598,-4.3598,-4.3598,-4.3598,-4.3598,-4.3598,0.0,0.0,-3.6987,0.0,-3.7007,-3.6891,0.0,0.0,-3.6748,0.0,0.0,0.0,0.0,0.0,0.0,0.0,0.0,0.0,0.0,0.0,0.0,0.0,0.0,0.0,0.0,0.0,0.0,0.0,-3.975,-3.9835,-3.9714,-3.991,-3.991,-3.9677,-4.0265,-4.0259,-3.9567,-4.0199,-4.0146,-3.9501,-3.9563,-3.9611,-3.9706,-4.0033,-4.1048,-4.2538,-4.2741,-4.3096,-4.3582,-4.3295,-4.3323,-4.3588,-4.3617,-4.3823,-4.414,-4.4648,-4.4803,-4.4776,-4.4654,-4.4682,-4.4776,-4.4776,-4.4858,-4.4968,-4.4968,-4.4968,-4.4951,-4.4951,-4.4978,-4.4968,-4.4831,-4.4803,-4.4765,-4.4626,-4.4682,-4.475,-4.475,-4.4682,-4.4615,-4.4615,-4.4468,-4.431,-4.4184,-4.4184,-4.4241,-4.4338,-4.4367,-4.4406,-4.4519,-4.4502,-4.4406,-4.4184,-4.4155,-4.4039,-4.3687,-4.3658,-4.3658,-4.3598,-4.3598,-4.3598,-4.3598,-4.3598,-4.3628,-4.3658,-4.3628,-4.3598,-4.3598,-4.3598,-4.3598,-4.3598,-4.3598,-4.3598,-3.699,-3.6863,-3.6492,0.0,-3.6079,-3.6058,-3.5526,0.0,0.0,0.0,0.0,0.0,0.0,0.0,0.0,0.0,0.0,0.0,0.0,0.0,0.0,0.0,0.0,0.0,0.0,0.0,0.0,0.0,-3.9405,-3.9415,-3.9299,-3.9405,-3.9432,-3.9299,-3.9613,-3.9446,-3.8792,-3.8782,-3.8256,-3.7259,-3.7259,-3.7459,-3.7812,-3.7812,-3.8854,-4.0642,-4.1103,-4.1659,-4.2219,-4.2439,-4.305,-4.3844,-4.3914,-4.4243,-4.4708,-4.4934,-4.5032,-4.5005,-4.4886,-4.4858,-4.4913,-4.4913,-4.4951,-4.5005,-4.5005,-4.5005,-4.5005,-4.5086,-4.5113,-4.5113,-4.5032,-4.5032,-4.4951,-4.4748,-4.4709,-4.4682,-4.4615,-4.4615,-4.457,-4.4468,-4.4298,-4.4184,-4.4097,-4.4097,-4.4126,-4.4184,-4.4093,-4.4035,-4.4105,-4.4035,-4.3964,-4.3835,-4.3835,-4.3747,-4.3509,-4.3509,-4.3432,-4.3342,-4.3325,-4.3372,-4.3462,-4.3509,-4.3539,-4.3598,-4.3598,-4.3598,-4.3598,-4.3598,-4.3598,-4.3598,-4.3598,-4.3598,0.0,0.0,-3.611,-3.5576,-3.5412,-3.5249,0.0,0.0,0.0,0.0,0.0,0.0,0.0,0.0,0.0,0.0,0.0,0.0,0.0,0.0,0.0,0.0,0.0,0.0,0.0,0.0,0.0,0.0,-3.9299,-3.9299,-3.9299,-3.9299,-3.9299,-3.9299,-3.9299,-3.8898,-3.808,-3.731,-3.643,-3.5504,-3.5504,-3.5759,-3.6237,-3.6237,-3.7023,-3.8401,-3.9387,-4.026,-4.1006,-4.1693,-4.2702,-4.386,-4.4207,-4.4686,-4.515,-4.5194,-4.5203,-4.5177,-4.5059,-4.5005,-4.5059,-4.5059,-4.5059,-4.5086,-4.5086,-4.5086,-4.5113,-4.522,-4.5247,-4.5247,-4.522,-4.5203,-4.514,-4.4858,-4.4803,-4.4748,-4.457,-4.4542,-4.444,-4.4241,-4.4068,-4.3981,-4.3981,-4.3906,-4.3848,-4.3923,-4.3743,-4.3608,-4.3608,-4.3535,-4.3462,-4.3462,-4.3462,-4.3432,-4.3342,-4.3312,-4.3281,-4.3113,-4.3143,-4.3235,-4.3372,-4.3432,-4.3509,-4.3598,-4.3598,-4.3598,-4.3598,-4.3598,-4.3598,-4.3598,-4.3598,-4.3598,0.0,-3.6529,0.0,-3.6367,0.0,0.0,0.0,0.0,0.0,0.0,0.0,0.0,0.0,0.0,0.0,0.0,0.0,0.0,0.0,0.0,0.0,0.0,0.0,0.0,0.0,0.0,0.0,0.0,-3.9299,-3.9299,-3.9299,-3.9299,-3.9299,-3.9299,-3.9299,-3.8706,-3.7458,-3.6211,-3.5569,-3.5504,-3.5504,-3.5519,-3.5549,-3.5549,-3.5612,-3.5799,-3.7759,-3.9338,-4.0579,-4.1318,-4.2183,-4.315,-4.4128,-4.4714,-4.5032,-4.515,-4.5203,-4.5177,-4.5059,-4.5086,-4.5177,-4.5177,-4.5274,-4.5371,-4.5371,-4.5371,-4.5371,-4.5397,-4.5397,-4.5371,-4.523,-4.5203,-4.514,-4.4858,-4.4803,-4.472,-4.4395,-4.431,-4.4224,-4.3969,-4.3763,-4.3628,-4.3628,-4.3355,-4.3204,-4.3402,-4.3265,-4.3143,-4.3143,-4.3127,-4.3143,-4.3143,-4.3143,-4.3113,-4.3113,-4.3113,-4.3113,-4.3113,-4.3281,-4.3372,-4.3402,-4.3539,-4.3598,-4.3598,-4.3598,-4.3598,-4.3598,-4.3598,-4.3598,-4.3598,-4.3598,-4.3598,0.0,0.0,0.0,-3.49,-3.4323,-3.3707,0.0,0.0,0.0,0.0,0.0,0.0,0.0,0.0,0.0,0.0,0.0,0.0,0.0,0.0,0.0,0.0,0.0,0.0,0.0,0.0,0.0,0.0,0.0,-3.9299,-3.9299,-3.9299,-3.9299,-3.9299,-3.8871,-3.8039,-3.6784,-3.6321,-3.5878,-3.5504,-3.5504,-3.5504,-3.5504,-3.5504,-3.5504,-3.5534,-3.6278,-3.7328,-3.8636,-3.9328,-4.0436,-4.1777,-4.2594,-4.336,-4.4112,-4.4824,-4.5059,-4.5086,-4.5194,-4.5291,-4.5344,-4.5344,-4.5371,-4.5397,-4.5397,-4.5397,-4.5397,-4.5397,-4.5397,-4.5397,-4.5344,-4.5344,-4.5194,-4.4714,-4.4536,-4.4338,-4.3831,-4.3789,-4.3805,-4.3598,-4.3509,-4.3432,-4.3295,-4.3099,-4.3007,-4.3084,-4.3023,-4.2976,-4.2976,-4.3052,-4.3113,-4.3113,-4.3113,-4.3082,-4.2976,-4.2976,-4.2914,-4.2774,-4.2976,-4.3099,-4.3204,-4.3235,-4.3342,-4.3479,-4.3325,-4.3386,-4.3598,-4.3598,-4.3598,-4.3598,-4.3598,-4.3598,-3.6905,0.0,0.0,0.0,0.0,-3.2931,0.0,0.0,0.0,0.0,0.0,0.0,0.0,0.0,0.0,0.0,0.0,0.0,0.0,0.0,0.0,0.0,0.0,0.0,0.0,0.0,0.0,0.0,0.0,0.0,-3.9299,-3.9299,-3.9202,-3.8969,-3.8339,-3.7472,-3.6399,-3.6196,-3.591,-3.5504,-3.5504,-3.5504,-3.5504,-3.5504,-3.5504,-3.5504,-3.5504,-3.6142,-3.722,-3.7891,-3.8964,-4.0277,-4.152,-4.2407,-4.3164,-4.4512,-4.5005,-4.5032,-4.5318,-4.5397,-4.5397,-4.5397,-4.5397,-4.5397,-4.5397,-4.5397,-4.5397,-4.5397,-4.5397,-4.5371,-4.5291,-4.5157,-4.4923,-4.4463,-4.4179,-4.386,-4.3402,-4.3432,-4.3509,-4.3342,-4.3251,-4.3221,-4.3204,-4.3037,-4.293,-4.3054,-4.2961,-4.2899,-4.2899,-4.2914,-4.2929,-4.2929,-4.2929,-4.2898,-4.2806,-4.2806,-4.2728,-4.2602,-4.2806,-4.2961,-4.3021,-4.3143,-4.3265,-4.3402,-4.3295,-4.3372,-4.3598,-4.3568,-4.3568,-4.3598,-4.3598,-4.3598,0.0,0.0,0.0,0.0,0.0,0.0,-3.3066,0.0,0.0,0.0,0.0,0.0,0.0,0.0,0.0,0.0,0.0,0.0,0.0,0.0,0.0,0.0,0.0,0.0,0.0,0.0,0.0,0.0,-3.9299,-3.9299,-3.9299,-3.9299,-3.898,-3.8294,-3.7722,-3.7071,-3.6368,-3.5797,-3.5504,-3.5504,-3.5504,-3.5504,-3.5504,-3.5504,-3.5504,-3.5504,-3.5504,-3.5863,-3.6514,-3.7175,-3.7832,-3.8688,-4.0974,-4.1914,-4.2193,-4.4181,-4.4934,-4.5005,-4.5274,-4.5397,-4.5397,-4.5397,-4.5397,-4.5397,-4.5397,-4.5397,-4.5397,-4.5397,-4.5371,-4.5318,-4.5059,-4.4648,-4.4281,-4.4126,-4.373,-4.3342,-4.3143,-4.3235,-4.3312,-4.3113,-4.2976,-4.2992,-4.3312,-4.3115,-4.3023,-4.3342,-4.3099,-4.2899,-4.2899,-4.2744,-4.2602,-4.2602,-4.2602,-4.2602,-4.2602,-4.2602,-4.2602,-4.2602,-4.2806,-4.2899,-4.2899,-4.3237,-4.3372,-4.3402,-4.3539,-4.3598,-4.3598,-4.3479,-4.3462,-4.3598,-4.3598,-4.3598,-3.6569,0.0,0.0,0.0,0.0,0.0,0.0,0.0,0.0,0.0,0.0,0.0,0.0,0.0,0.0,0.0,0.0,0.0,0.0,0.0,0.0,0.0,0.0,0.0,0.0,0.0,0.0,0.0,-3.9299,-3.9299,-3.9299,-3.9299,-3.8788,-3.7677,-3.7488,-3.6875,-3.5765,-3.5587,-3.5504,-3.5504,-3.5504,-3.5504,-3.5504,-3.5504,-3.5504,-3.5504,-3.5504,-3.5609,-3.5774,-3.5972,-3.6461,-3.718,-3.8293,-3.9644,-4.1082,-4.2354,-4.3602,-4.4669,-4.5005,-4.5113,-4.514,-4.5344,-4.5264,-4.5157,-4.5344,-4.5264,-4.5113,-4.5113,-4.4951,-4.4725,-4.4659,-4.453,-4.435,-4.3977,-4.3713,-4.3446,-4.3037,-4.2883,-4.2805,-4.2743,-4.2821,-4.293,-4.3023,-4.2961,-4.2945,-4.3143,-4.3113,-4.3052,-4.3052,-4.299,-4.2929,-4.2837,-4.2837,-4.2775,-4.2602,-4.2602,-4.2602,-4.2602,-4.2806,-4.2945,-4.3021,-4.3143,-4.3235,-4.3402,-4.3295,-4.3295,-4.3479,-4.3509,-4.3552,-4.3598,-4.3598,-4.3598,-3.6523,-3.5537,-3.4505,0.0,0.0,0.0,-3.2398,-3.2342,0.0,0.0,0.0,0.0,0.0,0.0,0.0,0.0,0.0,0.0,0.0,0.0,0.0,0.0,0.0,0.0,0.0,-3.8129,-3.8493,-3.8808,-3.8825,-3.8984,-3.9282,-3.9299,-3.8816,-3.7793,-3.7531,-3.6906,-3.5878,-3.5619,-3.5504,-3.5504,-3.5504,-3.5504,-3.5504,-3.5504,-3.5504,-3.5504,-3.5504,-3.5504,-3.5504,-3.5504,-3.5729,-3.6202,-3.7131,-3.8229,-3.9487,-4.133,-4.2609,-4.3578,-4.4484,-4.4797,-4.4824,-4.4961,-4.4906,-4.4824,-4.4978,-4.4923,-4.4797,-4.4797,-4.4575,-4.4321,-4.4321,-4.4236,-4.4035,-4.3713,-4.3505,-4.3295,-4.2976,-4.2728,-4.2602,-4.2602,-4.2696,-4.2837,-4.2945,-4.2976,-4.3068,-4.3281,-4.3265,-4.3235,-4.3235,-4.3143,-4.3082,-4.2976,-4.2976,-4.2945,-4.2805,-4.2805,-4.2805,-4.2805,-4.2914,-4.3037,-4.3113,-4.3174,-4.3281,-4.3402,-4.3342,-4.3372,-4.3462,-4.3509,-4.3539,-4.3598,-4.3598,-4.3598,-3.6492,-3.5537,-3.4505,-3.4505,-3.3457,0.0,-3.237,-3.237,-3.252,0.0,0.0,0.0,0.0,0.0,0.0,0.0,0.0,0.0,0.0,0.0,0.0,0.0,0.0,0.0,-3.6986,-3.7052,-3.7384,-3.8046,-3.8096,-3.8361,-3.9033,-3.9133,-3.8881,-3.8209,-3.7674,-3.7071,-3.6399,-3.5797,-3.5504,-3.5504,-3.5504,-3.5504,-3.5504,-3.5504,-3.5504,-3.5504,-3.5504,-3.5504,-3.5504,-3.5504,-3.5504,-3.5629,-3.6901,-3.7465,-3.795,-4.0693,-4.1825,-4.2211,-4.3787,-4.4328,-4.4345,-4.4468,-4.4474,-4.4446,-4.4474,-4.4474,-4.4446,-4.4418,-4.4224,-4.4039,-4.4039,-4.3835,-4.3568,-4.3432,-4.3265,-4.3082,-4.2945,-4.2759,-4.2634,-4.2602,-4.2602,-4.268,-4.3021,-4.3082,-4.3204,-4.3539,-4.3479,-4.3419,-4.3402,-4.3265,-4.3143,-4.3127,-4.3143,-4.3113,-4.3113,-4.3113,-4.3113,-4.3113,-4.3113,-4.3113,-4.3143,-4.3312,-4.3419,-4.3402,-4.3539,-4.3598,-4.3598,-4.3479,-4.3462,-4.3598,-4.3598,-4.3598,-3.6492,-3.5537,-3.4505,0.0,-3.3457,0.0,-3.2259,-3.215,-3.2342,0.0,0.0,0.0,0.0,0.0,0.0,0.0,0.0,0.0,0.0,0.0,0.0,0.0,0.0,0.0,-3.6224,-3.6754,-3.7168,-3.7317,-3.7317,-3.7384,-3.7516,-3.8096,-3.8114,-3.7425,-3.7406,-3.7071,-3.6399,-3.5797,-3.5504,-3.5504,-3.5504,-3.5504,-3.5504,-3.5504,-3.5504,-3.5504,-3.5504,-3.5504,-3.5504,-3.5504,-3.5504,-3.5569,-3.6302,-3.7313,-3.8444,-3.9508,-4.075,-4.2044,-4.2981,-4.3306,-4.3435,-4.4232,-4.435,-4.4224,-4.4418,-4.435,-4.4109,-4.3848,-4.373,-4.3717,-4.3717,-4.3658,-4.3598,-4.3568,-4.3432,-4.3281,-4.3113,-4.2945,-4.279,-4.2634,-4.2602,-4.2665,-4.2899,-4.2961,-4.3037,-4.3372,-4.3402,-4.3432,-4.3539,-4.3539,-4.3462,-4.3342,-4.3342,-4.3281,-4.3096,-4.3113,-4.3113,-4.3113,-4.3113,-4.3174,-4.3342,-4.3372,-4.3432,-4.3568,-4.3598,-4.3598,-4.3598,-4.3568,-4.3568,-4.3598,-4.3598,-4.3598,0.0,0.0,0.0,-3.4029,0.0,0.0,0.0,-3.2094,-3.2219,-3.3039,0.0,0.0,0.0,0.0,0.0,0.0,0.0,0.0,0.0,0.0,0.0,0.0,0.0,0.0,-3.5446,-3.5794,-3.6158,-3.6522,-3.6903,-3.7102,-3.7102,-3.7466,-3.7494,-3.7157,-3.7238,-3.6994,-3.6377,-3.609,-3.5797,-3.5504,-3.5504,-3.5504,-3.5504,-3.5504,-3.5504,-3.5504,-3.5504,-3.5504,-3.5504,-3.5504,-3.5504,-3.5537,-3.5814,-3.6552,-3.7574,-3.8587,-3.9677,-4.0805,-4.1848,-4.2199,-4.2277,-4.2785,-4.2846,-4.2844,-4.3337,-4.3664,-4.3805,-4.3658,-4.3598,-4.3598,-4.3598,-4.3598,-4.3598,-4.3598,-4.3509,-4.3372,-4.3265,-4.3084,-4.2868,-4.2759,-4.2665,-4.2665,-4.2868,-4.2961,-4.3099,-4.3342,-4.3462,-4.3522,-4.3598,-4.3598,-4.3568,-4.3509,-4.3509,-4.3462,-4.3372,-4.3372,-4.3372,-4.3372,-4.3372,-4.3402,-4.3509,-4.3509,-4.3539,-4.3598,-4.3598,-4.3598,-4.3598,-4.3598,-4.3598,-4.3598,-4.3598,-4.3598,0.0,0.0,0.0,0.0,0.0,-3.2191,0.0,0.0,0.0,0.0,0.0,0.0,0.0,0.0,0.0,0.0,0.0,0.0,0.0,0.0,0.0,0.0,0.0,0.0,0.0,-3.4899,-3.5148,-3.5744,-3.634,-3.6688,-3.6688,-3.682,-3.6903,-3.6903,-3.6932,-3.6717,-3.6153,-3.6195,-3.595,-3.5407,-3.5494,-3.5554,-3.5554,-3.5504,-3.5504,-3.5504,-3.5504,-3.5504,-3.5504,-3.5504,-3.5504,-3.5504,-3.5619,-3.599,-3.6616,-3.8002,-3.8803,-3.9455,-4.0776,-4.1238,-4.1243,-4.1375,-4.1409,-4.1496,-4.2092,-4.2688,-4.3168,-4.3168,-4.3168,-4.3168,-4.3168,-4.3168,-4.3201,-4.335,-4.3324,-4.3267,-4.3369,-4.3207,-4.2992,-4.2961,-4.2821,-4.2759,-4.2868,-4.2976,-4.3143,-4.3372,-4.3492,-4.3568,-4.3598,-4.3598,-4.3598,-4.3598,-4.3598,-4.3598,-4.3598,-4.3598,-4.3598,-4.3598,-4.3598,-4.3598,-4.3598,-4.3598,-4.3598,-4.3598,-4.3598,-4.3598,-4.3598,-4.3598,-4.3598,-4.3598,-4.3598,-4.3598,0.0,0.0,0.0,0.0,-3.2724,0.0,0.0,0.0,-3.194,-3.237,0.0,0.0,0.0,0.0,0.0,0.0,0.0,0.0,0.0,0.0,0.0,0.0,0.0,0.0,0.0,-3.4899,-3.4932,-3.5015,-3.5098,-3.5148,-3.5148,-3.5777,-3.6125,-3.6125,-3.6183,-3.6017,-3.561,-3.5644,-3.5477,-3.5077,-3.548,-3.5671,-3.5655,-3.5539,-3.5504,-3.5504,-3.5504,-3.5504,-3.5504,-3.5504,-3.5504,-3.5554,-3.6085,-3.6461,-3.6814,-3.8062,-3.8565,-3.8879,-4.0233,-4.0608,-4.0597,-4.121,-4.1409,-4.1425,-4.1508,-4.1562,-4.1645,-4.1645,-4.1645,-4.1645,-4.1645,-4.1645,-4.1794,-4.2456,-4.2622,-4.2745,-4.33,-4.3372,-4.3281,-4.3113,-4.3052,-4.3021,-4.293,-4.2899,-4.3023,-4.3342,-4.3402,-4.3479,-4.3582,-4.3598,-4.3598,-4.3598,-4.3598,-4.3598,-4.3598,-4.3598,-4.3598,-4.3598,-4.3598,-4.3598,-4.3598,-4.3598,-4.3598,-4.3598,-4.3598,-4.3598,-4.3598,-4.3598,-4.3598,-4.3598,-4.3598,-4.3598,0.0,0.0,0.0,0.0,0.0,0.0,-3.1841,0.0,-3.1683,0.0,0.0,0.0,0.0,0.0,0.0,0.0,-3.43,0.0,0.0,0.0,0.0,0.0,0.0,0.0,0.0,0.0,0.0,0.0,-3.4899,-3.4899,-3.4899,-3.5197,-3.5363,-3.5363,-3.5593,-3.5432,-3.4863,-3.5099,-3.5134,-3.5018,-3.5182,-3.5421,-3.5688,-3.5638,-3.5572,-3.5504,-3.5504,-3.5504,-3.5504,-3.5504,-3.5554,-3.5653,-3.5879,-3.6274,-3.6753,-3.728,-3.794,-3.8672,-3.9105,-3.9484,-3.9812,-4.0111,-4.0464,-4.0812,-4.0812,-4.1094,-4.1409,-4.1409,-4.1409,-4.1409,-4.1409,-4.1409,-4.1491,-4.1778,-4.1844,-4.1926,-4.2183,-4.2178,-4.2222,-4.2561,-4.255,-4.2621,-4.3094,-4.3207,-4.3237,-4.3372,-4.3479,-4.3539,-4.3598,-4.3598,-4.3598,-4.3598,-4.3598,-4.3598,-4.3598,-4.3598,-4.3598,-4.3598,-4.3598,-4.3598,-4.3598,-4.3598,-4.3598,-4.3598,-4.3598,-4.3598,-4.3598,-4.3598,-4.3598,-4.3598,-4.3598,-4.3598,-3.4459,0.0,0.0,0.0,0.0,0.0,0.0,0.0,0.0,0.0,0.0,0.0,0.0,0.0,0.0,0.0,0.0,-3.3993,0.0,0.0,0.0,0.0,0.0,0.0,0.0,0.0,0.0,-3.4899,-3.4899,-3.4899,-3.4899,-3.4763,-3.4667,-3.4667,-3.4789,-3.4561,-3.3972,-3.4434,-3.4645,-3.4577,-3.4881,-3.5214,-3.5575,-3.5661,-3.5686,-3.5619,-3.5537,-3.5537,-3.5539,-3.5539,-3.5621,-3.572,-3.5816,-3.6117,-3.6585,-3.6708,-3.7445,-3.8399,-3.8351,-3.8772,-3.9299,-3.9299,-3.9663,-4.0111,-4.0111,-4.0431,-4.0829,-4.0829,-4.0829,-4.0829,-4.0829,-4.0829,-4.0878,-4.1077,-4.1127,-4.1177,-4.1375,-4.1312,-4.1408,-4.1906,-4.1884,-4.2019,-4.268,-4.3138,-4.3402,-4.3449,-4.3539,-4.3598,-4.3598,-4.3598,-4.3598,-4.3598,-4.3598,-4.3598,-4.3598,-4.3598,-4.3598,-4.3598,-4.3598,-4.3598,-4.3598,-4.3598,-4.3598,-4.3598,-4.3598,-4.3598,-4.3598,-4.3598,-4.3598,-4.3598,-4.3598,-4.3598,0.0,0.0,0.0,-3.2233,0.0,0.0,0.0,0.0,-3.1511,0.0,0.0,0.0,0.0,0.0,0.0,-3.3145,0.0,0.0,0.0,0.0,0.0,0.0,0.0,0.0,0.0,0.0,0.0,-3.4899,-3.4899,-3.4899,-3.4899,-3.4399,-3.4126,-3.4126,-3.3704,-3.3261,-3.2846,-3.3701,-3.3895,-3.3462,-3.4635,-3.5217,-3.5233,-3.556,-3.5799,-3.5973,-3.5651,-3.5572,-3.5688,-3.5688,-3.5688,-3.572,-3.607,-3.6196,-3.6258,-3.6723,-3.7326,-3.7972,-3.8351,-3.8854,-3.9299,-3.9299,-3.9315,-3.9332,-3.9332,-3.9348,-3.9365,-3.9365,-3.9365,-3.9365,-3.9365,-3.9365,-3.9547,-4.026,-4.0442,-4.0597,-4.1276,-4.1397,-4.1352,-4.1271,-4.1243,-4.1259,-4.1276,-4.2462,-4.3432,-4.3568,-4.3598,-4.3598,-4.3598,-4.3598,-4.3598,-4.3598,-4.3598,-4.3598,-4.3598,-4.3598,-4.3598,-4.3598,-4.3598,-4.3598,-4.3598,-4.3598,-4.3598,-4.3598,-4.3598,-4.3598,-4.3598,-4.3598,-4.3598,-4.3598,-4.3598,-4.3598,0.0,0.0,-3.2634,-3.2127,0.0,0.0,0.0,0.0,0.0,0.0,0.0,0.0,0.0,0.0,0.0,0.0,0.0,0.0,0.0,0.0,0.0,0.0,0.0,0.0,0.0,0.0,0.0,-3.4899,-3.457,-3.4374,-3.4374,-3.3892,-3.3636,-3.3636,-3.3324,-3.3087,-3.2926,-3.2971,-3.3135,-3.3413,-3.3817,-3.442,-3.5202,-3.5308,-3.5596,-3.6005,-3.5893,-3.5861,-3.5894,-3.5894,-3.5958,-3.6038,-3.6164,-3.6196,-3.6211,-3.629,-3.6708,-3.7356,-3.8108,-3.8772,-3.9299,-3.9299,-3.9299,-3.9299,-3.9299,-3.9299,-3.9299,-3.9299,-3.9299,-3.9299,-3.9299,-3.9299,-3.9365,-3.9613,-3.968,-3.973,-3.9951,-4.0028,-4.0106,-4.0418,-4.0473,-4.0609,-4.1001,-4.1481,-4.2045,-4.2774,-4.3284,-4.3598,-4.3598,-4.3598,-4.3598,-4.3598,-4.3598,-4.3598,-4.3598,-4.3076,-4.2736,-4.2736,-4.2219,-4.1897,-4.1897,-4.1897,-4.1897,-4.1897,-4.2446,-4.2736,-4.2736,-4.332,-4.3598,-4.3598,-4.3598,-4.3598,-3.3106,-3.2721,0.0,-3.2066,-3.1996,0.0,-3.1597,0.0,0.0,0.0,0.0,0.0,0.0,0.0,0.0,0.0,0.0,0.0,0.0,-3.3397,0.0,0.0,0.0,0.0,0.0,0.0,-3.4899,-3.4899,-3.4399,-3.4126,0.0,0.0,-3.315,-3.3203,-3.2873,-3.2726,-3.2726,-3.2508,-3.2613,-3.3044,-3.329,-3.394,-3.4956,-3.5125,-3.5553,-3.6163,-3.6037,-3.6037,-3.6053,-3.6053,-3.6116,-3.6211,-3.6274,-3.6305,-3.6274,-3.6068,-3.6321,-3.686,-3.7937,-3.859,-3.898,-3.9202,-3.9299,-3.9299,-3.9299,-3.9299,-3.9299,-3.9299,-3.9299,-3.9299,-3.9299,-3.9299,-3.9299,-3.9299,-3.9299,-3.9299,-3.9299,-3.9299,-3.9377,-3.9649,-3.9704,-3.9824,-4.0217,-4.0512,-4.0968,-4.182,-4.2376,-4.2673,-4.2673,-4.2673,-4.2673,-4.2673,-4.2732,-4.2774,-4.2804,-4.2299,-4.1977,-4.1977,-4.1403,-4.1054,-4.1054,-4.1012,-4.1144,-4.1448,-4.1703,-4.1992,-4.2314,-4.2558,-4.2835,-4.3142,-4.3142,-4.3304]}]]